[[{"header":{"parameterUnit":"m.s-1","parameterCategory":1,"la1":31.0,"la2":29.5877,"lo1":-88.7671,"lo2":-86.6584,"dy":0.0162,"dx":0.0185,"nx":115,"ny":88,"refTime":"2024-02-01T06:00:00:Z","depth":0,"parameterNumber":2,"parameterNumberName":"U-component_of_WINDS"},"data":[0.0,0.0,0.0,0.0,0.0,0.0,0.0,0.0,0.0,0.0,0.0,0.0,0.0,0.0,0.0,0.0,0.0,0.0,0.0,0.0,0.0,0.0,0.0,0.0,0.0,0.0,0.0,0.0,0.0,0.0,0.0,0.0,0.0,0.0,0.0,0.0,0.0,0.0,0.0,0.0,0.0,0.0,0.0,0.0,0.0,0.0,0.0,0.0,0.0,0.0,0.0,0.0,0.0,0.0,0.0,0.0,0.0,0.0,0.0,0.0,0.0,0.0,0.0,0.0,0.0,0.0,0.0,0.0,0.0,0.0,0.0,0.0,0.0,0.0,0.0,0.0,0.0,0.0,0.0,0.0,0.0,0.0,0.0,0.0,0.0,0.0,0.0,0.0,0.0,0.0,0.0,0.0,0.0,0.0,0.0,0.0,0.0,0.0,0.0,0.0,0.0,0.0,0.0,0.0,0.0,0.0,0.0,0.0,0.0,0.0,0.0,0.0,0.0,0.0,0.0,0.0,0.0,0.0,0.0,0.0,0.0,0.0,0.0,0.0,0.0,0.0,0.0,0.0,0.0,0.0,0.0,0.0,0.0,0.0,0.0,0.0,0.0,0.0,0.0,0.0,0.0,0.0,0.0,0.0,0.0,0.0,0.0,0.0,0.0,0.0,0.0,0.0,0.0,0.0,0.0,0.0,0.0,0.0,0.0,0.0,0.0,0.0,0.0,0.0,0.0,0.0,0.0,0.0,0.0,0.0,0.0,0.0,0.0,0.0,0.0,0.0,0.0,0.0,0.0,0.0,0.0,0.0,0.0,0.0,0.0,0.0,0.0,0.0,0.0,0.0,0.0,0.0,0.0,0.0,0.0,0.0,0.0,0.0,0.0,0.0,0.0,0.0,0.0,0.0,0.0,0.0,0.0,0.0,0.0,0.0,0.0,0.0,0.0,0.0,0.0,0.0,0.0,0.0,0.0,0.0,0.0,0.0,0.0,0.0,0.0,0.0,0.0,0.0,0.0,0.0,0.0,0.0,0.0,0.0,0.0,0.0,0.0,0.0,0.0,0.0,0.0,0.0,0.0,0.0,0.0,0.0,0.0,0.0,0.0,0.0,0.0,0.0,0.0,0.0,0.0,0.0,0.0,0.0,0.0,0.0,0.0,0.0,0.0,0.0,0.0,0.0,0.0,0.0,0.0,0.0,0.0,0.0,0.0,0.0,0.0,0.0,0.0,0.0,0.0,0.0,0.0,0.0,0.0,0.0,0.0,0.0,0.0,0.0,0.0,0.0,0.0,0.0,0.0,0.0,0.0,0.0,0.0,0.0,0.0,0.0,0.0,0.0,0.0,0.0,0.0,0.0,0.0,0.0,0.0,0.0,0.0,0.0,0.0,0.0,0.0,0.0,0.0,0.0,0.0,0.0,0.0,0.0,0.0,0.0,0.0,0.0,0.0,0.0,0.0,0.0,0.0,0.0,0.0,0.0,0.0,0.0,0.0,0.0,0.0,0.0,0.0,0.0,0.0,0.0,0.0,0.0,0.0,0.0,0.0,0.0,0.0,0.0,0.0,0.0,0.0,0.0,0.0,0.0,0.0,0.0,0.0,0.0,0.0,0.0,0.0,0.0,0.0,0.0,0.0,0.0,0.0,0.0,0.0,0.0,0.0,0.0,0.0,0.0,0.0,0.0,0.0,0.0,0.0,0.0,0.0,0.0,0.0,0.0,0.0,0.0,0.0,0.0,0.0,0.0,0.0,0.0,0.0,0.0,0.0,0.0,0.0,0.0,0.0,0.0,0.0,0.0,0.0,0.0,0.0,0.0,0.0,0.0,0.0,0.0,0.0,0.0,0.0,0.0,0.0,0.0,0.0,0.0,0.0,0.0,0.0,0.0,0.0,0.0,0.0,0.0,0.0,0.0,0.0,0.0,0.0,0.0,0.0,0.0,0.0,0.0,0.0,0.0,0.0,0.0,0.0,0.0,0.0,0.0,0.0,0.0,0.0,0.0,0.0,0.0,0.0,0.0,0.0,0.0,0.0,0.0,0.0,0.0,0.0,0.0,0.0,0.0,0.0,0.0,0.0,0.0,0.0,0.0,0.0,0.0,0.0,0.0,0.0,0.0,0.0,0.0,0.0,0.0,0.0,0.0,0.0,0.0,0.0,0.0,0.0,0.0,0.0,0.0,0.0,0.0,0.0,0.0,0.0,0.0,0.0,0.0,0.0,0.0,0.0,0.0,0.0,0.0,0.0,0.0,0.0,0.0,0.0,0.0,0.0,0.0,0.0,0.0,0.0,0.0,0.0,0.0,0.0,0.0,0.0,0.0,0.0,0.0,0.0,0.0,0.0,0.0,0.0,0.0,0.0,0.0,0.0,0.0,0.0,0.0,0.0,0.0,0.0,0.0,0.0,0.0,0.0,0.0,0.0,0.0,0.0,0.0,0.0,0.0,0.0,0.0,0.0,0.0,0.0,0.0,0.0,0.0,0.0,0.0,0.0,0.0,0.0,0.0,0.0,0.0,0.0,0.0,0.0,0.0,0.0,0.0,0.0,0.0,0.0,0.0,0.0,0.0,0.0,0.0,0.0,0.0,0.0,0.0,0.0,0.0,0.0,0.0,0.0,0.0,0.0,0.0,0.0,0.0,0.0,0.0,0.0,0.0,0.0,0.0,0.0,0.0,0.0,0.0,0.0,0.0,0.0,0.0,0.0,0.0,0.0,0.0,0.0,0.0,0.0,0.0,0.0,0.0,0.0,0.0,0.0,0.0,0.0,0.0,0.0,0.0,0.0,0.0,0.0,0.0,0.0,0.0,0.0,0.0,0.0,0.0,0.0,0.0,0.0,0.0,0.0,0.0,0.0,0.0,0.0,0.0,0.0,0.0,0.0,0.0,0.0,0.0,0.0,0.0,0.0,0.0,0.0,0.0,0.0,0.0,0.0,0.0,0.0,0.0,0.0,0.0,0.0,0.0,0.0,0.0,0.0,0.0,0.0,0.0,0.0,0.0,0.0,0.0,0.0,0.0,0.0,0.0,0.0,0.0,0.0,0.0,0.0,0.0,0.0,0.0,0.0,0.0,0.0,0.0,0.0,0.0,0.0,0.0,0.0,0.0,0.0,0.0,0.0,0.0,0.0,0.0,0.0,0.0,0.0,0.0,0.0,0.0,0.0,0.0,0.0,0.0,0.0,0.0,0.0,0.0,0.0,0.0,0.0,0.0,0.0,0.0,0.0,0.0,0.0,0.0,0.0,0.0,0.0,0.0,0.0,0.0,0.0,0.0,0.0,0.0,0.0,0.0,0.0,0.0,0.0,0.0,0.0,0.0,0.0,0.0,0.0,0.0,0.0,0.0,0.0,0.0,0.0,0.0,0.0,0.0,0.0,0.0,0.0,0.0,0.0,0.0,0.0,0.0,0.0,0.0,0.0,0.0,0.0,0.0,0.0,0.0,0.0,0.0,0.0,0.0,0.0,0.0,0.0,0.0,0.0,0.0,0.0,0.0,0.0,0.0,0.0,0.0,0.0,0.0,0.0,0.0,0.0,0.0,0.0,0.0,0.0,0.0,0.0,0.0,0.0,0.0,0.0,0.0,0.0,0.0,0.0,0.0,0.0,0.0,0.0,0.0,0.0,0.0,0.0,0.0,0.0,0.0,0.0,0.0,0.0,0.0,0.0,0.0,0.0,0.0,0.0,0.0,0.0,0.0,0.0,0.0,0.0,0.0,0.0,0.0,0.0,0.0,0.0,0.0,0.0,0.0,0.0,0.0,0.0,0.0,0.0,0.0,0.0,0.0,0.0,0.0,0.0,0.0,0.0,0.0,0.0,0.0,0.0,0.0,0.0,0.0,0.0,0.0,0.0,0.0,0.0,0.0,0.0,0.0,0.0,0.0,0.0,0.0,0.0,0.0,0.0,0.0,0.0,0.0,0.0,0.0,0.0,0.0,0.0,0.0,0.0,0.0,0.0,0.0,0.0,0.0,0.0,0.0,0.0,0.0,0.0,0.0,0.0,0.0,0.0,0.0,0.0,0.0,0.0,0.0,0.0,0.0,0.0,0.0,0.0,0.0,0.0,0.0,0.0,0.0,0.0,0.0,0.0,0.0,0.0,0.0,0.0,0.0,0.0,0.0,0.0,0.0,0.0,0.0,0.0,0.0,0.0,0.0,0.0,0.0,0.0,0.0,0.0,0.0,0.0,0.0,0.0,0.0,0.0,0.0,0.0,0.0,0.0,0.0,0.0,0.0,0.0,0.0,0.0,0.0,0.0,0.0,0.0,0.0,7.011,0.0,0.0,0.0,0.0,0.0,0.0,0.0,0.0,0.0,0.0,0.0,0.0,0.0,0.0,0.0,0.0,0.0,0.0,0.0,0.0,0.0,0.0,0.0,0.0,0.0,0.0,0.0,0.0,0.0,0.0,0.0,0.0,0.0,0.0,0.0,0.0,0.0,0.0,0.0,0.0,0.0,0.0,0.0,0.0,0.0,0.0,0.0,0.0,0.0,0.0,0.0,0.0,0.0,0.0,0.0,0.0,0.0,0.0,0.0,0.0,0.0,0.0,0.0,0.0,0.0,0.0,0.0,0.0,0.0,0.0,0.0,0.0,0.0,0.0,0.0,0.0,0.0,0.0,0.0,0.0,0.0,0.0,0.0,0.0,0.0,0.0,0.0,0.0,0.0,0.0,0.0,0.0,0.0,0.0,0.0,0.0,0.0,0.0,0.0,0.0,0.0,0.0,0.0,0.0,0.0,0.0,0.0,0.0,0.0,0.0,7.2532,7.2496,7.2165,7.1394,7.011,0.0,0.0,0.0,0.0,0.0,0.0,0.0,0.0,0.0,0.0,0.0,0.0,0.0,0.0,0.0,0.0,0.0,0.0,0.0,0.0,0.0,0.0,0.0,0.0,0.0,0.0,0.0,0.0,0.0,0.0,0.0,0.0,0.0,0.0,0.0,0.0,0.0,0.0,0.0,0.0,0.0,0.0,0.0,0.0,0.0,0.0,0.0,0.0,0.0,0.0,0.0,0.0,0.0,0.0,0.0,0.0,0.0,0.0,0.0,0.0,0.0,0.0,0.0,0.0,0.0,0.0,0.0,0.0,0.0,0.0,0.0,0.0,0.0,0.0,0.0,0.0,0.0,0.0,0.0,0.0,0.0,0.0,0.0,0.0,0.0,0.0,0.0,0.0,0.0,0.0,0.0,0.0,0.0,0.0,0.0,0.0,0.0,0.0,0.0,0.0,0.0,0.0,0.0,0.0,0.0,0.0,0.0,0.0,0.0,0.0,0.0,0.0,7.2532,7.1725,7.0146,0.0,0.0,0.0,0.0,0.0,0.0,0.0,0.0,0.0,0.0,0.0,0.0,0.0,0.0,0.0,0.0,0.0,0.0,0.0,0.0,0.0,0.0,0.0,0.0,0.0,0.0,0.0,0.0,0.0,0.0,0.0,0.0,0.0,0.0,0.0,0.0,0.0,0.0,0.0,0.0,0.0,0.0,0.0,0.0,0.0,0.0,0.0,0.0,0.0,0.0,0.0,0.0,0.0,0.0,0.0,0.0,0.0,0.0,0.0,0.0,0.0,0.0,0.0,0.0,0.0,0.0,0.0,0.0,0.0,0.0,0.0,0.0,0.0,0.0,0.0,0.0,0.0,0.0,0.0,0.0,0.0,0.0,0.0,0.0,0.0,0.0,0.0,0.0,0.0,0.0,0.0,0.0,0.0,0.0,0.0,0.0,0.0,0.0,0.0,0.0,0.0,0.0,0.0,0.0,0.0,0.0,0.0,0.0,0.0,0.0,7.2532,7.2532,7.2496,0.0,7.0183,0.0,0.0,0.0,0.0,0.0,0.0,0.0,0.0,0.0,0.0,0.0,0.0,0.0,0.0,0.0,0.0,0.0,0.0,0.0,0.0,0.0,0.0,0.0,0.0,0.0,0.0,0.0,0.0,0.0,0.0,0.0,0.0,0.0,0.0,0.0,0.0,0.0,0.0,0.0,0.0,0.0,0.0,0.0,0.0,0.0,0.0,0.0,0.0,0.0,0.0,0.0,0.0,0.0,0.0,0.0,0.0,0.0,0.0,0.0,0.0,0.0,0.0,0.0,0.0,0.0,0.0,0.0,0.0,0.0,0.0,0.0,0.0,0.0,0.0,0.0,0.0,0.0,0.0,0.0,0.0,0.0,0.0,0.0,0.0,0.0,0.0,0.0,0.0,0.0,0.0,0.0,0.0,0.0,0.0,0.0,0.0,0.0,0.0,0.0,0.0,0.0,0.0,0.0,0.0,0.0,0.0,0.0,0.0,0.0,0.0,7.2532,7.2532,7.2055,7.1505,0.0,0.0,0.0,0.0,0.0,0.0,0.0,0.0,0.0,0.0,0.0,0.0,0.0,0.0,0.0,0.0,0.0,0.0,0.0,0.0,0.0,0.0,0.0,0.0,0.0,0.0,0.0,0.0,0.0,0.0,0.0,0.0,0.0,0.0,0.0,0.0,0.0,0.0,0.0,0.0,0.0,0.0,0.0,0.0,0.0,0.0,0.0,0.0,0.0,0.0,0.0,0.0,0.0,0.0,0.0,0.0,0.0,0.0,0.0,0.0,0.0,0.0,0.0,0.0,0.0,0.0,0.0,0.0,0.0,0.0,0.0,0.0,0.0,0.0,0.0,0.0,0.0,0.0,0.0,0.0,0.0,0.0,0.0,0.0,0.0,0.0,0.0,0.0,0.0,0.0,0.0,0.0,0.0,0.0,0.0,0.0,0.0,0.0,0.0,0.0,0.0,0.0,0.0,0.0,0.0,0.0,0.0,0.0,0.0,0.0,7.2532,7.2532,7.2496,7.1945,7.1541,7.1321,0.0,0.0,0.0,0.0,0.0,0.0,0.0,0.0,0.0,0.0,0.0,0.0,0.0,0.0,0.0,0.0,0.0,0.0,0.0,0.0,0.0,0.0,0.0,0.0,0.0,0.0,0.0,0.0,0.0,0.0,0.0,0.0,0.0,0.0,0.0,0.0,0.0,0.0,0.0,0.0,0.0,0.0,0.0,0.0,0.0,0.0,0.0,0.0,0.0,0.0,0.0,0.0,0.0,0.0,0.0,0.0,0.0,0.0,0.0,0.0,0.0,0.0,0.0,0.0,0.0,0.0,0.0,0.0,0.0,0.0,0.0,0.0,0.0,0.0,0.0,0.0,0.0,0.0,0.0,0.0,0.0,0.0,0.0,0.0,0.0,0.0,0.0,0.0,0.0,0.0,0.0,0.0,0.0,0.0,0.0,0.0,0.0,0.0,0.0,0.0,0.0,0.0,0.0,0.0,0.0,0.0,0.0,0.0,7.2532,7.2532,7.2532,7.2532,7.2459,7.2092,0.0,0.0,0.0,0.0,0.0,0.0,0.0,0.0,0.0,0.0,0.0,0.0,0.0,0.0,0.0,0.0,0.0,0.0,0.0,0.0,0.0,0.0,0.0,0.0,0.0,0.0,0.0,0.0,0.0,0.0,0.0,0.0,0.0,0.0,0.0,0.0,0.0,0.0,0.0,0.0,0.0,0.0,0.0,0.0,0.0,0.0,0.0,0.0,0.0,0.0,0.0,0.0,0.0,0.0,0.0,0.0,0.0,0.0,0.0,0.0,0.0,0.0,0.0,0.0,0.0,0.0,0.0,0.0,0.0,0.0,0.0,0.0,0.0,0.0,0.0,0.0,0.0,0.0,0.0,0.0,0.0,0.0,0.0,0.0,0.0,0.0,0.0,0.0,0.0,0.0,0.0,0.0,0.0,0.0,0.0,0.0,0.0,0.0,0.0,0.0,0.0,0.0,0.0,0.0,0.0,0.0,0.0,0.0,0.0,7.2532,7.2532,7.2532,7.2532,7.2532,7.2349,0.0,0.0,0.0,0.0,0.0,0.0,0.0,0.0,0.0,0.0,0.0,0.0,0.0,0.0,0.0,0.0,0.0,0.0,0.0,0.0,0.0,0.0,0.0,0.0,0.0,0.0,0.0,0.0,0.0,0.0,0.0,0.0,0.0,0.0,0.0,0.0,0.0,0.0,0.0,0.0,0.0,0.0,0.0,0.0,0.0,0.0,0.0,0.0,0.0,0.0,0.0,0.0,0.0,0.0,0.0,0.0,0.0,0.0,0.0,0.0,0.0,0.0,0.0,0.0,0.0,0.0,0.0,0.0,0.0,0.0,0.0,0.0,0.0,0.0,0.0,0.0,0.0,0.0,0.0,0.0,0.0,0.0,0.0,0.0,0.0,0.0,0.0,0.0,0.0,0.0,0.0,0.0,0.0,0.0,0.0,0.0,0.0,0.0,0.0,0.0,0.0,0.0,0.0,0.0,0.0,0.0,0.0,0.0,0.0,7.2532,0.0,7.2532,7.2532,7.2532,7.2532,0.0,0.0,0.0,0.0,0.0,0.0,0.0,0.0,0.0,0.0,0.0,0.0,0.0,0.0,0.0,0.0,0.0,0.0,0.0,0.0,0.0,0.0,0.0,0.0,0.0,0.0,0.0,0.0,0.0,0.0,0.0,0.0,0.0,0.0,0.0,0.0,0.0,0.0,0.0,0.0,0.0,0.0,0.0,0.0,0.0,0.0,0.0,0.0,0.0,0.0,0.0,0.0,0.0,0.0,0.0,0.0,0.0,0.0,0.0,0.0,0.0,0.0,0.0,0.0,0.0,0.0,0.0,0.0,0.0,0.0,0.0,0.0,0.0,0.0,0.0,0.0,0.0,0.0,0.0,0.0,0.0,0.0,0.0,0.0,0.0,0.0,0.0,0.0,0.0,0.0,0.0,0.0,0.0,0.0,0.0,0.0,0.0,0.0,0.0,0.0,0.0,0.0,0.0,0.0,0.0,0.0,0.0,0.0,7.2532,7.2532,7.2532,7.2569,7.2532,7.2532,7.2532,0.0,0.0,0.0,0.0,0.0,0.0,0.0,0.0,0.0,0.0,0.0,0.0,0.0,0.0,0.0,0.0,0.0,0.0,0.0,0.0,0.0,0.0,0.0,0.0,0.0,0.0,0.0,0.0,0.0,0.0,0.0,0.0,0.0,0.0,0.0,0.0,0.0,0.0,0.0,0.0,0.0,0.0,0.0,0.0,0.0,0.0,0.0,0.0,0.0,0.0,0.0,0.0,0.0,0.0,0.0,0.0,0.0,0.0,0.0,0.0,0.0,0.0,0.0,0.0,0.0,0.0,0.0,0.0,0.0,0.0,0.0,0.0,0.0,0.0,0.0,0.0,0.0,0.0,0.0,0.0,0.0,0.0,0.0,0.0,0.0,0.0,0.0,0.0,0.0,0.0,0.0,0.0,0.0,0.0,0.0,0.0,0.0,0.0,0.0,0.0,0.0,0.0,0.0,0.0,0.0,0.0,0.0,0.0,0.0,7.3303,7.334,7.334,7.334,7.334,7.3046,0.0,0.0,0.0,0.0,0.0,0.0,0.0,0.0,0.0,0.0,0.0,0.0,0.0,0.0,0.0,0.0,0.0,0.0,0.0,0.0,0.0,0.0,0.0,0.0,0.0,0.0,0.0,0.0,0.0,0.0,0.0,0.0,0.0,0.0,0.0,0.0,0.0,0.0,0.0,0.0,0.0,0.0,0.0,0.0,0.0,0.0,0.0,0.0,0.0,0.0,0.0,0.0,0.0,0.0,0.0,0.0,0.0,0.0,0.0,0.0,0.0,0.0,0.0,0.0,0.0,0.0,0.0,0.0,0.0,0.0,0.0,0.0,0.0,0.0,0.0,0.0,0.0,0.0,0.0,0.0,0.0,0.0,0.0,0.0,0.0,0.0,0.0,0.0,0.0,0.0,0.0,0.0,0.0,0.0,0.0,0.0,0.0,0.0,0.0,0.0,0.0,0.0,0.0,0.0,0.0,0.0,0.0,0.0,0.0,7.4551,7.4294,7.4147,7.4147,7.3854,7.345,7.2973,0.0,0.0,0.0,0.0,0.0,0.0,0.0,0.0,0.0,0.0,0.0,0.0,0.0,0.0,0.0,0.0,0.0,0.0,0.0,0.0,0.0,0.0,0.0,0.0,0.0,0.0,0.0,0.0,0.0,0.0,0.0,0.0,0.0,0.0,0.0,0.0,0.0,0.0,0.0,0.0,0.0,0.0,0.0,0.0,0.0,0.0,0.0,0.0,0.0,0.0,0.0,0.0,0.0,0.0,0.0,0.0,0.0,0.0,0.0,0.0,0.0,0.0,0.0,0.0,0.0,0.0,0.0,0.0,0.0,0.0,0.0,0.0,0.0,0.0,0.0,0.0,0.0,0.0,0.0,0.0,0.0,0.0,0.0,0.0,0.0,0.0,0.0,0.0,0.0,0.0,0.0,0.0,0.0,0.0,0.0,0.0,0.0,0.0,0.0,0.0,0.0,0.0,0.0,0.0,0.0,0.0,0.0,0.0,7.624,7.5542,7.5139,7.4955,7.4258,7.378,0.0,0.0,0.0,0.0,0.0,0.0,0.0,0.0,0.0,0.0,0.0,0.0,0.0,0.0,0.0,0.0,0.0,0.0,0.0,0.0,0.0,0.0,0.0,0.0,0.0,0.0,0.0,0.0,0.0,0.0,0.0,0.0,0.0,0.0,0.0,0.0,0.0,0.0,0.0,0.0,0.0,0.0,0.0,0.0,0.0,0.0,0.0,0.0,0.0,0.0,0.0,0.0,0.0,0.0,0.0,0.0,0.0,0.0,0.0,0.0,0.0,0.0,0.0,0.0,0.0,0.0,0.0,0.0,0.0,0.0,0.0,0.0,0.0,0.0,0.0,0.0,0.0,0.0,0.0,0.0,0.0,0.0,0.0,0.0,0.0,0.0,0.0,0.0,0.0,0.0,0.0,0.0,0.0,0.0,0.0,0.0,0.0,0.0,0.0,0.0,0.0,0.0,0.0,0.0,0.0,0.0,0.0,0.0,0.0,7.7928,7.8332,7.7635,7.5873,7.5579,7.4918,0.0,0.0,0.0,0.0,0.0,0.0,0.0,0.0,0.0,0.0,0.0,0.0,0.0,0.0,0.0,0.0,0.0,0.0,0.0,0.0,0.0,0.0,0.0,0.0,0.0,0.0,0.0,0.0,0.0,0.0,0.0,0.0,0.0,0.0,0.0,0.0,0.0,0.0,0.0,0.0,0.0,0.0,0.0,0.0,0.0,0.0,0.0,0.0,0.0,0.0,0.0,0.0,0.0,0.0,0.0,0.0,0.0,0.0,0.0,0.0,0.0,0.0,0.0,0.0,0.0,0.0,0.0,0.0,0.0,0.0,0.0,0.0,0.0,0.0,0.0,0.0,0.0,0.0,0.0,0.0,0.0,0.0,0.0,0.0,0.0,0.0,0.0,0.0,0.0,0.0,0.0,0.0,0.0,0.0,0.0,0.0,0.0,0.0,0.0,0.0,0.0,0.0,0.0,0.0,0.0,0.0,0.0,0.0,7.8075,7.8589,7.936,7.9103,7.7708,7.6974,7.5873,0.0,0.0,0.0,0.0,0.0,0.0,0.0,0.0,0.0,0.0,0.0,0.0,0.0,0.0,0.0,0.0,0.0,0.0,0.0,0.0,0.0,0.0,0.0,0.0,0.0,0.0,0.0,0.0,0.0,0.0,0.0,0.0,0.0,0.0,0.0,0.0,0.0,0.0,0.0,0.0,0.0,0.0,0.0,0.0,0.0,0.0,0.0,0.0,0.0,0.0,0.0,0.0,0.0,0.0,0.0,0.0,0.0,0.0,0.0,0.0,0.0,0.0,0.0,0.0,0.0,0.0,0.0,0.0,0.0,0.0,0.0,0.0,0.0,0.0,0.0,0.0,0.0,0.0,0.0,0.0,0.0,0.0,0.0,0.0,0.0,0.0,0.0,0.0,0.0,0.0,0.0,0.0,0.0,0.0,0.0,0.0,0.0,0.0,0.0,0.0,0.0,0.0,0.0,0.0,0.0,0.0,0.0,0.0,7.8846,7.8846,7.9617,7.9984,7.9874,7.8332,7.6754,0.0,0.0,0.0,0.0,0.0,0.0,0.0,0.0,0.0,0.0,0.0,0.0,0.0,0.0,0.0,0.0,0.0,0.0,0.0,0.0,0.0,0.0,0.0,0.0,0.0,0.0,0.0,0.0,0.0,0.0,0.0,0.0,0.0,0.0,0.0,0.0,0.0,0.0,0.0,0.0,0.0,0.0,0.0,0.0,0.0,0.0,0.0,0.0,0.0,0.0,0.0,0.0,0.0,0.0,0.0,0.0,0.0,0.0,0.0,0.0,0.0,0.0,0.0,0.0,0.0,0.0,0.0,0.0,0.0,0.0,0.0,0.0,0.0,0.0,0.0,0.0,0.0,0.0,0.0,0.0,0.0,0.0,0.0,0.0,0.0,0.0,0.0,0.0,0.0,0.0,0.0,0.0,0.0,0.0,0.0,0.0,0.0,0.0,0.0,0.0,0.0,0.0,0.0,0.0,0.0,0.0,0.0,0.0,8.0498,8.0534,8.1269,8.1379,8.0755,7.9176,7.7855,0.0,0.0,0.0,0.0,0.0,0.0,0.0,0.0,0.0,0.0,0.0,0.0,0.0,0.0,0.0,0.0,0.0,0.0,0.0,0.0,0.0,0.0,0.0,0.0,0.0,0.0,0.0,0.0,0.0,0.0,0.0,0.0,0.0,0.0,0.0,0.0,0.0,0.0,0.0,0.0,0.0,0.0,0.0,0.0,0.0,0.0,0.0,0.0,7.2532,0.0,0.0,0.0,0.0,0.0,0.0,0.0,0.0,0.0,0.0,0.0,0.0,0.0,0.0,0.0,0.0,0.0,0.0,0.0,0.0,0.0,0.0,0.0,0.0,0.0,0.0,0.0,0.0,0.0,0.0,0.0,0.0,0.0,0.0,0.0,0.0,0.0,0.0,0.0,0.0,0.0,0.0,0.0,0.0,0.0,0.0,0.0,0.0,0.0,0.0,0.0,0.0,0.0,0.0,0.0,0.0,0.0,0.0,0.0,8.1012,8.1012,8.215,8.237,8.1562,8.0388,7.8956,0.0,0.0,0.0,0.0,0.0,0.0,0.0,0.0,0.0,0.0,0.0,0.0,0.0,0.0,0.0,0.0,0.0,0.0,0.0,0.0,0.0,0.0,0.0,0.0,0.0,0.0,0.0,0.0,0.0,0.0,0.0,0.0,0.0,0.0,0.0,0.0,0.0,0.0,0.0,0.0,0.0,0.0,0.0,0.0,0.0,0.0,0.0,0.0,0.0,0.0,0.0,0.0,0.0,0.0,0.0,0.0,0.0,0.0,0.0,0.0,0.0,0.0,0.0,0.0,0.0,0.0,0.0,0.0,0.0,0.0,0.0,0.0,0.0,0.0,0.0,0.0,0.0,0.0,0.0,0.0,0.0,0.0,0.0,0.0,0.0,0.0,0.0,0.0,0.0,0.0,0.0,0.0,0.0,0.0,0.0,0.0,0.0,0.0,0.0,0.0,0.0,0.0,0.0,0.0,0.0,0.0,0.0,8.0424,8.1269,8.1415,8.281,8.3214,8.2406,8.1599,8.0021,7.7635,0.0,0.0,0.0,0.0,0.0,0.0,0.0,0.0,0.0,0.0,0.0,0.0,0.0,0.0,0.0,0.0,0.0,0.0,0.0,0.0,0.0,0.0,0.0,0.0,0.0,0.0,0.0,0.0,0.0,0.0,0.0,0.0,0.0,0.0,0.0,0.0,0.0,0.0,7.2679,7.2679,0.0,0.0,0.0,0.0,0.0,0.0,0.0,0.0,7.4585,0.0,0.0,0.0,0.0,0.0,0.0,0.0,0.0,0.0,0.0,0.0,0.0,0.0,0.0,0.0,0.0,0.0,0.0,0.0,0.0,0.0,0.0,0.0,0.0,0.0,0.0,0.0,0.0,0.0,0.0,0.0,0.0,0.0,0.0,0.0,0.0,0.0,0.0,0.0,0.0,0.0,0.0,0.0,0.0,0.0,0.0,0.0,0.0,0.0,0.0,0.0,0.0,0.0,0.0,0.0,0.0,8.0608,8.1525,8.2333,8.303,8.3911,8.4022,8.3214,8.2406,8.0865,7.8516,0.0,0.0,0.0,0.0,0.0,0.0,0.0,0.0,0.0,0.0,0.0,0.0,0.0,0.0,0.0,0.0,0.0,0.0,0.0,0.0,0.0,0.0,0.0,0.0,0.0,0.0,0.0,0.0,0.0,0.0,0.0,0.0,0.0,0.0,0.0,0.0,0.0,0.0,0.0,7.3487,7.3744,0.0,0.0,0.0,0.0,0.0,0.0,0.0,0.0,7.4312,0.0,0.0,0.0,0.0,0.0,0.0,0.0,0.0,0.0,0.0,0.0,0.0,0.0,0.0,0.0,0.0,0.0,0.0,0.0,0.0,0.0,0.0,0.0,0.0,0.0,0.0,0.0,0.0,0.0,0.0,0.0,0.0,0.0,0.0,0.0,0.0,0.0,0.0,0.0,0.0,0.0,0.0,0.0,0.0,0.0,0.0,0.0,0.0,0.0,0.0,0.0,0.0,0.0,0.0,0.0,8.1599,8.281,8.3618,8.4058,8.4792,8.4829,8.4022,8.2847,8.1269,0.0,0.0,0.0,0.0,0.0,0.0,0.0,0.0,0.0,0.0,0.0,0.0,0.0,0.0,0.0,0.0,0.0,0.0,0.0,0.0,0.0,0.0,0.0,0.0,0.0,0.0,0.0,0.0,0.0,0.0,0.0,0.0,0.0,0.0,0.0,0.0,0.0,0.0,0.0,0.0,7.4037,7.4478,7.4845,0.0,0.0,0.0,0.0,0.0,0.0,7.5558,7.5789,0.0,0.0,0.0,0.0,0.0,0.0,0.0,0.0,0.0,0.0,0.0,0.0,0.0,0.0,0.0,0.0,0.0,0.0,0.0,0.0,0.0,0.0,0.0,0.0,0.0,0.0,0.0,0.0,0.0,0.0,0.0,0.0,0.0,0.0,0.0,0.0,0.0,0.0,0.0,0.0,0.0,0.0,0.0,0.0,0.0,0.0,0.0,0.0,0.0,0.0,0.0,0.0,0.0,0.0,0.0,8.2186,8.3765,8.4682,8.4866,8.5637,8.5673,8.4829,8.3104,8.1452,0.0,0.0,0.0,0.0,0.0,0.0,0.0,0.0,0.0,0.0,0.0,0.0,0.0,0.0,0.0,0.0,0.0,0.0,0.0,0.0,0.0,0.0,0.0,0.0,0.0,0.0,0.0,0.0,0.0,0.0,0.0,0.0,0.0,0.0,0.0,0.0,0.0,0.0,0.0,0.0,0.0,7.5469,7.5616,7.5506,0.0,0.0,0.0,0.0,7.6374,7.7054,0.0,0.0,0.0,0.0,0.0,0.0,0.0,0.0,0.0,0.0,0.0,0.0,0.0,0.0,0.0,0.0,0.0,0.0,0.0,0.0,0.0,0.0,0.0,0.0,0.0,0.0,0.0,0.0,0.0,0.0,0.0,0.0,0.0,0.0,0.0,0.0,0.0,0.0,0.0,0.0,0.0,0.0,0.0,0.0,0.0,0.0,0.0,0.0,0.0,0.0,0.0,0.0,0.0,0.0,0.0,0.0,8.2186,8.3801,8.4939,8.5637,8.6444,8.6481,8.5637,8.3398,8.1415,0.0,0.0,0.0,0.0,0.0,0.0,0.0,0.0,0.0,0.0,0.0,0.0,0.0,0.0,0.0,0.0,0.0,0.0,0.0,0.0,0.0,0.0,0.0,0.0,0.0,0.0,0.0,0.0,0.0,0.0,0.0,0.0,0.0,0.0,0.0,0.0,0.0,0.0,0.0,0.0,0.0,7.7304,7.8075,7.7524,7.7047,0.0,0.0,7.641,7.7266,7.7039,0.0,0.0,0.0,0.0,0.0,0.0,0.0,0.0,0.0,0.0,0.0,0.0,0.0,0.0,0.0,0.0,0.0,0.0,0.0,0.0,0.0,0.0,0.0,0.0,0.0,0.0,0.0,0.0,0.0,0.0,0.0,0.0,0.0,0.0,0.0,0.0,0.0,0.0,0.0,0.0,0.0,0.0,0.0,0.0,0.0,0.0,0.0,0.0,0.0,0.0,0.0,0.0,0.0,0.0,0.0,8.1709,8.4168,8.538,8.6554,8.7802,8.8206,8.7986,8.7178,8.4829,8.259,0.0,0.0,0.0,0.0,0.0,0.0,0.0,0.0,0.0,0.0,0.0,0.0,0.0,0.0,0.0,0.0,0.0,0.0,0.0,0.0,0.0,0.0,0.0,0.0,0.0,0.0,0.0,0.0,0.0,0.0,0.0,0.0,0.0,0.0,0.0,0.0,0.0,0.0,0.0,0.0,0.0,0.0,7.9103,7.8589,0.0,0.0,0.0,7.7696,7.821,0.0,0.0,0.0,0.0,0.0,0.0,0.0,0.0,0.0,0.0,0.0,0.0,0.0,0.0,0.0,0.0,0.0,0.0,0.0,0.0,0.0,0.0,0.0,0.0,0.0,0.0,0.0,0.0,0.0,0.0,0.0,0.0,0.0,0.0,0.0,0.0,0.0,0.0,0.0,0.0,0.0,0.0,0.0,0.0,0.0,0.0,0.0,0.0,0.0,0.0,0.0,0.0,0.0,0.0,0.0,0.0,0.0,8.5453,8.6701,8.7986,8.9344,8.9417,8.9124,8.85,8.5967,0.0,0.0,0.0,0.0,0.0,0.0,0.0,0.0,0.0,0.0,0.0,0.0,0.0,0.0,0.0,0.0,0.0,0.0,0.0,0.0,0.0,0.0,0.0,0.0,0.0,0.0,0.0,7.312,0.0,0.0,0.0,0.0,0.0,0.0,0.0,0.0,0.0,0.0,0.0,0.0,0.0,0.0,7.8148,7.958,7.947,7.9176,0.0,0.0,7.9019,7.9449,7.9718,7.9542,0.0,0.0,0.0,0.0,0.0,0.0,0.0,0.0,0.0,0.0,0.0,0.0,0.0,0.0,0.0,0.0,0.0,0.0,0.0,0.0,0.0,0.0,0.0,0.0,0.0,0.0,0.0,0.0,0.0,0.0,0.0,0.0,0.0,0.0,0.0,0.0,0.0,0.0,0.0,0.0,0.0,0.0,0.0,0.0,0.0,0.0,0.0,0.0,0.0,0.0,0.0,0.0,0.0,0.0,8.2957,8.4682,8.6958,8.8536,8.9381,8.9417,8.9417,8.9271,8.6261,8.4535,0.0,0.0,0.0,0.0,0.0,0.0,0.0,0.0,0.0,0.0,0.0,0.0,0.0,0.0,0.0,0.0,0.0,0.0,0.0,0.0,0.0,0.0,0.0,0.0,0.0,0.0,0.0,0.0,0.0,0.0,0.0,0.0,0.0,0.0,0.0,0.0,0.0,0.0,0.0,0.0,0.0,7.8809,7.9653,8.0388,8.0828,0.0,8.0204,8.0073,8.112,8.0036,7.9157,7.9334,0.0,0.0,0.0,0.0,0.0,0.0,0.0,0.0,0.0,0.0,0.0,0.0,0.0,0.0,0.0,0.0,0.0,0.0,0.0,0.0,0.0,0.0,0.0,0.0,0.0,0.0,0.0,0.0,0.0,0.0,0.0,0.0,0.0,0.0,0.0,0.0,0.0,0.0,0.0,0.0,0.0,0.0,0.0,0.0,0.0,0.0,0.0,0.0,0.0,0.0,0.0,0.0,0.0,8.3728,8.6775,8.7729,8.9087,9.0812,9.0886,9.0665,9.0152,8.7986,8.6114,0.0,0.0,0.0,0.0,0.0,0.0,0.0,0.0,0.0,0.0,0.0,0.0,0.0,0.0,0.0,0.0,0.0,0.0,0.0,0.0,0.0,0.0,0.0,0.0,0.0,0.0,0.0,0.0,7.5652,7.5652,7.5652,0.0,0.0,0.0,0.0,0.0,0.0,0.0,0.0,0.0,0.0,7.925,8.1012,8.1122,0.0,0.0,8.0782,8.0677,8.0738,8.0711,8.0422,7.9651,7.8276,0.0,0.0,0.0,0.0,0.0,0.0,0.0,0.0,0.0,0.0,0.0,0.0,0.0,0.0,0.0,0.0,0.0,0.0,0.0,0.0,0.0,0.0,0.0,0.0,0.0,0.0,0.0,0.0,0.0,0.0,0.0,0.0,0.0,0.0,0.0,0.0,0.0,0.0,0.0,0.0,0.0,0.0,0.0,0.0,0.0,0.0,0.0,0.0,0.0,0.0,0.0,0.0,8.4425,8.8169,8.8426,8.9638,9.1767,9.1803,9.151,9.0959,8.9417,8.7766,0.0,0.0,0.0,0.0,0.0,0.0,0.0,0.0,0.0,0.0,0.0,0.0,0.0,0.0,0.0,0.0,0.0,0.0,0.0,0.0,0.0,0.0,0.0,0.0,0.0,0.0,0.0,0.0,7.6276,7.613,7.613,0.0,0.0,0.0,0.0,0.0,0.0,0.0,0.0,0.0,0.0,7.936,8.1525,8.1562,8.1379,8.1379,8.125,8.107,8.0664,8.0822,8.0703,7.9985,0.0,0.0,0.0,0.0,0.0,0.0,0.0,0.0,0.0,0.0,0.0,0.0,0.0,0.0,0.0,0.0,0.0,0.0,0.0,0.0,0.0,0.0,0.0,0.0,0.0,0.0,0.0,8.0938,0.0,0.0,7.8626,0.0,0.0,0.0,0.0,0.0,0.0,0.0,0.0,0.0,0.0,0.0,0.0,0.0,0.0,0.0,0.0,0.0,0.0,0.0,0.0,0.0,0.0,8.4976,8.8133,8.8977,9.0152,9.173,9.1803,9.1767,9.1693,9.0225,8.9381,8.9197,0.0,0.0,0.0,0.0,0.0,0.0,0.0,0.0,0.0,0.0,0.0,0.0,0.0,0.0,0.0,0.0,0.0,0.0,0.0,0.0,0.0,0.0,0.0,0.0,0.0,0.0,7.7157,7.657,7.6093,0.0,0.0,0.0,0.0,0.0,0.0,0.0,0.0,0.0,7.8442,7.8589,7.9176,8.0828,8.1672,8.2113,8.215,8.1617,8.1292,8.1379,8.0304,7.9665,0.0,0.0,0.0,0.0,0.0,0.0,0.0,0.0,0.0,0.0,0.0,0.0,0.0,0.0,0.0,0.0,0.0,0.0,0.0,0.0,0.0,0.0,0.0,0.0,0.0,0.0,0.0,8.1746,8.1012,0.0,0.0,0.0,0.0,0.0,0.0,0.0,0.0,0.0,0.0,0.0,8.5343,8.4829,0.0,0.0,0.0,0.0,0.0,0.0,0.0,0.0,0.0,0.0,0.0,0.0,8.5783,8.8867,8.9271,9.0188,9.173,9.1803,9.1803,9.1803,9.0776,8.9711,8.8647,0.0,0.0,0.0,0.0,0.0,0.0,0.0,0.0,0.0,0.0,0.0,0.0,0.0,0.0,0.0,0.0,0.0,0.0,0.0,0.0,0.0,0.0,0.0,0.0,0.0,7.6203,0.0,0.0,0.0,0.0,0.0,0.0,0.0,0.0,0.0,0.0,7.635,7.6827,7.7635,7.8222,7.9176,8.0791,8.1232,8.1627,0.0,0.0,0.0,0.0,0.0,0.0,0.0,0.0,0.0,0.0,0.0,0.0,0.0,0.0,8.2962,7.9702,7.9129,7.9131,7.9094,0.0,0.0,0.0,0.0,0.0,0.0,0.0,0.0,0.0,0.0,0.0,0.0,0.0,0.0,8.3141,8.2663,8.237,0.0,0.0,0.0,0.0,0.0,0.0,0.0,0.0,8.5747,8.6554,8.7802,8.7288,8.7031,0.0,8.6518,8.6261,0.0,0.0,0.0,0.0,0.0,0.0,0.0,0.0,8.6738,8.9307,8.9968,9.0922,9.2207,9.2537,9.2684,9.2648,9.1804,9.0704,8.9276,8.8029,8.6819,0.0,0.0,0.0,0.0,0.0,0.0,0.0,0.0,0.0,0.0,0.0,0.0,0.0,0.0,0.0,0.0,0.0,0.0,0.0,0.0,0.0,0.0,0.0,7.6974,0.0,0.0,0.0,0.0,0.0,0.0,0.0,0.0,0.0,7.668,7.7268,7.8002,7.8552,7.9103,7.991,8.1232,0.0,0.0,0.0,0.0,0.0,0.0,0.0,8.2326,8.0988,8.2363,8.37,8.3997,8.4889,8.5558,8.5604,0.0,0.0,8.1459,8.0851,8.0856,8.084,8.084,8.0988,8.1508,8.162,8.1715,0.0,0.0,0.0,0.0,0.0,0.0,0.0,0.0,8.5563,8.5857,0.0,8.5049,0.0,0.0,0.0,0.0,8.3581,8.4315,0.0,0.0,8.7839,8.8683,8.9454,8.9417,8.9454,8.9454,8.9344,8.9344,8.916,8.549,0.0,0.0,0.0,0.0,0.0,0.0,8.7802,8.9454,9.0922,9.217,9.3015,9.3786,9.4189,9.4189,9.3231,9.2311,9.1316,9.0591,8.8765,8.5627,8.6135,0.0,0.0,0.0,0.0,0.0,0.0,0.0,0.0,0.0,0.0,0.0,0.0,0.0,0.0,0.0,0.0,0.0,0.0,0.0,0.0,7.8086,0.0,0.0,0.0,0.0,0.0,0.0,0.0,0.0,0.0,7.8442,7.7671,7.947,8.0975,8.0901,0.0,0.0,0.0,0.0,8.2251,8.2481,8.1981,8.1686,8.1793,8.2023,8.2437,8.3143,0.0,0.0,8.5521,8.5669,8.5743,8.572,8.6399,8.6585,8.5743,8.5483,8.5521,8.5521,8.5446,8.5632,8.5669,8.5521,8.5409,8.7619,0.0,0.0,0.0,0.0,8.5637,8.6444,8.7215,8.8023,8.8023,8.7509,8.7252,0.0,0.0,0.0,0.0,0.0,0.0,8.7215,8.872,8.8977,8.9784,9.1069,9.0519,9.0262,9.0262,8.9711,8.9417,8.9344,8.7655,8.6664,8.6297,0.0,0.0,0.0,0.0,8.8096,9.0152,9.0702,9.1363,9.217,9.2243,9.2496,9.2892,9.271,9.2669,9.292,9.1607,9.0477,8.9529,8.6976,0.0,0.0,0.0,0.0,0.0,0.0,0.0,0.0,0.0,0.0,0.0,0.0,0.0,0.0,0.0,0.0,0.0,0.0,0.0,7.7934,7.8893,7.8736,0.0,0.0,0.0,0.0,0.0,0.0,0.0,0.0,0.0,8.0828,8.0388,8.0131,0.0,0.0,8.0645,8.2003,8.2186,8.272,8.412,8.421,0.0,8.3655,8.4666,8.5298,8.4963,8.6078,8.7118,8.7341,8.7378,8.7378,8.7415,8.7527,8.7601,8.7452,8.739,8.7365,8.7415,8.7378,8.7601,8.8084,8.8233,8.8369,8.9491,8.7655,8.6848,8.6775,8.7252,8.7766,8.8426,8.9197,8.9674,8.9601,8.916,8.916,8.872,8.7986,8.7949,0.0,0.0,0.0,8.894,8.9895,9.0225,9.0886,9.173,9.1289,9.1069,9.1069,9.0592,9.0372,9.0335,8.9564,8.8904,8.839,0.0,8.6664,8.7949,8.8209,8.9018,9.0411,9.0997,9.1583,9.2059,9.2238,9.2487,9.2612,9.24,9.243,9.2663,9.1994,9.1157,9.0383,8.8502,8.7121,0.0,0.0,0.0,0.0,0.0,0.0,0.0,0.0,0.0,0.0,0.0,7.5659,7.6216,0.0,0.0,0.0,7.7688,7.8286,7.9523,7.9975,0.0,0.0,0.0,0.0,0.0,0.0,0.0,8.0571,8.2039,8.303,8.27,8.237,8.2039,8.1746,8.1672,8.2039,8.2994,0.0,8.397,8.4959,8.5392,8.5408,8.494,8.5966,8.6858,8.7044,8.7861,8.8678,8.9013,8.905,8.905,8.905,8.9299,8.9547,8.9496,8.9793,8.9506,8.8381,8.8084,8.827,8.8716,8.9087,8.9421,9.0702,9.0665,9.0005,8.9638,8.9528,8.9528,8.9968,9.0665,9.0702,9.0702,9.0702,9.0702,9.0298,8.9638,8.9601,0.0,8.9748,9.0482,9.0776,9.0849,9.1583,9.1877,9.1803,9.1803,9.1803,9.1803,9.1803,9.1803,9.173,9.1069,9.0702,9.0665,8.9234,8.8793,8.9417,8.9971,9.0337,9.0337,9.1611,9.23,9.2259,9.3103,9.3267,9.2827,9.2337,9.1768,9.1295,9.1768,9.1168,8.932,9.0153,8.9216,8.6199,0.0,0.0,0.0,0.0,0.0,0.0,0.0,0.0,0.0,0.0,0.0,0.0,0.0,0.0,7.9021,7.9756,0.0,8.1583,8.1203,0.0,0.0,0.0,8.1782,8.3251,8.3581,8.3654,8.3618,0.0,0.0,8.3801,8.4976,8.5637,8.4976,8.4756,8.4719,8.4792,8.538,8.5772,8.5549,8.6168,8.6555,8.6499,8.7192,8.8233,8.9384,8.957,8.9904,9.0387,9.0424,9.0462,9.0387,9.1099,9.1534,9.1604,9.1938,9.1918,8.8864,8.8493,8.8604,8.879,8.931,8.9867,9.151,9.1546,9.2024,9.151,9.0335,9.0335,9.0776,9.151,9.151,9.151,9.151,9.151,9.14,9.1253,9.1216,9.1583,9.2244,9.2427,9.2501,9.2537,9.2684,9.2427,9.1803,9.1803,9.1803,9.1803,9.1803,9.1803,9.1767,9.162,9.151,9.1473,9.1143,9.0445,8.9491,9.0008,9.0337,9.0337,9.1063,9.1344,9.103,9.1212,9.137,9.1282,9.1427,9.1439,9.1547,9.1475,9.0851,8.976,8.8995,8.7998,8.6815,8.5432,0.0,0.0,0.0,0.0,0.0,0.0,0.0,0.0,0.0,7.8098,7.8405,0.0,7.8895,0.0,8.1449,8.2577,8.2494,8.2518,0.0,0.0,8.2443,8.2994,8.3398,8.5049,8.5894,8.5306,8.6481,8.7031,8.6261,8.6481,8.6885,8.7252,8.6297,8.5747,8.6334,8.6728,8.7157,8.794,8.9218,9.0239,9.0212,9.1502,9.2245,9.2133,9.2096,9.1985,9.1502,9.0907,9.0499,9.0499,9.0637,9.0786,9.087,9.0991,9.0917,9.0202,9.0907,9.1836,9.1836,9.1948,9.2096,9.2611,9.2941,9.3418,9.3088,9.2244,9.2244,9.2501,9.2905,9.2905,9.2905,9.2905,9.2905,9.2905,9.2905,9.2905,9.3161,9.3602,9.3272,9.3125,9.3088,9.2684,9.2281,9.1803,9.1803,9.1803,9.1803,9.1803,9.1803,9.1803,9.1803,9.1803,9.1803,9.1803,9.1179,9.0005,9.0081,9.0153,9.0153,9.0575,9.0661,9.0457,9.0295,9.0145,9.0151,8.995,8.9779,8.9734,8.9901,8.9582,8.8673,8.8464,8.7877,8.6794,8.5856,8.4881,0.0,0.0,0.0,0.0,0.0,0.0,0.0,0.0,0.0,0.0,0.0,8.0456,8.152,8.2922,8.4027,8.4352,8.4494,8.452,8.4389,8.4756,8.5159,8.549,8.6701,8.7509,8.7435,8.8206,8.872,8.861,8.894,8.9454,9.0262,8.9601,8.894,8.8683,8.9044,8.9657,9.0341,9.1623,9.2492,9.2356,9.3025,9.3657,9.3545,9.3508,9.3471,9.3359,9.2988,9.2653,9.2653,9.2682,9.2682,9.2691,9.2662,9.2699,9.2839,9.3397,9.3434,9.2208,9.2171,9.2393,9.3639,9.4299,9.441,9.4446,9.4446,9.4556,9.4483,9.4299,9.4299,9.4299,9.4299,9.4299,9.4299,9.4299,9.4299,9.4373,9.4373,9.3639,9.3272,9.3198,9.2354,9.1913,9.1803,9.1803,9.1803,9.1803,9.1803,9.1803,9.1803,9.1803,9.1803,9.1803,9.1803,9.1473,9.0812,9.0373,9.0149,9.0109,9.0255,9.0295,9.0213,8.9797,8.9457,8.9162,8.8413,8.7813,8.7374,8.7914,8.7777,8.6822,8.7977,8.7969,8.6369,8.6384,8.5814,0.0,8.4155,0.0,0.0,0.0,0.0,0.0,0.0,0.0,0.0,8.1764,8.2781,8.4119,8.4655,8.5402,8.6575,8.6721,8.6865,8.7219,8.7325,8.7619,8.839,8.8573,8.8977,8.9784,8.9968,9.0298,9.0849,9.1546,9.2244,9.2574,9.2537,9.2024,9.1325,9.1505,9.1975,9.2299,9.3245,9.3708,9.3657,9.3582,9.3917,9.4511,9.4622,9.4771,9.5365,9.5328,9.5328,9.5291,9.5135,9.5239,9.5365,9.5328,9.5328,9.518,9.5217,9.4437,9.2282,9.2059,9.2096,9.4153,9.4336,9.4997,9.529,9.5327,9.5988,9.5511,9.4299,9.4299,9.4299,9.4299,9.4299,9.4299,9.4299,9.4299,9.4666,9.5217,9.4446,9.4079,9.4042,9.3235,9.2464,9.1803,9.1803,9.1803,9.1803,9.1803,9.1803,9.1803,9.1803,9.1803,9.1803,9.1803,9.173,9.1583,0.0,0.0,0.0,9.0509,9.0376,9.0084,8.9797,8.9371,8.8757,8.7976,0.0,8.6868,8.686,8.6617,8.5749,8.6358,0.0,0.0,0.0,0.0,0.0,0.0,0.0,0.0,0.0,0.0,0.0,8.5639,8.4937,8.2571,8.353,8.5007,8.6648,8.7227,8.7729,8.8288,8.8509,8.8726,8.8906,8.8977,8.9271,9.0078,9.0702,9.1436,9.2281,9.2941,9.3125,9.2684,9.2758,9.2648,9.2244,9.2097,9.2317,9.2756,9.2531,9.2188,9.1912,9.3374,9.4592,9.5774,9.5848,9.6034,9.6889,9.6554,9.622,9.6294,9.5848,9.544,9.5477,9.5365,9.547,9.544,9.5446,9.5489,9.544,9.544,9.5217,9.4585,9.4585,9.4726,9.474,9.5474,9.5511,9.5511,0.0,9.5511,9.5034,9.4336,9.5144,9.5254,9.4887,9.4887,9.4666,9.4299,9.4299,9.452,9.485,9.4079,9.3712,9.3675,9.2831,9.2207,9.1803,9.1803,9.1803,9.1803,9.2244,9.2464,9.2464,9.3235,9.3639,9.3639,9.4006,9.4226,9.4226,9.3923,9.2951,9.1357,9.1514,9.1305,9.0612,9.0237,8.9677,8.8757,8.7887,0.0,0.0,0.0,0.0,0.0,0.0,0.0,0.0,8.6522,0.0,8.5988,8.5916,8.6072,8.6416,8.6416,8.6923,8.7926,8.8475,8.7703,8.5247,8.5981,8.6932,8.7804,8.8993,8.9851,9.0189,9.0958,9.1583,9.1803,9.1473,9.1546,9.2281,9.2427,9.2758,9.3492,9.3675,9.3675,9.3712,9.3308,9.3161,9.3088,9.3418,9.3676,9.3968,9.3816,9.3735,9.4493,9.5335,9.6294,9.7037,9.7223,9.7334,9.7743,9.752,9.7297,9.726,9.6889,9.6629,9.6629,9.6629,9.6629,9.6629,9.6634,9.6671,9.6666,9.6629,9.6629,9.6591,9.5997,9.5403,9.507,9.6208,9.5547,9.529,9.5254,9.4593,9.4299,9.4373,9.5694,0.0,0.0,9.529,9.4923,9.4299,9.4299,9.4299,9.4226,9.3455,9.3125,9.3088,9.2207,9.1877,9.2024,9.2024,9.2097,9.2281,9.2978,9.3308,9.3382,9.4666,9.529,9.5364,9.5951,9.6355,9.6465,9.6223,9.4956,9.2896,9.2998,9.2749,9.1703,9.124,9.055,8.9502,8.8313,8.7763,8.7728,8.705,8.676,8.676,8.7133,8.73,8.7097,8.8039,8.8275,8.778,8.8446,8.8931,8.9169,8.9169,8.961,9.0407,9.0746,9.0232,8.8562,8.8764,8.8962,8.8962,9.0652,9.1796,9.1838,9.3157,9.4075,9.4079,9.3492,9.3345,9.3896,9.3529,9.3382,9.4042,9.3749,9.3565,9.4153,9.3749,9.3529,9.4189,9.463,9.5331,9.5108,9.4955,9.5318,9.6597,9.6814,9.7297,9.7632,9.7557,9.7706,9.7817,9.7892,9.7892,9.7892,9.7892,9.7892,9.7743,9.7892,9.7817,9.7855,9.778,9.7892,9.7892,9.7892,9.7892,9.778,9.6814,9.596,9.4446,9.463,9.452,9.4446,9.4446,9.4336,9.4299,9.4299,9.4556,9.4556,9.4483,9.4483,9.441,9.4299,9.4299,9.4299,9.4226,9.3455,9.3125,9.3051,9.2207,9.217,9.2905,9.2905,9.3272,9.3932,9.4079,9.4116,9.4153,9.441,9.4483,9.452,9.4593,9.5034,9.5618,9.5851,9.5838,9.5429,9.513,9.4506,9.3543,9.3251,9.2597,9.1511,8.9943,8.9019,8.9035,8.792,8.7181,8.7181,8.7429,8.7592,8.751,8.7771,8.778,8.7833,8.8021,8.8173,8.8408,8.8527,8.9007,9.0037,9.0729,9.1312,9.1744,9.1858,9.1858,9.1858,9.2819,9.3338,9.2825,9.3599,9.4042,9.3418,9.3198,9.3161,9.3345,9.3272,9.3455,9.4189,9.4189,9.4079,9.4153,9.4116,9.4042,9.4226,9.4594,9.4853,9.5624,9.5573,9.5446,9.57,9.5737,9.6034,9.6814,9.6814,9.7186,9.778,9.7892,9.7892,9.7892,9.7892,9.7892,9.7892,9.7892,9.7892,9.7892,9.7892,9.7892,9.7892,9.7892,9.7892,9.7892,9.7595,9.7446,9.507,9.6135,9.5768,9.5841,9.6208,9.5768,9.5584,9.5584,9.5584,9.485,9.3749,9.4079,9.4042,9.3712,9.4079,9.4299,9.4263,9.3896,9.3749,9.3712,9.3345,9.3382,9.3712,9.3749,9.3932,9.4299,9.474,9.496,9.5034,9.5804,9.6245,9.6282,9.6685,9.7089,9.7456,9.7472,9.7495,9.7495,9.6603,9.5386,9.3903,9.4179,9.3647,9.2252,9.1291,9.0932,9.0932,9.0766,9.0492,8.9977,9.054,9.0576,9.0145,9.0707,9.0682,8.9934,9.034,9.0537,9.0341,9.0939,9.1494,9.2089,9.2417,9.2896,9.3374,9.253,9.1906,9.1943,9.2901,9.3342,9.3013,9.3747,9.4153,9.3786,9.3749,9.3749,9.3749,9.3749,9.3896,9.4189,9.3896,9.3639,9.3639,9.3639,9.3639,9.3712,9.4448,9.5589,9.662,9.6792,9.674,9.674,9.6777,9.6889,9.7223,9.7297,9.7483,9.7855,9.7892,9.7892,9.7892,9.7892,9.7892,9.7892,9.7892,9.7892,9.7892,9.7892,9.7892,9.7892,9.7892,9.7892,9.7892,9.7892,9.7892,9.5914,9.753,9.6942,9.7052,9.7566,9.6979,9.6722,9.6722,9.6685,9.5658,9.4153,9.4593,9.4483,9.4006,9.4556,9.485,9.4813,9.463,9.4556,9.4556,9.4373,9.441,9.4556,9.4593,9.4666,9.4887,9.5511,9.5768,9.5914,9.7016,9.764,9.7676,9.8264,9.8557,9.8557,9.832,9.8241,9.8204,9.7232,9.6062,9.4699,9.5157,9.4711,9.3169,9.2796,9.2724,9.276,9.3156,9.3084,9.2544,9.3048,9.312,9.2544,9.3254,9.3121,9.2074,9.2564,9.2808,9.2321,9.2811,9.3221,9.345,9.345,9.3526,9.3639,9.2426,9.1656,9.1912,9.2867,9.3345,9.3235,9.3822,9.4226,9.4079,9.4006,9.3822,9.3749,9.3749,9.3712,9.3639,9.3198,9.2868,9.3051,9.3125,9.3308,9.397,9.5258,9.6583,9.7247,9.7681,9.7892,9.7892,9.7892,9.7817,9.7892,9.7855,9.7855,9.7892,9.7892,9.7892,9.7892,9.7892,9.7892,9.7892,9.7892,9.7892,9.7892,9.7892,9.7892,9.7892,9.7892,9.7892,9.7892,9.7892,9.7892,9.6649,9.6795,9.6832,9.6722,9.6942,9.6832,9.6832,9.6832,9.6759,9.6612,9.6465,9.6465,9.6465,9.6392,9.6428,9.6502,9.6428,9.5731,9.5437,9.5327,9.463,9.4666,9.5364,9.5401,9.5768,9.6355,9.6502,9.6539,9.6539,9.6722,9.6832,9.6795,9.6869,9.6979,9.6942,9.6709,9.6631,9.6631,9.6976,9.7069,9.6923,9.6832,9.6302,9.5431,9.4457,9.4011,9.3975,9.336,9.3034,9.2926,9.307,9.3034,9.2962,9.3034,9.308,9.2935,9.3098,9.3128,9.2786,9.213,9.1912,9.195,9.2097,9.2207,9.2207,9.1987,9.217,9.2868,9.3712,9.3675,9.3272,9.3749,9.3859,9.3272,9.3272,9.2941,9.2354,9.2024,9.2024,9.2024,9.2281,9.2244,9.3051,9.3272,9.3786,9.4997,9.6216,9.71,9.7248,9.7681,9.7892,9.7892,9.7892,9.7892,9.7892,9.7892,9.7892,9.7892,9.7892,9.7892,9.7892,9.7892,9.7892,9.7892,9.7892,9.7892,9.7892,9.7892,9.7892,9.7892,9.7892,9.7892,9.7892,9.7892,9.7892,9.797,9.8814,9.8814,9.9108,9.9512,9.9512,9.9548,9.9512,9.9512,9.9512,9.9512,9.9512,9.8778,9.7456,9.7897,9.8117,9.808,9.7273,9.6906,9.6832,9.6098,9.5914,9.6171,9.6245,9.6392,9.6685,9.6722,9.6722,9.6722,9.6722,9.6722,9.6722,9.6722,9.6722,9.6685,9.6645,9.6531,9.6568,9.6783,9.6929,9.6887,9.7049,9.6659,9.5931,9.5486,9.5222,9.5094,9.5166,9.5058,9.4493,9.4855,9.4891,9.442,9.4467,9.4368,9.3978,9.3826,9.3659,9.3521,9.3306,9.3197,9.3272,9.3272,9.3272,9.3272,9.3272,9.3455,9.3675,9.3235,9.2648,9.2427,9.2648,9.2684,9.2464,9.2794,9.2978,9.2648,9.2978,9.3272,9.3272,9.3272,9.3345,9.3786,9.4226,9.496,9.6064,9.6916,9.7322,9.7322,9.7681,9.7892,9.7892,9.7892,9.7892,9.7892,9.7892,9.7892,9.7892,9.7892,9.7892,9.7892,9.7892,9.7892,9.7892,9.7892,9.7892,9.7892,9.7892,9.7892,9.7892,9.7892,9.7892,9.7892,9.7892,9.7892,9.9548,10.054,10.0613,10.0943,10.1494,10.1494,10.1494,10.1494,10.1494,10.1494,10.1494,10.1494,10.054,9.9145,9.9512,9.9769,9.9659,9.8924,9.8557,9.8447,9.7713,9.7346,9.7346,9.7126,9.7016,9.6979,9.6795,9.6722,9.6722,9.6722,9.6722,9.6722,9.6722,9.6722,9.6722,9.6722,9.6722,9.6722,9.6722,9.6795,9.7012,9.7253,9.6984,9.621,9.602,9.5939,9.5813,9.624,9.623,9.5518,9.6026,9.6098,9.5518,9.5695,9.5522,9.5021,9.4609,9.4326,9.4402,9.4334,9.4299,9.4299,9.4299,9.4299,9.4299,9.4299,9.4299,9.4189,9.3198,9.2574,9.2501,9.2501,9.2464,9.2537,9.3088,9.3418,9.3455,9.3969,9.4226,9.4299,9.4153,9.452,9.496,9.5658,9.6428,9.6982,9.7432,9.7506,9.7432,9.761,9.7892,9.7892,9.7892,9.7892,9.7892,9.7892,9.7892,9.7892,9.7892,9.7892,9.7892,9.7892,9.7892,9.7892,9.7892,9.7892,9.7892,9.7892,9.7892,9.7892,9.7892,9.7892,9.7892,9.7892,9.7892,10.1384,10.1384,10.142,10.142,10.1494,10.1494,10.1494,10.1494,10.1494,10.1494,10.1494,10.1494,10.142,10.1127,10.109,10.131,10.1237,10.0429,10.0062,9.9952,9.9218,9.8961,9.8924,9.8227,9.7787,9.7566,9.6979,9.6722,9.6722,9.6722,9.6722,9.6722,9.6759,9.6759,9.6795,9.6832,9.6759,9.6869,9.6869,9.7126,9.775,9.7897,9.741,9.6594,9.6137,9.6056,9.5939,9.5813,9.5731,9.5695,9.5767,9.5731,9.5695,9.5858,9.6064,9.6149,9.557,9.5208,9.5288,9.4813,9.441,9.4373,9.4483,9.4373,9.452,9.452,9.452,9.4336,9.4336,9.4189,9.4153,9.3969,9.3969,9.4006,9.4153,9.4226,9.4263,9.4483,9.4336,9.4483,9.4703,9.5254,9.6428,9.7309,9.753,9.7717,9.8132,9.8097,9.7542,9.7681,9.7892,9.7892,9.7892,9.7892,9.7892,9.7892,9.7892,9.7892,9.7892,9.7892,9.7892,9.7892,9.7892,9.7892,9.7892,9.7892,9.7892,9.7892,9.7892,9.7892,9.7892,9.7892,9.7892,9.7892,9.7892,10.1494,10.1494,10.1494,10.1494,10.1494,10.1494,10.1494,10.1494,10.1494,10.1494,10.1494,10.1494,10.12,10.0723,10.0723,10.1017,10.1384,10.065,10.0319,10.0172,9.8961,9.8337,9.8227,9.7493,9.7126,9.7089,9.6832,9.6722,9.6722,9.6722,9.6722,9.6795,9.7199,9.7456,9.753,9.8007,9.8227,9.8227,9.8264,9.8374,9.8631,9.8668,9.8442,9.8149,9.7557,9.6887,9.6296,9.6216,9.602,9.5939,9.5858,9.5858,9.5939,9.61,9.6375,9.6531,9.6352,9.6205,9.6245,9.6025,9.5841,9.5841,9.5841,9.5768,9.5841,9.5841,9.5841,9.5804,9.5804,9.5841,9.5621,9.4923,9.4299,9.4336,9.474,9.507,9.529,9.5914,9.6575,9.6649,9.6979,9.7493,9.7309,9.7713,9.7676,9.7313,9.7506,9.7544,9.7505,9.7681,9.7892,9.7892,9.7892,9.7892,9.7892,9.7892,9.7892,9.7892,9.7892,9.7892,9.7892,9.7892,9.7892,9.7892,9.7892,9.7892,9.7892,9.7892,9.7892,9.7892,9.7892,9.7892,9.7892,9.7892,9.7892,10.109,10.1053,10.0833,10.0723,10.0723,10.0723,10.0723,10.0723,10.0723,10.0723,10.0723,10.0723,10.0429,9.9952,9.9916,10.0172,10.065,10.0136,9.9916,9.9805,9.8778,9.8264,9.8154,9.7456,9.7089,9.7089,9.7089,9.7089,9.7126,9.7346,9.7493,9.753,9.8043,9.8264,9.8374,9.8851,9.9108,9.9108,9.9108,9.9181,9.9438,9.9512,9.9475,9.9402,9.8961,9.8222,9.7295,9.7222,9.6954,9.6538,9.6502,9.6472,9.6296,9.6375,9.6531,9.6722,9.6685,9.6722,9.6722,9.6722,9.6685,9.6685,9.6685,9.6722,9.6722,9.6722,9.6722,9.6722,9.6722,9.6722,9.6502,9.5694,9.507,9.5107,9.5547,9.5914,9.5951,9.6832,9.7309,9.7383,9.7676,9.797,9.797,9.7897,9.7676,9.7126,9.7394,9.7544,9.7359,9.761,9.7971,9.8226,9.8338,9.8523,9.8783,9.9006,9.8338,9.8189,9.8115,9.804,9.8077,9.804,9.8003,9.7966,9.7892,9.7892,9.7892,9.7892,9.7892,9.7892,9.7892,9.7892,9.7892,9.7892,9.7892,10.0283,10.0209,9.9475,9.9255,9.9328,9.9328,9.9181,9.9292,9.9255,9.9365,9.9438,9.9255,9.9292,9.9108,9.9108,9.9108,9.9071,9.9071,9.9181,9.9181,9.8998,9.8924,9.8851,9.8117,9.7897,9.8043,9.797,9.797,9.8154,9.8778,9.9145,9.9145,9.9255,9.9438,9.9218,9.9438,9.9365,9.9402,9.9438,9.9622,10.0209,10.0319,10.0319,10.0283,10.0246,9.9879,9.9145,9.8876,9.8277,9.7692,9.7619,9.7295,9.6938,9.6832,9.6759,9.6795,9.6759,9.6722,9.6722,9.6722,9.6722,9.6722,9.6722,9.6722,9.6722,9.6722,9.6722,9.6722,9.6722,9.6722,9.6722,9.6539,9.6465,9.6649,9.6539,9.6539,9.6612,9.6722,9.6795,9.6979,9.7236,9.7163,9.7676,9.8007,9.797,9.7901,9.8054,9.8095,9.7839,9.7946,9.8163,9.8787,9.9118,9.9266,9.9786,10.0195,9.9266,9.8523,9.8449,9.8375,9.856,9.856,9.8449,9.8375,9.7966,9.7929,9.7892,9.7892,9.7892,9.7892,9.7892,9.7929,9.7892,9.7892,9.7892,9.9475,9.9475,9.9218,9.9108,9.9108,9.9108,9.9108,9.9108,9.9108,9.9108,9.9108,9.9108,9.8814,9.8374,9.8264,9.8007,9.753,9.8007,9.8557,9.8961,9.8557,9.8337,9.8264,9.8007,9.8484,9.9402,9.9548,9.9842,10.0283,10.0576,10.076,10.0833,10.131,10.1567,10.1531,10.1567,10.1567,10.1494,10.1017,10.0907,10.1127,10.109,10.1127,10.1127,10.1127,10.098,10.0723,9.9616,9.8956,9.8662,9.8662,9.8516,9.8337,9.7823,9.753,9.7456,9.6979,9.6722,9.6722,9.6722,9.6759,9.6722,9.6722,9.6722,9.6722,9.6759,9.6759,9.6759,9.6722,9.6722,9.6722,9.6722,9.6795,9.6722,9.6722,9.6722,9.6759,9.7163,9.775,9.8264,9.8374,9.8264,9.808,9.8264,9.8447,9.808,9.8492,9.8869,9.8984,9.891,9.935,9.9827,9.9972,10.0046,10.0529,10.0789,10.0307,9.9638,9.9378,9.9043,9.9155,9.9155,9.9043,9.8783,9.8338,9.8152,9.8077,9.8077,9.8226,9.8003,9.8003,9.7966,9.7929,9.7892,9.7892,9.8668,9.8631,9.8337,9.819,9.8227,9.8227,9.8227,9.8227,9.8227,9.8374,9.8594,9.8668,9.8594,9.8374,9.8337,9.808,9.7676,9.8154,9.8631,9.8998,9.8631,9.8337,9.8337,9.8337,9.8778,9.9732,10.0136,10.054,10.1053,10.1347,10.1641,10.2008,10.2448,10.2815,10.3109,10.3109,10.3036,10.2669,10.2191,10.1788,10.1531,10.1494,10.1494,10.1494,10.1494,10.1494,10.1384,10.0503,9.9842,9.9548,9.9292,9.9108,9.9071,9.8594,9.8337,9.8264,9.7933,9.7603,9.7603,9.7676,9.7603,9.7603,9.7603,9.7603,9.7603,9.7603,9.7603,9.7603,9.764,9.7603,9.764,9.7603,9.7603,9.7603,9.7016,9.6759,9.6795,9.7419,9.8007,9.8484,9.8814,9.8778,9.8668,9.8668,9.8924,9.8521,9.8856,9.9382,9.961,9.9723,10.0129,10.046,10.0752,10.0938,10.1198,10.131,10.131,10.0901,10.0529,10.0121,9.9935,9.9898,9.9824,9.9634,9.9262,9.9266,9.9192,9.9118,9.9118,9.8709,9.83,9.8226,9.8189,9.7966,9.7892,9.7823,9.7713,9.7016,9.6906,9.6942,9.6979,9.7126,9.7016,9.7052,9.753,9.797,9.819,9.8447,9.8961,9.8961,9.8924,9.9071,9.9108,9.9181,9.9292,9.9255,9.9328,9.9181,9.9181,9.9438,9.9805,10.0319,10.0613,10.109,10.1604,10.2008,10.2705,10.2962,10.3256,10.3843,10.3953,10.366,10.3146,10.2779,10.2265,10.1677,10.1604,10.1604,10.1641,10.1751,10.1824,10.1824,10.1677,10.1237,10.0393,9.9769,9.9475,9.9328,9.9218,9.9181,9.9145,9.9145,9.8961,9.9035,9.8851,9.8888,9.8851,9.8851,9.9108,9.8888,9.8778,9.8778,9.8814,9.8851,9.8961,9.8924,9.8888,9.8924,9.8888,9.786,9.7163,9.6942,9.7603,9.8117,9.8227,9.8631,9.9071,9.8998,9.9145,9.9218,9.9218,9.9328,9.9747,9.9977,10.0313,10.0574,10.0944,10.146,10.1681,10.1941,10.1941,10.1941,10.1793,10.1495,10.1198,10.0789,10.0715,10.0604,10.0415,10.0154,10.0195,10.0158,9.9898,9.9675,9.9341,9.9006,9.8709,9.8598,9.856,9.83,9.7016,9.6979,9.6759,9.7052,9.753,9.7566,9.7933,9.8411,9.8447,9.8521,9.8778,9.8814,9.8924,9.9108,9.9145,9.9108,9.9328,9.9732,9.9989,10.0099,10.0613,10.0466,10.0099,10.0026,10.0576,10.1494,10.1714,10.2375,10.2925,10.2889,10.3219,10.3586,10.4027,10.4504,10.4798,10.4761,10.4724,10.432,10.3219,10.2669,10.2448,10.2375,10.2375,10.2448,10.2889,10.3182,10.3219,10.3256,10.2558,10.1274,10.098,10.087,10.0723,10.0283,9.9989,9.9916,9.9475,9.9145,9.9145,9.9181,9.9145,9.9108,9.9255,9.9108,9.9108,9.9108,9.9108,9.9108,9.9108,9.9181,9.9145,9.9181,9.9145,9.9071,9.8741,9.8447,9.8411,9.8631,9.8778,9.8814,9.9035,9.9218,9.9365,9.9659,9.9952,10.0062,10.0356,10.0766,10.0933,10.1124,10.135,10.1833,10.2241,10.2425,10.2573,10.261,10.261,10.2536,10.235,10.2275,10.1867,10.1607,10.1421,10.1126,10.0789,10.0752,10.0458,10.0235,10.005,10.0121,9.9898,9.9749,9.9786,9.9749,9.9374,9.7713,9.7713,9.7713,9.797,9.8374,9.8411,9.8668,9.9035,9.9108,9.9328,9.9548,9.9622,9.9769,10.0099,10.0136,10.0099,10.0172,10.0576,10.0796,10.087,10.1237,10.1164,10.087,10.0833,10.131,10.2045,10.2191,10.2375,10.2705,10.2889,10.3036,10.3403,10.421,10.4724,10.5128,10.5495,10.5458,10.5018,10.4137,10.3586,10.3256,10.3219,10.3219,10.3256,10.3696,10.388,10.388,10.388,10.3256,10.2265,10.1971,10.1861,10.1494,10.1053,10.0796,10.076,10.0319,10.0099,10.0099,10.0099,10.0099,10.0136,10.0099,10.0099,10.0136,10.0099,10.0099,10.0172,10.0136,10.0136,10.0136,10.0099,10.0099,10.0172,10.0099,9.9842,9.9218,9.9365,9.9585,9.9659,9.9879,10.0099,10.0099,10.054,10.0723,10.087,10.109,10.147,10.1702,10.1891,10.2123,10.2351,10.2501,10.2538,10.2684,10.2684,10.2684,10.2684,10.2684,10.2684,10.2536,10.2238,10.2127,10.1794,10.1495,10.1272,10.1126,10.1052,10.1089,10.1124,10.0938,10.0678,10.0567,10.0641,10.0232,9.9108,9.9108,9.9108,9.9145,9.9218,9.9218,9.9365,9.9402,9.9512,9.9842,10.0319,10.0393,10.0723,10.1494,10.12,10.142,10.1384,10.131,10.1384,10.142,10.1494,10.142,10.1384,10.1347,10.142,10.1604,10.1531,10.1677,10.1971,10.1861,10.2155,10.3072,10.3806,10.4394,10.5128,10.5899,10.5899,10.5422,10.5054,10.4577,10.4137,10.4027,10.4027,10.4063,10.432,10.443,10.4357,10.4247,10.388,10.3036,10.2889,10.2522,10.1898,10.1788,10.1788,10.1751,10.1641,10.1494,10.1531,10.1384,10.1384,10.1274,10.131,10.1494,10.131,10.12,10.1274,10.1457,10.1604,10.1604,10.1751,10.1751,10.1604,10.1531,10.1531,10.087,9.9916,9.9989,10.0429,10.0429,10.1053,10.1384,10.1494,10.1494,10.1457,10.1164,10.1384,10.1538,10.1654,10.1812,10.2046,10.2276,10.2389,10.2464,10.2611,10.2684,10.2684,10.2684,10.2684,10.2684,10.2684,10.2573,10.261,10.2461,10.209,10.2053,10.2238,10.2238,10.2127,10.1978,10.1681,10.1272,10.0938,10.1198,10.1012,9.9108,9.9108,9.9108,9.9475,9.9989,10.0062,10.0393,10.0907,10.0943,10.0943,10.12,10.12,10.131,10.1494,10.1494,10.1494,10.1494,10.1494,10.1494,10.1494,10.1494,10.1494,10.1531,10.1604,10.1531,10.1567,10.1531,10.1824,10.2265,10.2485,10.2815,10.3586,10.4284,10.4908,10.5201,10.5935,10.6339,10.6009,10.5495,10.5128,10.4944,10.4871,10.4871,10.4908,10.5422,10.5789,10.5825,10.5862,10.5422,10.4687,10.4027,10.3586,10.3293,10.3219,10.3219,10.3072,10.2705,10.2448,10.2338,10.1934,10.1531,10.1641,10.1714,10.1494,10.1494,10.1604,10.1861,10.2228,10.2448,10.2669,10.3072,10.3329,10.2999,10.2595,10.2412,10.2081,10.1274,10.109,10.1164,10.1237,10.131,10.1494,10.1494,10.1494,10.1494,10.1494,10.1494,10.1494,10.1574,10.1734,10.1891,10.2086,10.2239,10.2426,10.2575,10.2648,10.2684,10.2684,10.2684,10.2684,10.2684,10.2684,10.2684,10.2684,10.2647,10.2684,10.2684,10.2684,10.2424,10.2424,10.2387,10.2053,10.183,10.1941,10.183,10.0209,10.0209,10.0209,10.0466,10.0796,10.0833,10.109,10.142,10.1494,10.1494,10.1494,10.1494,10.1494,10.1494,10.1494,10.1494,10.1494,10.1494,10.1714,10.1971,10.2081,10.2265,10.2595,10.2558,10.2485,10.2191,10.2485,10.2889,10.3182,10.3293,10.3476,10.3917,10.4724,10.5018,10.5238,10.5972,10.6339,10.6302,10.5972,10.5715,10.5715,10.5715,10.5715,10.5715,10.6156,10.6376,10.6339,10.6339,10.6119,10.5715,10.5275,10.4651,10.4027,10.3917,10.3917,10.377,10.3549,10.3256,10.3109,10.2889,10.2669,10.2558,10.2595,10.2632,10.2632,10.2632,10.2779,10.3146,10.3293,10.3476,10.3843,10.388,10.3623,10.3439,10.3256,10.3036,10.2595,10.1971,10.1494,10.1494,10.1457,10.1494,10.1494,10.1641,10.1531,10.1567,10.1494,10.1494,10.1494,10.1654,10.1734,10.1969,10.2123,10.2351,10.2501,10.2648,10.2684,10.2684,10.2684,10.2684,10.2684,10.2684,10.2684,10.2684,10.2684,10.2684,10.2684,10.2684,10.2684,10.261,10.2573,10.2647,10.261,10.2387,10.2275,10.1494,10.1494,10.1494,10.1494,10.1494,10.1457,10.1457,10.1494,10.1494,10.1494,10.1494,10.1494,10.1494,10.1494,10.1494,10.1531,10.1751,10.1971,10.2412,10.2815,10.2889,10.3182,10.3586,10.377,10.3733,10.3182,10.3439,10.3806,10.4027,10.4137,10.4284,10.443,10.4981,10.5422,10.5568,10.6119,10.667,10.667,10.6853,10.6853,10.6853,10.6816,10.6816,10.6596,10.6376,10.6376,10.6376,10.6376,10.6339,10.6376,10.6376,10.5605,10.4724,10.4284,10.4284,10.432,10.4247,10.41,10.4027,10.388,10.3733,10.388,10.3843,10.3843,10.377,10.3733,10.3806,10.4063,10.4247,10.443,10.4284,10.4504,10.4357,10.4137,10.4063,10.4027,10.366,10.2632,10.2155,10.2008,10.2265,10.2338,10.2118,10.2081,10.1824,10.1641,10.1567,10.1494,10.1494,10.1574,10.1654,10.1734,10.1969,10.22,10.2426,10.2648,10.2721,10.2684,10.2684,10.2684,10.2684,10.2684,10.2684,10.2684,10.2684,10.2684,10.2684,10.2684,10.2684,10.2684,10.2684,10.2684,10.2684,10.2684,10.2647,10.1494,10.1494,10.1494,10.1494,10.1494,10.1494,10.1494,10.1494,10.1494,10.1494,10.1531,10.1494,10.1567,10.1567,10.1494,10.1861,10.2522,10.2962,10.3439,10.3696,10.377,10.4027,10.432,10.4981,10.4981,10.4577,10.4504,10.4614,10.4871,10.4944,10.5458,10.5899,10.6156,10.6266,10.6486,10.6926,10.7404,10.7477,10.7844,10.8138,10.8138,10.8138,10.7881,10.7404,10.6926,10.6596,10.6449,10.6413,10.6376,10.6376,10.6376,10.6192,10.5899,10.5789,10.5789,10.5642,10.5201,10.4908,10.4871,10.4357,10.399,10.388,10.4063,10.4027,10.399,10.4027,10.443,10.4908,10.5458,10.5862,10.5972,10.5715,10.5495,10.5165,10.4871,10.4687,10.4137,10.377,10.3513,10.3513,10.3513,10.3293,10.2962,10.2632,10.2448,10.2155,10.1934,10.1677,10.1494,10.1574,10.1538,10.1734,10.1812,10.2123,10.2351,10.2575,10.2684,10.2684,10.2684,10.2684,10.2684,10.2684,10.2684,10.2684,10.2684,10.2684,10.2684,10.2684,10.2684,10.2684,10.2684,10.2684,10.2684,10.2684,10.2684,10.1413,10.1494,10.1494,10.1494,10.1494,10.1494,10.1494,10.1494,10.1494,10.1751,10.2045,10.2155,10.2375,10.2632,10.2742,10.2999,10.3403,10.366,10.4137,10.443,10.4944,10.5458,10.5789,10.6596,10.6963,10.6963,10.6633,10.6266,10.6449,10.689,10.711,10.7514,10.7624,10.7624,10.7697,10.7991,10.8211,10.8358,10.8615,10.8835,10.8835,10.8835,10.8542,10.8211,10.7807,10.744,10.7037,10.7,10.678,10.6486,10.6376,10.6376,10.6376,10.6376,10.6376,10.6302,10.5972,10.5752,10.5752,10.5348,10.5238,10.5238,10.5165,10.5201,10.5165,10.5275,10.5311,10.5715,10.5972,10.6376,10.6302,10.6376,10.6156,10.5899,10.5752,10.5532,10.5311,10.5165,10.5054,10.4908,10.4284,10.388,10.3696,10.3403,10.3109,10.2742,10.2375,10.2045,10.1714,10.1714,10.1905,10.1764,10.1844,10.1969,10.2276,10.2426,10.2611,10.2611,10.2684,10.2684,10.2684,10.2684,10.2684,10.2684,10.2684,10.2684,10.2684,10.2684,10.2684,10.2684,10.2684,10.2684,10.2684,10.2684,10.2684,10.125,10.1413,10.1457,10.1567,10.1714,10.1751,10.1861,10.1934,10.2045,10.2375,10.2889,10.2962,10.3293,10.377,10.4063,10.421,10.4357,10.4577,10.5275,10.6009,10.6559,10.7257,10.7844,10.8395,10.8578,10.8358,10.8688,10.8615,10.7954,10.8211,10.8652,10.8615,10.8725,10.8799,10.8725,10.8872,10.8982,10.9092,10.9239,10.9276,10.9276,10.9129,10.9019,10.8945,10.8909,10.8431,10.7881,10.7807,10.7551,10.7147,10.6816,10.667,10.6596,10.6486,10.6413,10.6376,10.6376,10.6376,10.6339,10.6302,10.6119,10.6082,10.6302,10.6339,10.6302,10.6119,10.6266,10.6376,10.6376,10.6376,10.6376,10.6376,10.6376,10.6339,10.6302,10.6339,10.6229,10.6119,10.6009,10.5642,10.4908,10.4687,10.4651,10.4284,10.399,10.3696,10.3329,10.2925,10.2595,10.2448,10.2456,10.2015,10.1875,10.1928,10.2123,10.2351,10.2464,10.2538,10.2611,10.2684,10.2684,10.2684,10.2684,10.2684,10.2684,10.2684,10.2684,10.2684,10.2684,10.2684,10.2684,10.2684,10.2684,10.2684,10.2684,10.1168,10.125,10.1413,10.1898,10.2522,10.2558,10.2962,10.3513,10.3476,10.366,10.3733,10.377,10.3843,10.4284,10.4871,10.5458,10.6082,10.667,10.722,10.7844,10.8248,10.8468,10.8652,10.8725,10.9055,10.9202,10.9643,10.9349,10.8982,10.8945,10.8945,10.8982,10.9092,10.8872,10.9202,10.9606,10.9826,10.9973,11.0524,11.0817,11.0707,11.0157,10.99,10.9679,10.9312,10.8872,10.8725,10.8652,10.8468,10.8321,10.7734,10.7477,10.733,10.6743,10.6449,10.6376,10.6376,10.6376,10.6376,10.6376,10.6376,10.6376,10.6376,10.6376,10.6376,10.6376,10.6376,10.6376,10.6376,10.6376,10.6376,10.6376,10.6376,10.6376,10.6376,10.6376,10.6376,10.6376,10.6376,10.6339,10.5605,10.5752,10.5899,10.5385,10.4908,10.4614,10.4284,10.3843,10.3439,10.3182,10.3036,10.2713,10.2419,10.2438,10.2301,10.2495,10.2387,10.25,10.2575,10.2648,10.2611,10.2611,10.2684,10.2684,10.2684,10.2684,10.2684,10.2684,10.2684,10.2684,10.2684,10.2684,10.2684,10.2684,10.2684,10.2049,10.1899,10.2587,10.3036,10.3366,10.3366,10.3586,10.3843,10.388,10.4173,10.4504,10.4577,10.5054,10.5899,10.6853,10.7367,10.7807,10.8101,10.8431,10.8945,10.9239,10.9459,10.9606,10.9936,11.0157,11.0157,11.0414,11.056,11.0193,11.012,11.0157,11.012,11.0157,11.023,11.001,11.045,11.0634,11.0781,11.1001,11.1184,11.1111,11.0891,11.0671,11.0634,11.0304,10.9936,10.9569,10.9459,10.9202,10.8909,10.8395,10.8285,10.8211,10.7918,10.7624,10.7073,10.7073,10.6853,10.6486,10.6413,10.6376,10.6376,10.6376,10.6376,10.6376,10.6376,10.6376,10.6376,10.6376,10.6376,10.6376,10.6376,10.6376,10.6376,10.6376,10.6376,10.6376,10.6376,10.6376,10.6376,10.6376,10.6376,10.6376,10.6046,10.5495,10.5091,10.4798,10.4467,10.4027,10.366,10.3549,10.3439,10.3227,10.3051,10.2843,10.2743,10.2526,10.2532,10.2463,10.2538,10.2575,10.2538,10.2611,10.2684,10.2684,10.2684,10.2684,10.2684,10.2684,10.2684,10.2684,10.2684,10.2684,10.2684,10.2684,10.3737,10.3534,10.3751,10.3944,10.421,10.421,10.4357,10.4541,10.4834,10.5201,10.5678,10.6009,10.6816,10.7734,10.8395,10.8688,10.9055,10.9092,10.9239,10.9569,10.9936,11.023,11.0414,11.0891,11.1111,11.1221,11.1038,11.1074,11.1111,11.1111,11.1038,11.1221,11.0964,11.1074,11.1148,11.1111,11.1111,11.1111,11.1148,11.1221,11.1184,11.1221,11.1184,11.1184,11.1148,11.0928,11.0414,11.0304,10.9936,10.9643,10.9239,10.9092,10.9055,10.8725,10.8395,10.7954,10.7881,10.7514,10.6963,10.6596,10.6413,10.6376,10.6376,10.6376,10.6376,10.6376,10.6376,10.6376,10.6376,10.6376,10.6376,10.6376,10.6376,10.6376,10.6376,10.6376,10.6376,10.6376,10.6376,10.6376,10.6376,10.6376,10.6376,10.6376,10.6046,10.5605,10.5275,10.5054,10.4724,10.4357,10.4247,10.421,10.377,10.3595,10.3419,10.3175,10.2886,10.2747,10.2643,10.276,10.2871,10.276,10.2684,10.2684,10.2758,10.2684,10.2684,10.2684,10.2684,10.2684,10.2684,10.2684,10.2684,10.2684,10.2684,10.6416,10.6466,10.4485,10.4337,10.5128,10.5018,10.5532,10.6266,10.6963,10.722,10.7367,10.8101,10.8431,10.8762,10.8982,10.9386,10.99,10.9936,11.023,11.0707,11.1074,11.1001,11.1038,11.1111,11.1221,11.1221,11.1221,11.1221,11.1221,11.1221,11.1221,11.1221,11.1221,11.1221,11.1221,11.1221,11.1221,11.1221,11.1221,11.1221,11.1221,11.1221,11.1221,11.1221,11.1221,11.1184,11.1111,11.1001,11.0928,11.0707,11.023,10.9936,10.9826,10.9459,10.9092,10.8799,10.8725,10.8321,10.7661,10.6926,10.6486,10.6413,10.6376,10.6376,10.6376,10.6376,10.6376,10.6376,10.6376,10.6376,10.6376,10.6376,10.6376,10.6376,10.6376,10.6376,10.6376,10.6376,10.6376,10.6376,10.6376,10.6376,10.6376,10.6376,10.6376,10.5935,10.5935,10.5715,10.5678,10.5385,10.5128,10.4908,10.4394,10.41,10.3999,10.3823,10.372,10.3549,10.3375,10.3459,10.3499,10.3242,10.2908,10.287,10.2907,10.2796,10.2684,10.2684,10.2684,10.2684,10.2684,10.2684,10.2684,10.2684,10.2684,10.7123,10.7471,10.6648,10.6729,10.7404,10.7404,10.7551,10.7881,10.8211,10.8321,10.8395,10.9129,10.9533,10.9643,11.012,11.0414,11.0744,11.0744,11.0964,11.1074,11.1221,11.1221,11.1221,11.1221,11.1221,11.1221,11.1221,11.1221,11.1221,11.1221,11.1221,11.1221,11.1221,11.1221,11.1221,11.1221,11.1221,11.1221,11.1221,11.1221,11.1221,11.1221,11.1221,11.1221,11.1221,11.1221,11.1184,11.1221,11.1221,11.1148,11.0854,11.0744,11.0634,11.0267,10.9973,10.9606,10.9533,10.9092,10.8358,10.7587,10.6963,10.6449,10.6376,10.6376,10.6376,10.6376,10.6376,10.6376,10.6376,10.6376,10.6376,10.6376,10.6376,10.6376,10.6376,10.6376,10.6376,10.6376,10.6376,10.6376,10.6376,10.6376,10.6376,10.6376,10.6376,10.6339,10.6376,10.6339,10.6229,10.6119,10.5825,10.5678,10.5201,10.4908,10.4724,10.4697,10.4632,10.4346,10.4139,10.4113,10.4162,10.3686,10.3316,10.3279,10.3056,10.287,10.2796,10.2721,10.2684,10.2684,10.2684,10.2684,10.2684,10.2684,10.2684,10.8002,10.8564,10.8747,10.8726,10.8835,10.8799,10.8799,10.8835,10.9055,10.9312,10.9533,11.012,11.034,11.0524,11.0854,11.1148,11.1148,11.1148,11.1184,11.1221,11.1221,11.1221,11.1221,11.1221,11.1221,11.1221,11.1221,11.1221,11.1221,11.1221,11.1221,11.1221,11.1221,11.1221,11.1221,11.1221,11.1221,11.1221,11.1221,11.1221,11.1221,11.1221,11.1221,11.1221,11.1221,11.1221,11.1221,11.1221,11.1221,11.1221,11.1148,11.1184,11.1184,11.1148,11.0891,11.056,11.0267,10.9936,10.9166,10.8138,10.7367,10.6926,10.6486,10.6413,10.6376,10.6376,10.6376,10.6376,10.6376,10.6376,10.6376,10.6376,10.6376,10.6376,10.6376,10.6376,10.6376,10.6376,10.6376,10.6376,10.6376,10.6376,10.6376,10.6376,10.6376,10.6376,10.6376,10.6376,10.6339,10.6302,10.6266,10.6192,10.6082,10.5825,10.5605,10.5458,10.5395,10.5331,10.5126,10.4882,10.4709,10.4236,10.3872,10.3651,10.339,10.3056,10.2833,10.2721,10.2721,10.2684,10.2684,10.2684,10.2684,10.2684,10.2684,10.9499,11.0051,11.0223,10.9713,10.9019,10.8835,10.8909,10.9166,10.9679,11.034,11.0854,11.1074,11.1074,11.1074,11.1184,11.1221,11.1221,11.1221,11.1221,11.1221,11.1221,11.1221,11.1221,11.1221,11.1221,11.1221,11.1221,11.1221,11.1221,11.1221,11.1221,11.1221,11.1221,11.1221,11.1221,11.1221,11.1221,11.1221,11.1221,11.1221,11.1221,11.1221,11.1221,11.1221,11.1221,11.1221,11.1221,11.1221,11.1221,11.1221,11.1221,11.1221,11.1221,11.1221,11.1148,11.1074,11.1074,11.0707,10.9973,10.8468,10.7844,10.7514,10.7073,10.6633,10.6486,10.6413,10.6376,10.6376,10.6376,10.6376,10.6376,10.6376,10.6376,10.6376,10.6376,10.6376,10.6376,10.6376,10.6376,10.6376,10.6376,10.6376,10.6376,10.6376,10.6376,10.6376,10.6376,10.6376,10.6376,10.6376,10.6376,10.6376,10.6376,10.6266,10.6046,10.6192,10.6156,10.6129,10.5956,10.5679,10.5442,10.5083,10.4686,10.4245,10.4021,10.3798,10.3277,10.2721,10.2721,10.2684,10.2684,10.2684,10.2684,10.2684,10.2611,10.9376,10.9897,11.0239,11.028,11.0112,11.0289,11.0414,11.045,11.0671,11.0928,11.1148,11.1221,11.1221,11.1221,11.1221,11.1221,11.1221,11.1221,11.1221,11.1221,11.1221,11.1221,11.1221,11.1221,11.1221,11.1221,11.1221,11.1221,11.1221,11.1221,11.1221,11.1221,11.1221,11.1221,11.1221,11.1221,11.1221,11.1221,11.1221,11.1221,11.1221,11.1221,11.1221,11.1221,11.1221,11.1221,11.1221,11.1221,11.1221,11.1221,11.1221,11.1221,11.1221,11.1221,11.1221,11.1221,11.1221,11.1111,11.0634,10.9753,10.8945,10.8395,10.7697,10.722,10.7183,10.6633,10.6486,10.6376,10.6413,10.6413,10.6376,10.6376,10.6376,10.6376,10.6376,10.6376,10.6376,10.6376,10.6376,10.6376,10.6376,10.6376,10.6376,10.6376,10.6376,10.6376,10.6376,10.6376,10.6376,10.6376,10.6376,10.6376,10.6376,10.6376,10.6376,10.6376,10.6376,10.6229,10.6276,10.6333,10.6136,10.5859,10.5686,10.5358,10.4987,10.4577,10.3798,10.313,10.2796,10.2684,10.2684,10.2684,10.2648,10.2611,10.25,10.9115,10.9607,11.0051,11.0425,11.07,11.1007,11.1221,11.1221,11.1221,11.1221,11.1221,11.1221,11.1221,11.1221,11.1221,11.1221,11.1221,11.1221,11.1221,11.1221,11.1221,11.1221,11.1221,11.1221,11.1221,11.1221,11.1221,11.1221,11.1221,11.1221,11.1221,11.1221,11.1221,11.1221,11.1221,11.1221,11.1221,11.1221,11.1221,11.1221,11.1221,11.1221,11.1221,11.1221,11.1221,11.1221,11.1221,11.1221,11.1221,11.1221,11.1221,11.1221,11.1221,11.1221,11.1221,11.1221,11.1221,11.1184,11.0964,11.0781,11.0083,10.9716,10.8652,10.8064,10.7844,10.7294,10.7,10.6816,10.6596,10.6449,10.6449,10.6449,10.6449,10.6449,10.6376,10.6376,10.6376,10.6376,10.6376,10.6376,10.6376,10.6376,10.6376,10.6376,10.6376,10.6376,10.6376,10.6376,10.6376,10.6376,10.6376,10.6376,10.6376,10.6376,10.6376,10.6376,10.6376,10.6376,10.646,10.6544,10.6645,10.645,10.6464,10.6322,10.5879,10.5248,10.4244,10.3576,10.3241,10.2907,10.2684,10.2611,10.2648,10.2464,10.2277,10.8813,10.9313,10.9801,11.0181,11.0517,11.1007,11.1221,11.1221,11.1221,11.1221,11.1221,11.1221,11.1221,11.1221,11.1221,11.1221,11.1221,11.1221,11.1221,11.1221,11.1221,11.1221,11.1221,11.1221,11.1221,11.1221,11.1221,11.1221,11.1221,11.1221,11.1221,11.1221,11.1221,11.1221,11.1221,11.1221,11.1221,11.1221,11.1221,11.1221,11.1221,11.1221,11.1221,11.1221,11.1221,11.1221,11.1221,11.1221,11.1221,11.1221,11.1221,11.1221,11.1221,11.1221,11.1221,11.1221,11.1221,11.1221,11.1184,11.1038,11.1038,11.0597,10.9716,10.9129,10.8615,10.8101,10.7734,10.7477,10.7257,10.6853,10.6559,10.6559,10.6523,10.6486,10.6376,10.6376,10.6376,10.6376,10.6376,10.6376,10.6376,10.6376,10.6376,10.6376,10.6376,10.6376,10.6376,10.6376,10.6376,10.6376,10.6376,10.6376,10.6376,10.6376,10.6376,10.6376,10.6376,10.6376,10.6376,10.6544,10.6718,10.6888,10.683,10.6653,10.647,10.5878,10.5099,10.4282,10.3613,10.3316,10.2944,10.2538,10.2501,10.2239,10.2049,10.8403,10.8813,10.951,11.0051,11.0425,11.1007,11.1221,11.1221,11.1221,11.1221,11.1221,11.1221,11.1221,11.1221,11.1221,11.1221,11.1221,11.1221,11.1221,11.1221,11.1221,11.1221,11.1221,11.1221,11.1221,11.1221,11.1221,11.1221,11.1221,11.1221,11.1221,11.1221,11.1221,11.1221,11.1221,11.1221,11.1221,11.1221,11.1221,11.1221,11.1221,11.1221,11.1221,11.1221,11.1221,11.1221,11.1221,11.1221,11.1221,11.1221,11.1221,11.1221,11.1221,11.1221,11.1221,11.1221,11.1221,11.1221,11.1221,11.1221,11.1221,11.1221,11.0634,11.0267,10.9679,10.9019,10.8505,10.8285,10.8028,10.7661,10.733,10.722,10.6963,10.6706,10.6596,10.6523,10.6486,10.6376,10.6376,10.6376,10.6376,10.6376,10.6376,10.6376,10.6376,10.6376,10.6376,10.6376,10.6376,10.6376,10.6376,10.6376,10.6376,10.6376,10.6376,10.6376,10.6376,10.6376,10.6376,10.646,10.6673,10.6844,10.6973,10.6945,10.6767,10.6509,10.5989,10.5098,10.4096,10.3539,10.3168,10.2723,10.2351,10.2009,10.1623,10.8055,10.8609,10.9178,10.9861,11.0425,11.0917,11.1096,11.1221,11.1221,11.1221,11.1221,11.1221,11.1221,11.1221,11.1221,11.1221,11.1221,11.1221,11.1221,11.1221,11.1221,11.1221,11.1221,11.1221,11.1221,11.1221,11.1221,11.1221,11.1221,11.1221,11.1221,11.1221,11.1221,11.1221,11.1221,11.1221,11.1221,11.1221,11.1221,11.1221,11.1221,11.1221,11.1221,11.1221,11.1221,11.1221,11.1221,11.1221,11.1221,11.1221,11.1221,11.1221,11.1221,11.1221,11.1221,11.1221,11.1221,11.1221,11.1221,11.1221,11.1221,11.1221,11.1221,11.0928,11.0414,10.979,10.9459,10.9202,10.8872,10.8578,10.8285,10.7991,10.7477,10.7,10.6853,10.6743,10.6596,10.6413,10.6376,10.6376,10.6376,10.6376,10.6376,10.6376,10.6376,10.6376,10.6376,10.6376,10.6376,10.6376,10.6376,10.6376,10.6376,10.6376,10.6376,10.6376,10.6376,10.6376,10.6376,10.646,10.671,10.6918,10.7047,10.7094,10.714,10.6769,10.6398,10.5395,10.4467,10.3948,10.3242,10.261,10.2046,10.1617,10.1149,10.7631,10.8507,10.9115,10.9765,11.0332,11.07,11.1007,11.1184,11.1184,11.1221,11.1221,11.1221,11.1221,11.1221,11.1221,11.1221,11.1221,11.1221,11.1221,11.1221,11.1221,11.1221,11.1221,11.1221,11.1221,11.1221,11.1221,11.1221,11.1221,11.1221,11.1221,11.1221,11.1221,11.1221,11.1221,11.1221,11.1221,11.1221,11.1221,11.1221,11.1221,11.1221,11.1221,11.1221,11.1221,11.1221,11.1221,11.1221,11.1221,11.1221,11.1221,11.1221,11.1221,11.1221,11.1221,11.1221,11.1221,11.1221,11.1221,11.1221,11.1221,11.1221,11.1221,11.1148,11.0744,11.045,11.0157,11.0047,10.979,10.9386,10.9055,10.8872,10.8468,10.7954,10.7661,10.733,10.6926,10.667,10.6376,10.6376,10.6376,10.6376,10.6376,10.6376,10.6376,10.6376,10.6376,10.6376,10.6376,10.6376,10.6376,10.6376,10.6376,10.6376,10.6376,10.6376,10.6376,10.6376,10.6376,10.646,10.6544,10.6837,10.7121,10.7131,10.7177,10.7029,10.6583,10.573,10.4875,10.4207,10.3463,10.2419,10.177,10.125,10.0735,10.709,10.7914,10.9079,10.9801,11.0181,11.0609,11.0791,11.0881,11.1096,11.1221,11.1221,11.1221,11.1221,11.1221,11.1221,11.1221,11.1221,11.1221,11.1221,11.1221,11.1221,11.1221,11.1221,11.1221,11.1221,11.1221,11.1221,11.1221,11.1221,11.1221,11.1221,11.1221,11.1221,11.1221,11.1221,11.1221,11.1221,11.1221,11.1221,11.1221,11.1221,11.1221,11.1221,11.1221,11.1221,11.1221,11.1221,11.1221,11.1221,11.1221,11.1221,11.1221,11.1221,11.1221,11.1221,11.1221,11.1221,11.1221,11.1221,11.1221,11.1221,11.1221,11.1221,11.1221,11.1111,11.1001,11.0891,11.0817,11.0597,11.0193,10.9863,10.9679,10.9423,10.8945,10.8468,10.7918,10.7367,10.689,10.6486,10.6376,10.6376,10.6376,10.6376,10.6376,10.6376,10.6376,10.6376,10.6376,10.6291,10.6291,10.6291,10.6291,10.6376,10.6376,10.6376,10.6376,10.6376,10.6376,10.6376,10.646,10.646,10.6755,10.7042,10.7131,10.7101,10.7023,10.6797,10.6164,10.5423,10.4646,10.3449,10.2353,10.1424,10.081,10.0333,10.65,10.7381,10.8741,10.9607,10.9992,11.0425,11.07,11.0791,11.1096,11.1221,11.1221,11.1221,11.1221,11.1221,11.1221,11.1221,11.1221,11.1221,11.1221,11.1221,11.1221,11.1221,11.1221,11.1221,11.1221,11.1221,11.1221,11.1221,11.1258,11.1221,11.1221,11.1258,11.1258,11.1258,11.1221,11.1221,11.1221,11.1221,11.1221,11.1221,11.1221,11.1221,11.1221,11.1221,11.1221,11.1221,11.1221,11.1221,11.1221,11.1221,11.1221,11.1221,11.1221,11.1221,11.1221,11.1221,11.1221,11.1221,11.1221,11.1221,11.1221,11.1221,11.1221,11.1221,11.1221,11.1074,11.1074,11.1038,11.1038,11.0671,11.0634,11.0487,11.0047,10.9606,10.9202,10.8762,10.7991,10.7257,10.678,10.6376,10.6376,10.6376,10.6376,10.6376,10.6376,10.6169,10.6169,10.6084,10.6084,10.6169,10.6084,10.612,10.6206,10.6376,10.6376,10.6376,10.6376,10.6376,10.6376,10.646,10.6544,10.6673,10.6881,10.6862,10.6941,10.7079,10.6777,10.6173,10.5811,10.5109,10.3713,10.2218,10.1342,10.0577,10.0146,10.6048,10.6799,10.8228,10.9079,10.9571,11.0145,11.0517,11.0791,11.1007,11.1184,11.1221,11.1221,11.1221,11.1221,11.1221,11.1221,11.1221,11.1221,11.1221,11.1221,11.1221,11.1221,11.1221,11.1221,11.1221,11.1221,11.1221,11.1368,11.1515,11.1515,11.1515,11.1368,11.1331,11.1331,11.1258,11.1221,11.1221,11.1221,11.1221,11.1221,11.1221,11.1221,11.1221,11.1221,11.1221,11.1221,11.1221,11.1221,11.1221,11.1221,11.1221,11.1221,11.1221,11.1221,11.1221,11.1221,11.1221,11.1221,11.1221,11.1221,11.1221,11.1221,11.1221,11.1221,11.1221,11.1221,11.1221,11.1221,11.1221,11.1221,11.1148,11.1038,11.0597,11.023,10.99,10.9569,10.8652,10.7734,10.7061,10.6511,10.6401,10.6401,10.6328,10.6328,10.6169,10.5997,10.5911,10.5787,10.5699,10.5787,10.5823,10.5911,10.5997,10.6084,10.6291,10.6291,10.6291,10.6376,10.6376,10.646,10.6544,10.6507,10.6526,10.6518,10.6629,10.6673,10.6423,10.5888,10.5532,10.5174,10.401,10.2527,10.1717,10.0941,10.0161,10.5703,10.6834,10.7844,10.8609,10.9079,10.9571,11.0051,11.0517,11.0791,11.1007,11.1133,11.1221,11.1221,11.1221,11.1221,11.1221,11.1221,11.1221,11.1221,11.1221,11.1221,11.1221,11.1368,11.1625,11.1295,11.1368,11.1552,11.1625,11.2065,11.2176,11.2176,11.2176,11.2176,11.1882,11.1295,11.1295,11.1331,11.1331,11.1258,11.1221,11.1221,11.1221,11.1221,11.1221,11.1221,11.1221,11.1221,11.1221,11.1221,11.1221,11.1221,11.1221,11.1221,11.1221,11.1221,11.1221,11.1221,11.1221,11.1221,11.1221,11.1221,11.1221,11.1221,11.1221,11.1221,11.1221,11.1221,11.1221,11.1221,11.1221,11.1184,11.1184,11.0891,11.0707,11.0414,11.0047,10.9423,10.8295,10.7365,10.6802,10.6386,10.624,10.597,10.5933,10.5823,10.5699,10.5611,10.5522,10.5433,10.5522,10.5522,10.5522,10.5611,10.5874,10.5997,10.6084,10.6084,10.6206,10.6206,10.6084,10.6084,10.6084,10.6034,10.5882,10.5935,10.5997,10.5663,10.5413,10.5049,10.4611,10.391,10.291,10.2054,10.1147,10.0255]},{"header":{"parameterUnit":"m.s-1","parameterCategory":1,"la1":31.0,"la2":29.5877,"lo1":-88.7671,"lo2":-86.6584,"dy":0.0162,"dx":0.0185,"nx":115,"ny":88,"refTime":"2024-02-01T06:00:00:Z","depth":0,"parameterNumber":3,"parameterNumberName":"V-component_of_WINDS"},"data":[0.0,0.0,0.0,0.0,0.0,0.0,0.0,0.0,0.0,0.0,0.0,0.0,0.0,0.0,0.0,0.0,0.0,0.0,0.0,0.0,0.0,0.0,0.0,0.0,0.0,0.0,0.0,0.0,0.0,0.0,0.0,0.0,0.0,0.0,0.0,0.0,0.0,0.0,0.0,0.0,0.0,0.0,0.0,0.0,0.0,0.0,0.0,0.0,0.0,0.0,0.0,0.0,0.0,0.0,0.0,0.0,0.0,0.0,0.0,0.0,0.0,0.0,0.0,0.0,0.0,0.0,0.0,0.0,0.0,0.0,0.0,0.0,0.0,0.0,0.0,0.0,0.0,0.0,0.0,0.0,0.0,0.0,0.0,0.0,0.0,0.0,0.0,0.0,0.0,0.0,0.0,0.0,0.0,0.0,0.0,0.0,0.0,0.0,0.0,0.0,0.0,0.0,0.0,0.0,0.0,0.0,0.0,0.0,0.0,0.0,0.0,0.0,0.0,0.0,0.0,0.0,0.0,0.0,0.0,0.0,0.0,0.0,0.0,0.0,0.0,0.0,0.0,0.0,0.0,0.0,0.0,0.0,0.0,0.0,0.0,0.0,0.0,0.0,0.0,0.0,0.0,0.0,0.0,0.0,0.0,0.0,0.0,0.0,0.0,0.0,0.0,0.0,0.0,0.0,0.0,0.0,0.0,0.0,0.0,0.0,0.0,0.0,0.0,0.0,0.0,0.0,0.0,0.0,0.0,0.0,0.0,0.0,0.0,0.0,0.0,0.0,0.0,0.0,0.0,0.0,0.0,0.0,0.0,0.0,0.0,0.0,0.0,0.0,0.0,0.0,0.0,0.0,0.0,0.0,0.0,0.0,0.0,0.0,0.0,0.0,0.0,0.0,0.0,0.0,0.0,0.0,0.0,0.0,0.0,0.0,0.0,0.0,0.0,0.0,0.0,0.0,0.0,0.0,0.0,0.0,0.0,0.0,0.0,0.0,0.0,0.0,0.0,0.0,0.0,0.0,0.0,0.0,0.0,0.0,0.0,0.0,0.0,0.0,0.0,0.0,0.0,0.0,0.0,0.0,0.0,0.0,0.0,0.0,0.0,0.0,0.0,0.0,0.0,0.0,0.0,0.0,0.0,0.0,0.0,0.0,0.0,0.0,0.0,0.0,0.0,0.0,0.0,0.0,0.0,0.0,0.0,0.0,0.0,0.0,0.0,0.0,0.0,0.0,0.0,0.0,0.0,0.0,0.0,0.0,0.0,0.0,0.0,0.0,0.0,0.0,0.0,0.0,0.0,0.0,0.0,0.0,0.0,0.0,0.0,0.0,0.0,0.0,0.0,0.0,0.0,0.0,0.0,0.0,0.0,0.0,0.0,0.0,0.0,0.0,0.0,0.0,0.0,0.0,0.0,0.0,0.0,0.0,0.0,0.0,0.0,0.0,0.0,0.0,0.0,0.0,0.0,0.0,0.0,0.0,0.0,0.0,0.0,0.0,0.0,0.0,0.0,0.0,0.0,0.0,0.0,0.0,0.0,0.0,0.0,0.0,0.0,0.0,0.0,0.0,0.0,0.0,0.0,0.0,0.0,0.0,0.0,0.0,0.0,0.0,0.0,0.0,0.0,0.0,0.0,0.0,0.0,0.0,0.0,0.0,0.0,0.0,0.0,0.0,0.0,0.0,0.0,0.0,0.0,0.0,0.0,0.0,0.0,0.0,0.0,0.0,0.0,0.0,0.0,0.0,0.0,0.0,0.0,0.0,0.0,0.0,0.0,0.0,0.0,0.0,0.0,0.0,0.0,0.0,0.0,0.0,0.0,0.0,0.0,0.0,0.0,0.0,0.0,0.0,0.0,0.0,0.0,0.0,0.0,0.0,0.0,0.0,0.0,0.0,0.0,0.0,0.0,0.0,0.0,0.0,0.0,0.0,0.0,0.0,0.0,0.0,0.0,0.0,0.0,0.0,0.0,0.0,0.0,0.0,0.0,0.0,0.0,0.0,0.0,0.0,0.0,0.0,0.0,0.0,0.0,0.0,0.0,0.0,0.0,0.0,0.0,0.0,0.0,0.0,0.0,0.0,0.0,0.0,0.0,0.0,0.0,0.0,0.0,0.0,0.0,0.0,0.0,0.0,0.0,0.0,0.0,0.0,0.0,0.0,0.0,0.0,0.0,0.0,0.0,0.0,0.0,0.0,0.0,0.0,0.0,0.0,0.0,0.0,0.0,0.0,0.0,0.0,0.0,0.0,0.0,0.0,0.0,0.0,0.0,0.0,0.0,0.0,0.0,0.0,0.0,0.0,0.0,0.0,0.0,0.0,0.0,0.0,0.0,0.0,0.0,0.0,0.0,0.0,0.0,0.0,0.0,0.0,0.0,0.0,0.0,0.0,0.0,0.0,0.0,0.0,0.0,0.0,0.0,0.0,0.0,0.0,0.0,0.0,0.0,0.0,0.0,0.0,0.0,0.0,0.0,0.0,0.0,0.0,0.0,0.0,0.0,0.0,0.0,0.0,0.0,0.0,0.0,0.0,0.0,0.0,0.0,0.0,0.0,0.0,0.0,0.0,0.0,0.0,0.0,0.0,0.0,0.0,0.0,0.0,0.0,0.0,0.0,0.0,0.0,0.0,0.0,0.0,0.0,0.0,0.0,0.0,0.0,0.0,0.0,0.0,0.0,0.0,0.0,0.0,0.0,0.0,0.0,0.0,0.0,0.0,0.0,0.0,0.0,0.0,0.0,0.0,0.0,0.0,0.0,0.0,0.0,0.0,0.0,0.0,0.0,0.0,0.0,0.0,0.0,0.0,0.0,0.0,0.0,0.0,0.0,0.0,0.0,0.0,0.0,0.0,0.0,0.0,0.0,0.0,0.0,0.0,0.0,0.0,0.0,0.0,0.0,0.0,0.0,0.0,0.0,0.0,0.0,0.0,0.0,0.0,0.0,0.0,0.0,0.0,0.0,0.0,0.0,0.0,0.0,0.0,0.0,0.0,0.0,0.0,0.0,0.0,0.0,0.0,0.0,0.0,0.0,0.0,0.0,0.0,0.0,0.0,0.0,0.0,0.0,0.0,0.0,0.0,0.0,0.0,0.0,0.0,0.0,0.0,0.0,0.0,0.0,0.0,0.0,0.0,0.0,0.0,0.0,0.0,0.0,0.0,0.0,0.0,0.0,0.0,0.0,0.0,0.0,0.0,0.0,0.0,0.0,0.0,0.0,0.0,0.0,0.0,0.0,0.0,0.0,0.0,0.0,0.0,0.0,0.0,0.0,0.0,0.0,0.0,0.0,0.0,0.0,0.0,0.0,0.0,0.0,0.0,0.0,0.0,0.0,0.0,0.0,0.0,0.0,0.0,0.0,0.0,0.0,0.0,0.0,0.0,0.0,0.0,0.0,0.0,0.0,0.0,0.0,0.0,0.0,0.0,0.0,0.0,0.0,0.0,0.0,0.0,0.0,0.0,0.0,0.0,0.0,0.0,0.0,0.0,0.0,0.0,0.0,0.0,0.0,0.0,0.0,0.0,0.0,0.0,0.0,0.0,0.0,0.0,0.0,0.0,0.0,0.0,0.0,0.0,0.0,0.0,0.0,0.0,0.0,0.0,0.0,0.0,0.0,0.0,0.0,0.0,0.0,0.0,0.0,0.0,0.0,0.0,0.0,0.0,0.0,0.0,0.0,0.0,0.0,0.0,0.0,0.0,0.0,0.0,0.0,0.0,0.0,0.0,0.0,0.0,0.0,0.0,0.0,0.0,0.0,0.0,0.0,0.0,0.0,0.0,0.0,0.0,0.0,0.0,0.0,0.0,0.0,0.0,0.0,0.0,0.0,0.0,0.0,0.0,0.0,0.0,0.0,0.0,0.0,0.0,0.0,0.0,0.0,0.0,0.0,0.0,0.0,0.0,0.0,0.0,0.0,0.0,0.0,0.0,0.0,0.0,0.0,0.0,0.0,0.0,0.0,0.0,0.0,0.0,0.0,0.0,0.0,0.0,0.0,0.0,0.0,0.0,0.0,0.0,0.0,0.0,0.0,0.0,0.0,0.0,0.0,0.0,0.0,0.0,0.0,0.0,0.0,0.0,0.0,0.0,0.0,0.0,0.0,0.0,0.0,0.0,0.0,0.0,0.0,0.0,0.0,0.0,0.0,0.0,0.0,0.0,0.0,0.0,0.0,0.0,0.0,0.0,0.0,0.0,0.0,0.0,0.0,0.0,0.0,0.0,0.0,0.0,0.0,0.0,0.0,0.0,0.0,0.0,0.0,0.0,0.0,0.0,-2.5518,0.0,0.0,0.0,0.0,0.0,0.0,0.0,0.0,0.0,0.0,0.0,0.0,0.0,0.0,0.0,0.0,0.0,0.0,0.0,0.0,0.0,0.0,0.0,0.0,0.0,0.0,0.0,0.0,0.0,0.0,0.0,0.0,0.0,0.0,0.0,0.0,0.0,0.0,0.0,0.0,0.0,0.0,0.0,0.0,0.0,0.0,0.0,0.0,0.0,0.0,0.0,0.0,0.0,0.0,0.0,0.0,0.0,0.0,0.0,0.0,0.0,0.0,0.0,0.0,0.0,0.0,0.0,0.0,0.0,0.0,0.0,0.0,0.0,0.0,0.0,0.0,0.0,0.0,0.0,0.0,0.0,0.0,0.0,0.0,0.0,0.0,0.0,0.0,0.0,0.0,0.0,0.0,0.0,0.0,0.0,0.0,0.0,0.0,0.0,0.0,0.0,0.0,0.0,0.0,0.0,0.0,0.0,0.0,0.0,0.0,-2.64,-2.6386,-2.6266,-2.5985,-2.5518,0.0,0.0,0.0,0.0,0.0,0.0,0.0,0.0,0.0,0.0,0.0,0.0,0.0,0.0,0.0,0.0,0.0,0.0,0.0,0.0,0.0,0.0,0.0,0.0,0.0,0.0,0.0,0.0,0.0,0.0,0.0,0.0,0.0,0.0,0.0,0.0,0.0,0.0,0.0,0.0,0.0,0.0,0.0,0.0,0.0,0.0,0.0,0.0,0.0,0.0,0.0,0.0,0.0,0.0,0.0,0.0,0.0,0.0,0.0,0.0,0.0,0.0,0.0,0.0,0.0,0.0,0.0,0.0,0.0,0.0,0.0,0.0,0.0,0.0,0.0,0.0,0.0,0.0,0.0,0.0,0.0,0.0,0.0,0.0,0.0,0.0,0.0,0.0,0.0,0.0,0.0,0.0,0.0,0.0,0.0,0.0,0.0,0.0,0.0,0.0,0.0,0.0,0.0,0.0,0.0,0.0,0.0,0.0,0.0,0.0,0.0,0.0,-2.64,-2.6106,-2.5531,0.0,0.0,0.0,0.0,0.0,0.0,0.0,0.0,0.0,0.0,0.0,0.0,0.0,0.0,0.0,0.0,0.0,0.0,0.0,0.0,0.0,0.0,0.0,0.0,0.0,0.0,0.0,0.0,0.0,0.0,0.0,0.0,0.0,0.0,0.0,0.0,0.0,0.0,0.0,0.0,0.0,0.0,0.0,0.0,0.0,0.0,0.0,0.0,0.0,0.0,0.0,0.0,0.0,0.0,0.0,0.0,0.0,0.0,0.0,0.0,0.0,0.0,0.0,0.0,0.0,0.0,0.0,0.0,0.0,0.0,0.0,0.0,0.0,0.0,0.0,0.0,0.0,0.0,0.0,0.0,0.0,0.0,0.0,0.0,0.0,0.0,0.0,0.0,0.0,0.0,0.0,0.0,0.0,0.0,0.0,0.0,0.0,0.0,0.0,0.0,0.0,0.0,0.0,0.0,0.0,0.0,0.0,0.0,0.0,0.0,-2.64,-2.64,-2.6386,0.0,-2.5545,0.0,0.0,0.0,0.0,0.0,0.0,0.0,0.0,0.0,0.0,0.0,0.0,0.0,0.0,0.0,0.0,0.0,0.0,0.0,0.0,0.0,0.0,0.0,0.0,0.0,0.0,0.0,0.0,0.0,0.0,0.0,0.0,0.0,0.0,0.0,0.0,0.0,0.0,0.0,0.0,0.0,0.0,0.0,0.0,0.0,0.0,0.0,0.0,0.0,0.0,0.0,0.0,0.0,0.0,0.0,0.0,0.0,0.0,0.0,0.0,0.0,0.0,0.0,0.0,0.0,0.0,0.0,0.0,0.0,0.0,0.0,0.0,0.0,0.0,0.0,0.0,0.0,0.0,0.0,0.0,0.0,0.0,0.0,0.0,0.0,0.0,0.0,0.0,0.0,0.0,0.0,0.0,0.0,0.0,0.0,0.0,0.0,0.0,0.0,0.0,0.0,0.0,0.0,0.0,0.0,0.0,0.0,0.0,0.0,0.0,-2.64,-2.64,-2.6226,-2.6026,0.0,0.0,0.0,0.0,0.0,0.0,0.0,0.0,0.0,0.0,0.0,0.0,0.0,0.0,0.0,0.0,0.0,0.0,0.0,0.0,0.0,0.0,0.0,0.0,0.0,0.0,0.0,0.0,0.0,0.0,0.0,0.0,0.0,0.0,0.0,0.0,0.0,0.0,0.0,0.0,0.0,0.0,0.0,0.0,0.0,0.0,0.0,0.0,0.0,0.0,0.0,0.0,0.0,0.0,0.0,0.0,0.0,0.0,0.0,0.0,0.0,0.0,0.0,0.0,0.0,0.0,0.0,0.0,0.0,0.0,0.0,0.0,0.0,0.0,0.0,0.0,0.0,0.0,0.0,0.0,0.0,0.0,0.0,0.0,0.0,0.0,0.0,0.0,0.0,0.0,0.0,0.0,0.0,0.0,0.0,0.0,0.0,0.0,0.0,0.0,0.0,0.0,0.0,0.0,0.0,0.0,0.0,0.0,0.0,0.0,-2.64,-2.64,-2.6386,-2.6186,-2.6039,-2.5959,0.0,0.0,0.0,0.0,0.0,0.0,0.0,0.0,0.0,0.0,0.0,0.0,0.0,0.0,0.0,0.0,0.0,0.0,0.0,0.0,0.0,0.0,0.0,0.0,0.0,0.0,0.0,0.0,0.0,0.0,0.0,0.0,0.0,0.0,0.0,0.0,0.0,0.0,0.0,0.0,0.0,0.0,0.0,0.0,0.0,0.0,0.0,0.0,0.0,0.0,0.0,0.0,0.0,0.0,0.0,0.0,0.0,0.0,0.0,0.0,0.0,0.0,0.0,0.0,0.0,0.0,0.0,0.0,0.0,0.0,0.0,0.0,0.0,0.0,0.0,0.0,0.0,0.0,0.0,0.0,0.0,0.0,0.0,0.0,0.0,0.0,0.0,0.0,0.0,0.0,0.0,0.0,0.0,0.0,0.0,0.0,0.0,0.0,0.0,0.0,0.0,0.0,0.0,0.0,0.0,0.0,0.0,0.0,-2.64,-2.64,-2.64,-2.64,-2.6373,-2.6239,0.0,0.0,0.0,0.0,0.0,0.0,0.0,0.0,0.0,0.0,0.0,0.0,0.0,0.0,0.0,0.0,0.0,0.0,0.0,0.0,0.0,0.0,0.0,0.0,0.0,0.0,0.0,0.0,0.0,0.0,0.0,0.0,0.0,0.0,0.0,0.0,0.0,0.0,0.0,0.0,0.0,0.0,0.0,0.0,0.0,0.0,0.0,0.0,0.0,0.0,0.0,0.0,0.0,0.0,0.0,0.0,0.0,0.0,0.0,0.0,0.0,0.0,0.0,0.0,0.0,0.0,0.0,0.0,0.0,0.0,0.0,0.0,0.0,0.0,0.0,0.0,0.0,0.0,0.0,0.0,0.0,0.0,0.0,0.0,0.0,0.0,0.0,0.0,0.0,0.0,0.0,0.0,0.0,0.0,0.0,0.0,0.0,0.0,0.0,0.0,0.0,0.0,0.0,0.0,0.0,0.0,0.0,0.0,0.0,-2.64,-2.64,-2.64,-2.64,-2.64,-2.6333,0.0,0.0,0.0,0.0,0.0,0.0,0.0,0.0,0.0,0.0,0.0,0.0,0.0,0.0,0.0,0.0,0.0,0.0,0.0,0.0,0.0,0.0,0.0,0.0,0.0,0.0,0.0,0.0,0.0,0.0,0.0,0.0,0.0,0.0,0.0,0.0,0.0,0.0,0.0,0.0,0.0,0.0,0.0,0.0,0.0,0.0,0.0,0.0,0.0,0.0,0.0,0.0,0.0,0.0,0.0,0.0,0.0,0.0,0.0,0.0,0.0,0.0,0.0,0.0,0.0,0.0,0.0,0.0,0.0,0.0,0.0,0.0,0.0,0.0,0.0,0.0,0.0,0.0,0.0,0.0,0.0,0.0,0.0,0.0,0.0,0.0,0.0,0.0,0.0,0.0,0.0,0.0,0.0,0.0,0.0,0.0,0.0,0.0,0.0,0.0,0.0,0.0,0.0,0.0,0.0,0.0,0.0,0.0,0.0,-2.64,0.0,-2.64,-2.64,-2.64,-2.64,0.0,0.0,0.0,0.0,0.0,0.0,0.0,0.0,0.0,0.0,0.0,0.0,0.0,0.0,0.0,0.0,0.0,0.0,0.0,0.0,0.0,0.0,0.0,0.0,0.0,0.0,0.0,0.0,0.0,0.0,0.0,0.0,0.0,0.0,0.0,0.0,0.0,0.0,0.0,0.0,0.0,0.0,0.0,0.0,0.0,0.0,0.0,0.0,0.0,0.0,0.0,0.0,0.0,0.0,0.0,0.0,0.0,0.0,0.0,0.0,0.0,0.0,0.0,0.0,0.0,0.0,0.0,0.0,0.0,0.0,0.0,0.0,0.0,0.0,0.0,0.0,0.0,0.0,0.0,0.0,0.0,0.0,0.0,0.0,0.0,0.0,0.0,0.0,0.0,0.0,0.0,0.0,0.0,0.0,0.0,0.0,0.0,0.0,0.0,0.0,0.0,0.0,0.0,0.0,0.0,0.0,0.0,0.0,-2.64,-2.64,-2.64,-2.6413,-2.64,-2.64,-2.64,0.0,0.0,0.0,0.0,0.0,0.0,0.0,0.0,0.0,0.0,0.0,0.0,0.0,0.0,0.0,0.0,0.0,0.0,0.0,0.0,0.0,0.0,0.0,0.0,0.0,0.0,0.0,0.0,0.0,0.0,0.0,0.0,0.0,0.0,0.0,0.0,0.0,0.0,0.0,0.0,0.0,0.0,0.0,0.0,0.0,0.0,0.0,0.0,0.0,0.0,0.0,0.0,0.0,0.0,0.0,0.0,0.0,0.0,0.0,0.0,0.0,0.0,0.0,0.0,0.0,0.0,0.0,0.0,0.0,0.0,0.0,0.0,0.0,0.0,0.0,0.0,0.0,0.0,0.0,0.0,0.0,0.0,0.0,0.0,0.0,0.0,0.0,0.0,0.0,0.0,0.0,0.0,0.0,0.0,0.0,0.0,0.0,0.0,0.0,0.0,0.0,0.0,0.0,0.0,0.0,0.0,0.0,0.0,0.0,-2.668,-2.6694,-2.6694,-2.6694,-2.6694,-2.6587,0.0,0.0,0.0,0.0,0.0,0.0,0.0,0.0,0.0,0.0,0.0,0.0,0.0,0.0,0.0,0.0,0.0,0.0,0.0,0.0,0.0,0.0,0.0,0.0,0.0,0.0,0.0,0.0,0.0,0.0,0.0,0.0,0.0,0.0,0.0,0.0,0.0,0.0,0.0,0.0,0.0,0.0,0.0,0.0,0.0,0.0,0.0,0.0,0.0,0.0,0.0,0.0,0.0,0.0,0.0,0.0,0.0,0.0,0.0,0.0,0.0,0.0,0.0,0.0,0.0,0.0,0.0,0.0,0.0,0.0,0.0,0.0,0.0,0.0,0.0,0.0,0.0,0.0,0.0,0.0,0.0,0.0,0.0,0.0,0.0,0.0,0.0,0.0,0.0,0.0,0.0,0.0,0.0,0.0,0.0,0.0,0.0,0.0,0.0,0.0,0.0,0.0,0.0,0.0,0.0,0.0,0.0,0.0,0.0,-2.7134,-2.7041,-2.6987,-2.6987,-2.6881,-2.6734,-2.656,0.0,0.0,0.0,0.0,0.0,0.0,0.0,0.0,0.0,0.0,0.0,0.0,0.0,0.0,0.0,0.0,0.0,0.0,0.0,0.0,0.0,0.0,0.0,0.0,0.0,0.0,0.0,0.0,0.0,0.0,0.0,0.0,0.0,0.0,0.0,0.0,0.0,0.0,0.0,0.0,0.0,0.0,0.0,0.0,0.0,0.0,0.0,0.0,0.0,0.0,0.0,0.0,0.0,0.0,0.0,0.0,0.0,0.0,0.0,0.0,0.0,0.0,0.0,0.0,0.0,0.0,0.0,0.0,0.0,0.0,0.0,0.0,0.0,0.0,0.0,0.0,0.0,0.0,0.0,0.0,0.0,0.0,0.0,0.0,0.0,0.0,0.0,0.0,0.0,0.0,0.0,0.0,0.0,0.0,0.0,0.0,0.0,0.0,0.0,0.0,0.0,0.0,0.0,0.0,0.0,0.0,0.0,0.0,-2.7749,-2.7495,-2.7348,-2.7281,-2.7028,-2.6854,0.0,0.0,0.0,0.0,0.0,0.0,0.0,0.0,0.0,0.0,0.0,0.0,0.0,0.0,0.0,0.0,0.0,0.0,0.0,0.0,0.0,0.0,0.0,0.0,0.0,0.0,0.0,0.0,0.0,0.0,0.0,0.0,0.0,0.0,0.0,0.0,0.0,0.0,0.0,0.0,0.0,0.0,0.0,0.0,0.0,0.0,0.0,0.0,0.0,0.0,0.0,0.0,0.0,0.0,0.0,0.0,0.0,0.0,0.0,0.0,0.0,0.0,0.0,0.0,0.0,0.0,0.0,0.0,0.0,0.0,0.0,0.0,0.0,0.0,0.0,0.0,0.0,0.0,0.0,0.0,0.0,0.0,0.0,0.0,0.0,0.0,0.0,0.0,0.0,0.0,0.0,0.0,0.0,0.0,0.0,0.0,0.0,0.0,0.0,0.0,0.0,0.0,0.0,0.0,0.0,0.0,0.0,0.0,0.0,-2.8364,-2.8511,-2.8257,-2.7615,-2.7509,-2.7268,0.0,0.0,0.0,0.0,0.0,0.0,0.0,0.0,0.0,0.0,0.0,0.0,0.0,0.0,0.0,0.0,0.0,0.0,0.0,0.0,0.0,0.0,0.0,0.0,0.0,0.0,0.0,0.0,0.0,0.0,0.0,0.0,0.0,0.0,0.0,0.0,0.0,0.0,0.0,0.0,0.0,0.0,0.0,0.0,0.0,0.0,0.0,0.0,0.0,0.0,0.0,0.0,0.0,0.0,0.0,0.0,0.0,0.0,0.0,0.0,0.0,0.0,0.0,0.0,0.0,0.0,0.0,0.0,0.0,0.0,0.0,0.0,0.0,0.0,0.0,0.0,0.0,0.0,0.0,0.0,0.0,0.0,0.0,0.0,0.0,0.0,0.0,0.0,0.0,0.0,0.0,0.0,0.0,0.0,0.0,0.0,0.0,0.0,0.0,0.0,0.0,0.0,0.0,0.0,0.0,0.0,0.0,0.0,-2.8417,-2.8604,-2.8885,-2.8791,-2.8283,-2.8016,-2.7615,0.0,0.0,0.0,0.0,0.0,0.0,0.0,0.0,0.0,0.0,0.0,0.0,0.0,0.0,0.0,0.0,0.0,0.0,0.0,0.0,0.0,0.0,0.0,0.0,0.0,0.0,0.0,0.0,0.0,0.0,0.0,0.0,0.0,0.0,0.0,0.0,0.0,0.0,0.0,0.0,0.0,0.0,0.0,0.0,0.0,0.0,0.0,0.0,0.0,0.0,0.0,0.0,0.0,0.0,0.0,0.0,0.0,0.0,0.0,0.0,0.0,0.0,0.0,0.0,0.0,0.0,0.0,0.0,0.0,0.0,0.0,0.0,0.0,0.0,0.0,0.0,0.0,0.0,0.0,0.0,0.0,0.0,0.0,0.0,0.0,0.0,0.0,0.0,0.0,0.0,0.0,0.0,0.0,0.0,0.0,0.0,0.0,0.0,0.0,0.0,0.0,0.0,0.0,0.0,0.0,0.0,0.0,0.0,-2.8698,-2.8698,-2.8978,-2.9112,-2.9072,-2.8511,-2.7936,0.0,0.0,0.0,0.0,0.0,0.0,0.0,0.0,0.0,0.0,0.0,0.0,0.0,0.0,0.0,0.0,0.0,0.0,0.0,0.0,0.0,0.0,0.0,0.0,0.0,0.0,0.0,0.0,0.0,0.0,0.0,0.0,0.0,0.0,0.0,0.0,0.0,0.0,0.0,0.0,0.0,0.0,0.0,0.0,0.0,0.0,0.0,0.0,0.0,0.0,0.0,0.0,0.0,0.0,0.0,0.0,0.0,0.0,0.0,0.0,0.0,0.0,0.0,0.0,0.0,0.0,0.0,0.0,0.0,0.0,0.0,0.0,0.0,0.0,0.0,0.0,0.0,0.0,0.0,0.0,0.0,0.0,0.0,0.0,0.0,0.0,0.0,0.0,0.0,0.0,0.0,0.0,0.0,0.0,0.0,0.0,0.0,0.0,0.0,0.0,0.0,0.0,0.0,0.0,0.0,0.0,0.0,0.0,-2.9299,-2.9312,-2.9579,-2.9619,-2.9392,-2.8818,-2.8337,0.0,0.0,0.0,0.0,0.0,0.0,0.0,0.0,0.0,0.0,0.0,0.0,0.0,0.0,0.0,0.0,0.0,0.0,0.0,0.0,0.0,0.0,0.0,0.0,0.0,0.0,0.0,0.0,0.0,0.0,0.0,0.0,0.0,0.0,0.0,0.0,0.0,0.0,0.0,0.0,0.0,0.0,0.0,0.0,0.0,0.0,0.0,0.0,-2.64,0.0,0.0,0.0,0.0,0.0,0.0,0.0,0.0,0.0,0.0,0.0,0.0,0.0,0.0,0.0,0.0,0.0,0.0,0.0,0.0,0.0,0.0,0.0,0.0,0.0,0.0,0.0,0.0,0.0,0.0,0.0,0.0,0.0,0.0,0.0,0.0,0.0,0.0,0.0,0.0,0.0,0.0,0.0,0.0,0.0,0.0,0.0,0.0,0.0,0.0,0.0,0.0,0.0,0.0,0.0,0.0,0.0,0.0,0.0,-2.9486,-2.9486,-2.99,-2.998,-2.9686,-2.9259,-2.8738,0.0,0.0,0.0,0.0,0.0,0.0,0.0,0.0,0.0,0.0,0.0,0.0,0.0,0.0,0.0,0.0,0.0,0.0,0.0,0.0,0.0,0.0,0.0,0.0,0.0,0.0,0.0,0.0,0.0,0.0,0.0,0.0,0.0,0.0,0.0,0.0,0.0,0.0,0.0,0.0,0.0,0.0,0.0,0.0,0.0,0.0,0.0,0.0,0.0,0.0,0.0,0.0,0.0,0.0,0.0,0.0,0.0,0.0,0.0,0.0,0.0,0.0,0.0,0.0,0.0,0.0,0.0,0.0,0.0,0.0,0.0,0.0,0.0,0.0,0.0,0.0,0.0,0.0,0.0,0.0,0.0,0.0,0.0,0.0,0.0,0.0,0.0,0.0,0.0,0.0,0.0,0.0,0.0,0.0,0.0,0.0,0.0,0.0,0.0,0.0,0.0,0.0,0.0,0.0,0.0,0.0,0.0,-2.9272,-2.9579,-2.9633,-3.014,-3.0287,-2.9993,-2.97,-2.9125,-2.8257,0.0,0.0,0.0,0.0,0.0,0.0,0.0,0.0,0.0,0.0,0.0,0.0,0.0,0.0,0.0,0.0,0.0,0.0,0.0,0.0,0.0,0.0,0.0,0.0,0.0,0.0,0.0,0.0,0.0,0.0,0.0,0.0,0.0,0.0,0.0,0.0,0.0,0.0,-2.6453,-2.6453,0.0,0.0,0.0,0.0,0.0,0.0,0.0,0.0,-2.6229,0.0,0.0,0.0,0.0,0.0,0.0,0.0,0.0,0.0,0.0,0.0,0.0,0.0,0.0,0.0,0.0,0.0,0.0,0.0,0.0,0.0,0.0,0.0,0.0,0.0,0.0,0.0,0.0,0.0,0.0,0.0,0.0,0.0,0.0,0.0,0.0,0.0,0.0,0.0,0.0,0.0,0.0,0.0,0.0,0.0,0.0,0.0,0.0,0.0,0.0,0.0,0.0,0.0,0.0,0.0,0.0,-2.9339,-2.9673,-2.9967,-3.0221,-3.0541,-3.0581,-3.0287,-2.9993,-2.9432,-2.8577,0.0,0.0,0.0,0.0,0.0,0.0,0.0,0.0,0.0,0.0,0.0,0.0,0.0,0.0,0.0,0.0,0.0,0.0,0.0,0.0,0.0,0.0,0.0,0.0,0.0,0.0,0.0,0.0,0.0,0.0,0.0,0.0,0.0,0.0,0.0,0.0,0.0,0.0,0.0,-2.6747,-2.6841,0.0,0.0,0.0,0.0,0.0,0.0,0.0,0.0,-2.5588,0.0,0.0,0.0,0.0,0.0,0.0,0.0,0.0,0.0,0.0,0.0,0.0,0.0,0.0,0.0,0.0,0.0,0.0,0.0,0.0,0.0,0.0,0.0,0.0,0.0,0.0,0.0,0.0,0.0,0.0,0.0,0.0,0.0,0.0,0.0,0.0,0.0,0.0,0.0,0.0,0.0,0.0,0.0,0.0,0.0,0.0,0.0,0.0,0.0,0.0,0.0,0.0,0.0,0.0,0.0,-2.97,-3.014,-3.0434,-3.0595,-3.0862,-3.0875,-3.0581,-3.0154,-2.9579,0.0,0.0,0.0,0.0,0.0,0.0,0.0,0.0,0.0,0.0,0.0,0.0,0.0,0.0,0.0,0.0,0.0,0.0,0.0,0.0,0.0,0.0,0.0,0.0,0.0,0.0,0.0,0.0,0.0,0.0,0.0,0.0,0.0,0.0,0.0,0.0,0.0,0.0,0.0,0.0,-2.6947,-2.7108,-2.7241,0.0,0.0,0.0,0.0,0.0,0.0,-2.6757,-2.6096,0.0,0.0,0.0,0.0,0.0,0.0,0.0,0.0,0.0,0.0,0.0,0.0,0.0,0.0,0.0,0.0,0.0,0.0,0.0,0.0,0.0,0.0,0.0,0.0,0.0,0.0,0.0,0.0,0.0,0.0,0.0,0.0,0.0,0.0,0.0,0.0,0.0,0.0,0.0,0.0,0.0,0.0,0.0,0.0,0.0,0.0,0.0,0.0,0.0,0.0,0.0,0.0,0.0,0.0,0.0,-2.9913,-3.0488,-3.0822,-3.0889,-3.1169,-3.1183,-3.0875,-3.0247,-2.9646,0.0,0.0,0.0,0.0,0.0,0.0,0.0,0.0,0.0,0.0,0.0,0.0,0.0,0.0,0.0,0.0,0.0,0.0,0.0,0.0,0.0,0.0,0.0,0.0,0.0,0.0,0.0,0.0,0.0,0.0,0.0,0.0,0.0,0.0,0.0,0.0,0.0,0.0,0.0,0.0,0.0,-2.7468,-2.7522,-2.7482,0.0,0.0,0.0,0.0,-2.7609,-2.7097,0.0,0.0,0.0,0.0,0.0,0.0,0.0,0.0,0.0,0.0,0.0,0.0,0.0,0.0,0.0,0.0,0.0,0.0,0.0,0.0,0.0,0.0,0.0,0.0,0.0,0.0,0.0,0.0,0.0,0.0,0.0,0.0,0.0,0.0,0.0,0.0,0.0,0.0,0.0,0.0,0.0,0.0,0.0,0.0,0.0,0.0,0.0,0.0,0.0,0.0,0.0,0.0,0.0,0.0,0.0,0.0,-2.9913,-3.0501,-3.0915,-3.1169,-3.1463,-3.1476,-3.1169,-3.0354,-2.9633,0.0,0.0,0.0,0.0,0.0,0.0,0.0,0.0,0.0,0.0,0.0,0.0,0.0,0.0,0.0,0.0,0.0,0.0,0.0,0.0,0.0,0.0,0.0,0.0,0.0,0.0,0.0,0.0,0.0,0.0,0.0,0.0,0.0,0.0,0.0,0.0,0.0,0.0,0.0,0.0,0.0,-2.8136,-2.8417,-2.8217,-2.8043,0.0,0.0,-2.7622,-2.7551,-2.6903,0.0,0.0,0.0,0.0,0.0,0.0,0.0,0.0,0.0,0.0,0.0,0.0,0.0,0.0,0.0,0.0,0.0,0.0,0.0,0.0,0.0,0.0,0.0,0.0,0.0,0.0,0.0,0.0,0.0,0.0,0.0,0.0,0.0,0.0,0.0,0.0,0.0,0.0,0.0,0.0,0.0,0.0,0.0,0.0,0.0,0.0,0.0,0.0,0.0,0.0,0.0,0.0,0.0,0.0,0.0,-2.974,-3.0635,-3.1076,-3.1503,-3.1957,-3.2104,-3.2024,-3.173,-3.0875,-3.006,0.0,0.0,0.0,0.0,0.0,0.0,0.0,0.0,0.0,0.0,0.0,0.0,0.0,0.0,0.0,0.0,0.0,0.0,0.0,0.0,0.0,0.0,0.0,0.0,0.0,0.0,0.0,0.0,0.0,0.0,0.0,0.0,0.0,0.0,0.0,0.0,0.0,0.0,0.0,0.0,0.0,0.0,-2.8791,-2.8604,0.0,0.0,0.0,-2.8087,-2.7695,0.0,0.0,0.0,0.0,0.0,0.0,0.0,0.0,0.0,0.0,0.0,0.0,0.0,0.0,0.0,0.0,0.0,0.0,0.0,0.0,0.0,0.0,0.0,0.0,0.0,0.0,0.0,0.0,0.0,0.0,0.0,0.0,0.0,0.0,0.0,0.0,0.0,0.0,0.0,0.0,0.0,0.0,0.0,0.0,0.0,0.0,0.0,0.0,0.0,0.0,0.0,0.0,0.0,0.0,0.0,0.0,0.0,-3.1102,-3.1557,-3.2024,-3.2519,-3.2545,-3.2438,-3.2211,-3.1289,0.0,0.0,0.0,0.0,0.0,0.0,0.0,0.0,0.0,0.0,0.0,0.0,0.0,0.0,0.0,0.0,0.0,0.0,0.0,0.0,0.0,0.0,0.0,0.0,0.0,0.0,0.0,-2.6613,0.0,0.0,0.0,0.0,0.0,0.0,0.0,0.0,0.0,0.0,0.0,0.0,0.0,0.0,-2.8444,-2.8965,-2.8925,-2.8818,0.0,0.0,-2.8565,-2.7939,-2.7644,-2.7195,0.0,0.0,0.0,0.0,0.0,0.0,0.0,0.0,0.0,0.0,0.0,0.0,0.0,0.0,0.0,0.0,0.0,0.0,0.0,0.0,0.0,0.0,0.0,0.0,0.0,0.0,0.0,0.0,0.0,0.0,0.0,0.0,0.0,0.0,0.0,0.0,0.0,0.0,0.0,0.0,0.0,0.0,0.0,0.0,0.0,0.0,0.0,0.0,0.0,0.0,0.0,0.0,0.0,0.0,-3.0194,-3.0822,-3.165,-3.2225,-3.2532,-3.2545,-3.2545,-3.2492,-3.1396,-3.0768,0.0,0.0,0.0,0.0,0.0,0.0,0.0,0.0,0.0,0.0,0.0,0.0,0.0,0.0,0.0,0.0,0.0,0.0,0.0,0.0,0.0,0.0,0.0,0.0,0.0,0.0,0.0,0.0,0.0,0.0,0.0,0.0,0.0,0.0,0.0,0.0,0.0,0.0,0.0,0.0,0.0,-2.8684,-2.8991,-2.9259,-2.9419,0.0,-2.9192,-2.8749,-2.813,-2.7559,-2.687,-2.5969,0.0,0.0,0.0,0.0,0.0,0.0,0.0,0.0,0.0,0.0,0.0,0.0,0.0,0.0,0.0,0.0,0.0,0.0,0.0,0.0,0.0,0.0,0.0,0.0,0.0,0.0,0.0,0.0,0.0,0.0,0.0,0.0,0.0,0.0,0.0,0.0,0.0,0.0,0.0,0.0,0.0,0.0,0.0,0.0,0.0,0.0,0.0,0.0,0.0,0.0,0.0,0.0,0.0,-3.0474,-3.1583,-3.1931,-3.2425,-3.3053,-3.308,-3.3,-3.2812,-3.2024,-3.1343,0.0,0.0,0.0,0.0,0.0,0.0,0.0,0.0,0.0,0.0,0.0,0.0,0.0,0.0,0.0,0.0,0.0,0.0,0.0,0.0,0.0,0.0,0.0,0.0,0.0,0.0,0.0,0.0,-2.7535,-2.7535,-2.7535,0.0,0.0,0.0,0.0,0.0,0.0,0.0,0.0,0.0,0.0,-2.8845,-2.9486,-2.9526,0.0,0.0,-2.9203,-2.8569,-2.78,-2.7398,-2.6909,-2.588,-2.5433,0.0,0.0,0.0,0.0,0.0,0.0,0.0,0.0,0.0,0.0,0.0,0.0,0.0,0.0,0.0,0.0,0.0,0.0,0.0,0.0,0.0,0.0,0.0,0.0,0.0,0.0,0.0,0.0,0.0,0.0,0.0,0.0,0.0,0.0,0.0,0.0,0.0,0.0,0.0,0.0,0.0,0.0,0.0,0.0,0.0,0.0,0.0,0.0,0.0,0.0,0.0,0.0,-3.0728,-3.2091,-3.2185,-3.2625,-3.34,-3.3414,-3.3307,-3.3106,-3.2545,-3.1944,0.0,0.0,0.0,0.0,0.0,0.0,0.0,0.0,0.0,0.0,0.0,0.0,0.0,0.0,0.0,0.0,0.0,0.0,0.0,0.0,0.0,0.0,0.0,0.0,0.0,0.0,0.0,0.0,-2.7762,-2.7709,-2.7709,0.0,0.0,0.0,0.0,0.0,0.0,0.0,0.0,0.0,0.0,-2.8885,-2.9673,-2.9686,-2.9619,-2.9619,-2.9172,-2.851,-2.7775,-2.7435,-2.6807,-2.5989,0.0,0.0,0.0,0.0,0.0,0.0,0.0,0.0,0.0,0.0,0.0,0.0,0.0,0.0,0.0,0.0,0.0,0.0,0.0,0.0,0.0,0.0,0.0,0.0,0.0,0.0,0.0,-2.9459,0.0,0.0,-2.8617,0.0,0.0,0.0,0.0,0.0,0.0,0.0,0.0,0.0,0.0,0.0,0.0,0.0,0.0,0.0,0.0,0.0,0.0,0.0,0.0,0.0,0.0,-3.0929,-3.2078,-3.2385,-3.2812,-3.3387,-3.3414,-3.34,-3.3374,-3.2839,-3.2532,-3.2465,0.0,0.0,0.0,0.0,0.0,0.0,0.0,0.0,0.0,0.0,0.0,0.0,0.0,0.0,0.0,0.0,0.0,0.0,0.0,0.0,0.0,0.0,0.0,0.0,0.0,0.0,-2.8083,-2.7869,-2.7696,0.0,0.0,0.0,0.0,0.0,0.0,0.0,0.0,0.0,-2.8551,-2.8604,-2.8818,-2.9419,-2.9726,-2.9887,-2.99,-2.9304,-2.8587,-2.822,-2.726,-2.6462,0.0,0.0,0.0,0.0,0.0,0.0,0.0,0.0,0.0,0.0,0.0,0.0,0.0,0.0,0.0,0.0,0.0,0.0,0.0,0.0,0.0,0.0,0.0,0.0,0.0,0.0,0.0,-2.9753,-2.9486,0.0,0.0,0.0,0.0,0.0,0.0,0.0,0.0,0.0,0.0,0.0,-3.1062,-3.0875,0.0,0.0,0.0,0.0,0.0,0.0,0.0,0.0,0.0,0.0,0.0,0.0,-3.1223,-3.2345,-3.2492,-3.2826,-3.3387,-3.3414,-3.3414,-3.3414,-3.304,-3.2652,-3.2265,0.0,0.0,0.0,0.0,0.0,0.0,0.0,0.0,0.0,0.0,0.0,0.0,0.0,0.0,0.0,0.0,0.0,0.0,0.0,0.0,0.0,0.0,0.0,0.0,0.0,-2.7736,0.0,0.0,0.0,0.0,0.0,0.0,0.0,0.0,0.0,0.0,-2.7789,-2.7963,-2.8257,-2.847,-2.8818,-2.9406,-2.9566,-2.9508,0.0,0.0,0.0,0.0,0.0,0.0,0.0,0.0,0.0,0.0,0.0,0.0,0.0,0.0,-2.6556,-2.6475,-2.6093,-2.5711,-2.5699,0.0,0.0,0.0,0.0,0.0,0.0,0.0,0.0,0.0,0.0,0.0,0.0,0.0,0.0,-3.0261,-3.0087,-2.998,0.0,0.0,0.0,0.0,0.0,0.0,0.0,0.0,-3.1209,-3.1503,-3.1957,-3.177,-3.1677,0.0,-3.149,-3.1396,0.0,0.0,0.0,0.0,0.0,0.0,0.0,0.0,-3.157,-3.2505,-3.2746,-3.3093,-3.3561,-3.3681,-3.3734,-3.3721,-3.3641,-3.3462,-3.3157,-3.2475,-3.2029,0.0,0.0,0.0,0.0,0.0,0.0,0.0,0.0,0.0,0.0,0.0,0.0,0.0,0.0,0.0,0.0,0.0,0.0,0.0,0.0,0.0,0.0,0.0,-2.8016,0.0,0.0,0.0,0.0,0.0,0.0,0.0,0.0,0.0,-2.7909,-2.8123,-2.839,-2.8591,-2.8791,-2.9085,-2.9566,0.0,0.0,0.0,0.0,0.0,0.0,0.0,-2.6749,-2.6315,-2.6761,-2.7196,-2.7292,-2.7582,-2.7799,-2.7402,0.0,0.0,-2.7256,-2.6856,-2.6467,-2.6266,-2.6266,-2.6315,-2.6484,-2.652,-2.6354,0.0,0.0,0.0,0.0,0.0,0.0,0.0,0.0,-3.1142,-3.1249,0.0,-3.0955,0.0,0.0,0.0,0.0,-3.0421,-3.0688,0.0,0.0,-3.1971,-3.2278,-3.2559,-3.2545,-3.2559,-3.2559,-3.2519,-3.2519,-3.2452,-3.1116,0.0,0.0,0.0,0.0,0.0,0.0,-3.1957,-3.2559,-3.3093,-3.3547,-3.3855,-3.4135,-3.4282,-3.4282,-3.4626,-3.4743,-3.5053,-3.4322,-3.363,-3.2869,-3.2633,0.0,0.0,0.0,0.0,0.0,0.0,0.0,0.0,0.0,0.0,0.0,0.0,0.0,0.0,0.0,0.0,0.0,0.0,0.0,0.0,-2.8614,0.0,0.0,0.0,0.0,0.0,0.0,0.0,0.0,0.0,-2.8551,-2.827,-2.8925,-2.9472,-2.9446,0.0,0.0,0.0,0.0,-2.9734,-2.9208,-2.8629,-2.7927,-2.7367,-2.7047,-2.6785,-2.7015,0.0,0.0,-2.7787,-2.7836,-2.786,-2.8059,-2.7864,-2.7924,-2.786,-2.7775,-2.7787,-2.7787,-2.7763,-2.7824,-2.7836,-2.7787,-2.7751,-3.1891,0.0,0.0,0.0,0.0,-3.1169,-3.1463,-3.1744,-3.2038,-3.2038,-3.1851,-3.1757,0.0,0.0,0.0,0.0,0.0,0.0,-3.1744,-3.2291,-3.2385,-3.2679,-3.3146,-3.2946,-3.2853,-3.2853,-3.2652,-3.2545,-3.2519,-3.1904,-3.1543,-3.141,0.0,0.0,0.0,0.0,-3.2064,-3.2812,-3.3013,-3.3253,-3.3547,-3.403,-3.4583,-3.5194,-3.5125,-3.5341,-3.5669,-3.5165,-3.4731,-3.4367,-3.3387,0.0,0.0,0.0,0.0,0.0,0.0,0.0,0.0,0.0,0.0,0.0,0.0,0.0,0.0,0.0,0.0,0.0,0.0,0.0,-2.9138,-2.891,-2.8657,0.0,0.0,0.0,0.0,0.0,0.0,0.0,0.0,0.0,-2.9419,-2.9259,-2.9165,0.0,0.0,-2.9352,-2.9847,-2.9913,-2.97,-2.9376,-2.8996,0.0,-2.7585,-2.751,-2.7715,-2.7606,-2.7968,-2.8306,-2.8379,-2.8391,-2.8391,-2.8403,-2.8439,-2.8463,-2.8415,-2.8606,-2.8809,-2.8403,-2.8391,-2.8463,-2.862,-2.8669,-2.85,-3.2572,-3.1904,-3.161,-3.1583,-3.1757,-3.1944,-3.2185,-3.2465,-3.2639,-3.2612,-3.2452,-3.2452,-3.2291,-3.2024,-3.2011,0.0,0.0,0.0,-3.2372,-3.2719,-3.2839,-3.308,-3.3387,-3.3227,-3.3146,-3.3146,-3.2973,-3.2893,-3.2879,-3.2599,-3.2358,-3.2171,0.0,-3.1543,-3.2011,-3.2324,-3.284,-3.3354,-3.3796,-3.4014,-3.4191,-3.4716,-3.5271,-3.6248,-3.5932,-3.6176,-3.6969,-3.6006,-3.5678,-3.5831,-3.4639,-3.3879,0.0,0.0,0.0,0.0,0.0,0.0,0.0,0.0,0.0,0.0,0.0,-3.0568,-3.1375,0.0,0.0,0.0,-3.1388,-3.0838,-3.0129,-2.9703,0.0,0.0,0.0,0.0,0.0,0.0,0.0,-2.9325,-2.986,-3.0221,-3.01,-2.998,-2.986,-2.9753,-2.9726,-2.986,-3.0207,0.0,-3.0148,-2.9461,-2.9403,-2.8992,-2.7804,-2.7932,-2.8222,-2.8282,-2.8548,-2.8813,-2.8922,-2.8934,-2.8934,-2.8934,-2.88,-2.8664,-2.9079,-2.9175,-2.9298,-2.8717,-2.862,-2.8681,-2.8825,-2.8946,-2.9055,-3.3013,-3.3,-3.2759,-3.2625,-3.2585,-3.2585,-3.2746,-3.3,-3.3013,-3.3013,-3.3013,-3.3013,-3.2866,-3.2625,-3.2612,0.0,-3.2666,-3.2933,-3.304,-3.3066,-3.3334,-3.344,-3.3414,-3.3414,-3.3414,-3.3414,-3.3414,-3.3414,-3.3387,-3.3146,-3.3013,-3.3,-3.2478,-3.2318,-3.2545,-3.3415,-3.3776,-3.3776,-3.4937,-3.5431,-3.5646,-3.5739,-3.6504,-3.7504,-3.6839,-3.731,-3.8753,-3.731,-3.6603,-3.6998,-3.6196,-3.5594,-3.4827,0.0,0.0,0.0,0.0,0.0,0.0,0.0,0.0,0.0,0.0,0.0,0.0,0.0,0.0,-3.4565,-3.324,0.0,-3.1521,-3.0765,0.0,0.0,0.0,-2.9766,-3.0301,-3.0421,-3.0448,-3.0434,0.0,0.0,-3.0501,-3.0929,-3.1169,-3.0929,-3.0849,-3.0835,-3.0862,-3.1076,-3.0795,-2.9666,-2.967,-2.9382,-2.8314,-2.8331,-2.8669,-2.9043,-2.9103,-2.9212,-2.9369,-2.9381,-2.9393,-2.9369,-2.8942,-2.8861,-2.9543,-2.9651,-2.9202,-2.8874,-2.8753,-2.8789,-2.885,-2.9019,-2.92,-3.3307,-3.332,-3.3494,-3.3307,-3.2879,-3.2879,-3.304,-3.3307,-3.3307,-3.3307,-3.3307,-3.3307,-3.3267,-3.3213,-3.32,-3.3334,-3.3574,-3.3641,-3.3668,-3.3681,-3.3734,-3.3641,-3.3414,-3.3414,-3.3414,-3.3414,-3.3414,-3.3414,-3.34,-3.3347,-3.3307,-3.3293,-3.3173,-3.2919,-3.2572,-3.3429,-3.3776,-3.3776,-3.4728,-3.5522,-3.6317,-3.639,-3.7148,-3.8982,-3.8339,-3.8814,-4.0043,-3.8829,-3.8097,-3.787,-3.6863,-3.6001,-3.5075,-3.4951,0.0,0.0,0.0,0.0,0.0,0.0,0.0,0.0,0.0,-3.3352,-3.4703,0.0,-3.5333,0.0,-3.4154,-3.2945,-3.1873,-3.1263,0.0,0.0,-3.0007,-3.0207,-3.0354,-3.0955,-3.1263,-3.1049,-3.1476,-3.1677,-3.1396,-3.1476,-3.1623,-3.1757,-3.141,-3.1209,-3.1423,-3.1138,-3.0864,-3.028,-3.0286,-3.0193,-2.9529,-2.9731,-2.9972,-2.9936,-2.9924,-2.9888,-2.9731,-2.9538,-2.9405,-2.9405,-2.9231,-2.9279,-2.9526,-2.9784,-2.976,-2.9308,-2.9538,-2.9839,-2.9839,-2.9876,-2.9924,-3.3708,-3.3828,-3.4002,-3.3881,-3.3574,-3.3574,-3.3668,-3.3814,-3.3814,-3.3814,-3.3814,-3.3814,-3.3814,-3.3814,-3.3814,-3.3908,-3.4068,-3.3948,-3.3895,-3.3881,-3.3734,-3.3587,-3.3414,-3.3414,-3.3414,-3.3414,-3.3414,-3.3414,-3.3414,-3.3414,-3.3414,-3.3414,-3.3414,-3.3187,-3.2759,-3.368,-3.4156,-3.4156,-3.545,-3.64,-3.7007,-3.7401,-3.8264,-3.9433,-3.9112,-3.9504,-4.0658,-3.9323,-3.8487,-3.8326,-3.7323,-3.64,-3.5951,-3.5563,-3.5159,0.0,0.0,0.0,0.0,0.0,0.0,0.0,0.0,0.0,0.0,0.0,-3.6243,-3.587,-3.4985,-3.3736,-3.2591,-3.2223,-3.1601,-3.0715,-3.0849,-3.0996,-3.1116,-3.1557,-3.1851,-3.1824,-3.2104,-3.2291,-3.2251,-3.2372,-3.2559,-3.2853,-3.2612,-3.2372,-3.2278,-3.197,-3.1529,-3.1107,-3.1102,-3.0723,-3.0008,-3.0226,-3.0431,-3.0395,-3.0383,-3.0371,-3.0334,-3.0214,-3.0105,-3.0105,-2.9891,-2.9891,-3.0117,-3.0331,-3.0343,-3.0165,-3.0346,-3.0358,-2.996,-2.9948,-3.002,-3.4082,-3.4322,-3.4362,-3.4376,-3.4376,-3.4416,-3.4389,-3.4322,-3.4322,-3.4322,-3.4322,-3.4322,-3.4322,-3.4322,-3.4322,-3.4349,-3.4349,-3.4082,-3.3948,-3.3921,-3.3614,-3.3454,-3.3414,-3.3414,-3.3414,-3.3414,-3.3414,-3.3414,-3.3414,-3.3414,-3.3414,-3.3414,-3.3414,-3.3293,-3.3053,-3.4014,-3.4605,-3.4815,-3.6466,-3.7401,-3.7598,-3.858,-3.9362,-3.9931,-3.9596,-3.9787,-4.0743,-3.9372,-3.8623,-3.8656,-3.7571,-3.6889,-3.6661,-3.6224,-3.5765,0.0,-3.5074,0.0,0.0,0.0,0.0,0.0,0.0,0.0,0.0,-3.7047,-3.7073,-3.6358,-3.5499,-3.4505,-3.345,-3.3289,-3.291,-3.1961,-3.1784,-3.1891,-3.2171,-3.2238,-3.2385,-3.2679,-3.2746,-3.2866,-3.3066,-3.332,-3.3574,-3.3694,-3.3681,-3.3494,-3.3014,-3.2628,-3.2119,-3.1781,-3.1426,-3.09,-3.0431,-3.0407,-3.0515,-3.0708,-3.0745,-3.0793,-3.0986,-3.0974,-3.0974,-3.0962,-3.0682,-3.0486,-3.0986,-3.0974,-3.0974,-3.0926,-3.0938,-3.0684,-2.9984,-2.9912,-2.9924,-3.4269,-3.4336,-3.4576,-3.4683,-3.4696,-3.4937,-3.4763,-3.4322,-3.4322,-3.4322,-3.4322,-3.4322,-3.4322,-3.4322,-3.4322,-3.4456,-3.4656,-3.4376,-3.4242,-3.4229,-3.3935,-3.3654,-3.3414,-3.3414,-3.3414,-3.3414,-3.3414,-3.3414,-3.3414,-3.3414,-3.3414,-3.3414,-3.3414,-3.3387,-3.3334,0.0,0.0,0.0,-3.6568,-3.7204,-3.8007,-3.858,-3.9557,-4.0917,-4.0558,0.0,-4.19,-4.0273,-3.9018,-3.8852,-3.7774,0.0,0.0,0.0,0.0,0.0,0.0,0.0,0.0,0.0,0.0,0.0,-3.5473,-3.5835,-3.5903,-3.6537,-3.6962,-3.7003,-3.6131,-3.5,-3.4112,-3.3533,-3.2953,-3.2579,-3.2385,-3.2492,-3.2786,-3.3013,-3.328,-3.3587,-3.3828,-3.3895,-3.3734,-3.3761,-3.3721,-3.3574,-3.3521,-3.3373,-3.3075,-3.254,-3.1743,-3.0977,-3.079,-3.0963,-3.1119,-3.1143,-3.1203,-3.1481,-3.1372,-3.1264,-3.1288,-3.1143,-3.101,-3.1022,-3.0986,-3.079,-3.101,-3.1243,-3.1488,-3.101,-3.101,-3.0938,-3.0733,-3.0733,-3.055,-3.4482,-3.475,-3.4763,-3.4763,0.0,-3.4763,-3.4589,-3.4336,-3.4629,-3.467,-3.4536,-3.4536,-3.4456,-3.4322,-3.4322,-3.4402,-3.4523,-3.4242,-3.4108,-3.4095,-3.3788,-3.3561,-3.3414,-3.3414,-3.3414,-3.3414,-3.3574,-3.3654,-3.3654,-3.3935,-3.4082,-3.4082,-3.4215,-3.4295,-3.4295,-3.5116,-3.5914,-3.6448,-3.7207,-3.782,-3.8463,-3.9236,-3.9927,-4.0917,-4.0749,0.0,0.0,0.0,0.0,0.0,0.0,0.0,0.0,-3.7396,0.0,-3.6058,-3.6027,-3.5652,-3.4914,-3.4914,-3.5119,-3.5972,-3.5971,-3.6104,-3.6405,-3.6276,-3.6231,-3.637,-3.573,-3.4941,-3.417,-3.4234,-3.4014,-3.3414,-3.3293,-3.332,-3.3587,-3.3641,-3.3761,-3.4028,-3.4095,-3.4095,-3.4108,-3.3961,-3.3908,-3.3881,-3.4002,-3.3864,-3.3045,-3.2533,-3.2047,-3.1388,-3.1206,-3.1288,-3.1529,-3.159,-3.1626,-3.1759,-3.1686,-3.1614,-3.1602,-3.1481,-3.1397,-3.1397,-3.1397,-3.1397,-3.1397,-3.1632,-3.1644,-3.1409,-3.1397,-3.1397,-3.1384,-3.1191,-3.0998,-3.4603,-3.5017,-3.4776,-3.4683,-3.467,-3.4429,-3.4322,-3.4349,-3.483,0.0,0.0,-3.4683,-3.4549,-3.4322,-3.4322,-3.4322,-3.4295,-3.4015,-3.3895,-3.3881,-3.3561,-3.344,-3.3494,-3.3494,-3.3521,-3.3587,-3.3841,-3.3961,-3.3988,-3.4456,-3.4683,-3.471,-3.4923,-3.507,-3.511,-3.6216,-3.6688,-3.6593,-3.781,-3.8418,-3.869,-3.9672,-4.0079,-4.0318,-4.0479,-4.0459,-4.0443,-3.9671,-3.9082,-3.9082,-3.834,-3.7959,-3.8324,-3.7824,-3.747,-3.7035,-3.6862,-3.6609,-3.6027,-3.6027,-3.5977,-3.6298,-3.5975,-3.5999,-3.6684,-3.6089,-3.5492,-3.5492,-3.5253,-3.4779,-3.4337,-3.4599,-3.4706,-3.4242,-3.4028,-3.3975,-3.4175,-3.4042,-3.3988,-3.4229,-3.4122,-3.4055,-3.4269,-3.4122,-3.4042,-3.4282,-3.4442,-3.4227,-3.2981,-3.2464,-3.2124,-3.1619,-3.1457,-3.1614,-3.1722,-3.1698,-3.1747,-3.1783,-3.1807,-3.1807,-3.1807,-3.1807,-3.1807,-3.1759,-3.1807,-3.1783,-3.1795,-3.1771,-3.1807,-3.1807,-3.1807,-3.1807,-3.1771,-3.1457,-3.1179,-3.4376,-3.4442,-3.4402,-3.4376,-3.4376,-3.4336,-3.4322,-3.4322,-3.4416,-3.4416,-3.4389,-3.4389,-3.4362,-3.4322,-3.4322,-3.4322,-3.4295,-3.4015,-3.3895,-3.3868,-3.3561,-3.3547,-3.3814,-3.3814,-3.3948,-3.4189,-3.4242,-3.4255,-3.4269,-3.4362,-3.4389,-3.4402,-3.4429,-3.4589,-3.5039,-3.6315,-3.6789,-3.6871,-3.7953,-3.8663,-3.8747,-3.9343,-3.9783,-4.0028,-3.981,-3.9867,-3.9641,-3.8686,-3.8134,-3.8134,-3.7562,-3.718,-3.7371,-3.7257,-3.7035,-3.6606,-3.6459,-3.6297,-3.5719,-3.5319,-3.5061,-3.4787,-3.5055,-3.528,-3.5677,-3.5491,-3.5491,-3.5491,-3.5166,-3.4898,-3.4706,-3.4531,-3.4229,-3.4002,-3.3921,-3.3908,-3.3975,-3.3948,-3.4015,-3.4282,-3.4282,-3.4242,-3.4269,-3.4255,-3.4229,-3.4295,-3.4196,-3.4056,-3.316,-3.1978,-3.1243,-3.1095,-3.1107,-3.1203,-3.1457,-3.1457,-3.1578,-3.1771,-3.1807,-3.1807,-3.1807,-3.1807,-3.1807,-3.1807,-3.1807,-3.1807,-3.1807,-3.1807,-3.1807,-3.1807,-3.1807,-3.1807,-3.1807,-3.171,-3.1662,-3.4603,-3.499,-3.4857,-3.4883,-3.5017,-3.4857,-3.479,-3.479,-3.479,-3.4523,-3.4122,-3.4242,-3.4229,-3.4108,-3.4242,-3.4322,-3.4309,-3.4175,-3.4122,-3.4108,-3.3975,-3.3988,-3.4108,-3.4122,-3.4189,-3.4322,-3.4482,-3.4563,-3.4589,-3.487,-3.503,-3.5044,-3.5191,-3.5338,-3.5471,-3.6443,-3.6938,-3.6938,-3.8053,-3.8781,-3.8896,-3.9251,-3.951,-3.9396,-3.9458,-3.9303,-3.9303,-3.8996,-3.8645,-3.8657,-3.8432,-3.8447,-3.8264,-3.8037,-3.7793,-3.7252,-3.7189,-3.6809,-3.6042,-3.5593,-3.535,-3.4889,-3.5014,-3.4963,-3.4911,-3.4826,-3.482,-3.4834,-3.4503,-3.4436,-3.4314,-3.4353,-3.4269,-3.4135,-3.4122,-3.4122,-3.4122,-3.4122,-3.4175,-3.4282,-3.4175,-3.4082,-3.4082,-3.4082,-3.4082,-3.4108,-3.391,-3.3615,-3.3269,-3.2151,-3.1433,-3.1433,-3.1445,-3.1481,-3.159,-3.1614,-3.1674,-3.1795,-3.1807,-3.1807,-3.1807,-3.1807,-3.1807,-3.1807,-3.1807,-3.1807,-3.1807,-3.1807,-3.1807,-3.1807,-3.1807,-3.1807,-3.1807,-3.1807,-3.1807,-3.491,-3.5498,-3.5284,-3.5324,-3.5511,-3.5297,-3.5204,-3.5204,-3.5191,-3.4817,-3.4269,-3.4429,-3.4389,-3.4215,-3.4416,-3.4523,-3.4509,-3.4442,-3.4416,-3.4416,-3.4349,-3.4362,-3.4416,-3.4429,-3.4456,-3.4536,-3.4763,-3.4857,-3.491,-3.5311,-3.5538,-3.5551,-3.5765,-3.5872,-3.5872,-3.6516,-3.6731,-3.6717,-3.8056,-3.8568,-3.8501,-3.893,-3.8989,-3.883,-3.8913,-3.8882,-3.8898,-3.9064,-3.9034,-3.8807,-3.9018,-3.9049,-3.8807,-3.8627,-3.8334,-3.7903,-3.7633,-3.7027,-3.6134,-3.5627,-3.5318,-3.4707,-3.4707,-3.4503,-3.4082,-3.4098,-3.4041,-3.4136,-3.4031,-3.3975,-3.3935,-3.4148,-3.4295,-3.4242,-3.4215,-3.4148,-3.4122,-3.4122,-3.4108,-3.4082,-3.3921,-3.3801,-3.3868,-3.3895,-3.3961,-3.397,-3.3499,-3.3256,-3.3248,-3.2447,-3.1807,-3.1807,-3.1807,-3.1783,-3.1807,-3.1795,-3.1795,-3.1807,-3.1807,-3.1807,-3.1807,-3.1807,-3.1807,-3.1807,-3.1807,-3.1807,-3.1807,-3.1807,-3.1807,-3.1807,-3.1807,-3.1807,-3.1807,-3.1807,-3.1807,-3.5177,-3.5231,-3.5244,-3.5204,-3.5284,-3.5244,-3.5244,-3.5244,-3.5217,-3.5164,-3.511,-3.511,-3.511,-3.5084,-3.5097,-3.5124,-3.5097,-3.4843,-3.4736,-3.4696,-3.4442,-3.4456,-3.471,-3.4723,-3.4857,-3.507,-3.5124,-3.5137,-3.5137,-3.5204,-3.5244,-3.5231,-3.5257,-3.5297,-3.5284,-3.5918,-3.6129,-3.6129,-3.6983,-3.7504,-3.7448,-3.7899,-3.8177,-3.7832,-3.8163,-3.8222,-3.8207,-3.7957,-3.7825,-3.778,-3.7839,-3.7825,-3.7795,-3.7825,-3.7607,-3.7548,-3.7143,-3.6215,-3.4922,-3.4446,-3.4136,-3.3695,-3.3748,-3.3561,-3.3561,-3.348,-3.3547,-3.3801,-3.4108,-3.4095,-3.3948,-3.4122,-3.4162,-3.3948,-3.3948,-3.3828,-3.3614,-3.3494,-3.3494,-3.3494,-3.3587,-3.3574,-3.3868,-3.3948,-3.4135,-3.4576,-3.3836,-3.3434,-3.3485,-3.2447,-3.1807,-3.1807,-3.1807,-3.1807,-3.1807,-3.1807,-3.1807,-3.1807,-3.1807,-3.1807,-3.1807,-3.1807,-3.1807,-3.1807,-3.1807,-3.1807,-3.1807,-3.1807,-3.1807,-3.1807,-3.1807,-3.1807,-3.1807,-3.1807,-3.1807,-3.5658,-3.5965,-3.5965,-3.6072,-3.6219,-3.6219,-3.6233,-3.6219,-3.6219,-3.6219,-3.6219,-3.6219,-3.5952,-3.5471,-3.5631,-3.5712,-3.5698,-3.5404,-3.5271,-3.5244,-3.4977,-3.491,-3.5004,-3.503,-3.5084,-3.5191,-3.5204,-3.5204,-3.5204,-3.5204,-3.5204,-3.5204,-3.5204,-3.5204,-3.5191,-3.5415,-3.5612,-3.5626,-3.5945,-3.5999,-3.6224,-3.7011,-3.7589,-3.7306,-3.7372,-3.7509,-3.7939,-3.7968,-3.7924,-3.8178,-3.8324,-3.8339,-3.8148,-3.7928,-3.7649,-3.7256,-3.6251,-3.5484,-3.4966,-3.4422,-3.4151,-3.3948,-3.3948,-3.3948,-3.3948,-3.3948,-3.4015,-3.4095,-3.3935,-3.3721,-3.3641,-3.3721,-3.3734,-3.3654,-3.3774,-3.3841,-3.3721,-3.3841,-3.3948,-3.3948,-3.3948,-3.3975,-3.4135,-3.4295,-3.4563,-3.4727,-3.4082,-3.3511,-3.3511,-3.2447,-3.1807,-3.1807,-3.1807,-3.1807,-3.1807,-3.1807,-3.1807,-3.1807,-3.1807,-3.1807,-3.1807,-3.1807,-3.1807,-3.1807,-3.1807,-3.1807,-3.1807,-3.1807,-3.1807,-3.1807,-3.1807,-3.1807,-3.1807,-3.1807,-3.1807,-3.6233,-3.6593,-3.662,-3.674,-3.6941,-3.6941,-3.6941,-3.6941,-3.6941,-3.6941,-3.6941,-3.6941,-3.6593,-3.6086,-3.6219,-3.6313,-3.6273,-3.6006,-3.5872,-3.5832,-3.5565,-3.5431,-3.5431,-3.5351,-3.5311,-3.5297,-3.5231,-3.5204,-3.5204,-3.5204,-3.5204,-3.5204,-3.5204,-3.5204,-3.5204,-3.5204,-3.5204,-3.5204,-3.5204,-3.5231,-3.5549,-3.6361,-3.6744,-3.6691,-3.6859,-3.7068,-3.7501,-3.791,-3.8149,-3.835,-3.8554,-3.8583,-3.835,-3.7695,-3.7387,-3.6952,-3.5844,-3.5267,-3.5061,-3.4568,-3.4322,-3.4322,-3.4322,-3.4322,-3.4322,-3.4322,-3.4322,-3.4282,-3.3921,-3.3694,-3.3668,-3.3668,-3.3654,-3.3681,-3.3881,-3.4002,-3.4015,-3.4202,-3.4295,-3.4322,-3.4269,-3.4402,-3.4563,-3.4817,-3.5097,-3.5059,-3.4263,-3.3574,-3.3311,-3.266,-3.1807,-3.1807,-3.1807,-3.1807,-3.1807,-3.1807,-3.1807,-3.1807,-3.1807,-3.1807,-3.1807,-3.1807,-3.1807,-3.1807,-3.1807,-3.1807,-3.1807,-3.1807,-3.1807,-3.1807,-3.1807,-3.1807,-3.1807,-3.1807,-3.1807,-3.6901,-3.6901,-3.6914,-3.6914,-3.6941,-3.6941,-3.6941,-3.6941,-3.6941,-3.6941,-3.6941,-3.6941,-3.6914,-3.6807,-3.6794,-3.6874,-3.6847,-3.6553,-3.642,-3.638,-3.6112,-3.6019,-3.6006,-3.5752,-3.5591,-3.5511,-3.5297,-3.5204,-3.5204,-3.5204,-3.5204,-3.5204,-3.5217,-3.5217,-3.5231,-3.5244,-3.5217,-3.5257,-3.5257,-3.5351,-3.5578,-3.5631,-3.5937,-3.6115,-3.6663,-3.6873,-3.7068,-3.7501,-3.7709,-3.7695,-3.7724,-3.7709,-3.7695,-3.7277,-3.6635,-3.6188,-3.5732,-3.536,-3.4918,-3.4509,-3.4362,-3.4349,-3.4389,-3.4349,-3.4402,-3.4402,-3.4402,-3.4336,-3.4336,-3.4282,-3.4269,-3.4202,-3.4202,-3.4215,-3.4269,-3.4295,-3.4309,-3.4389,-3.4336,-3.4389,-3.4469,-3.467,-3.5097,-3.5418,-3.5498,-3.5325,-3.451,-3.3778,-3.3349,-3.2447,-3.1807,-3.1807,-3.1807,-3.1807,-3.1807,-3.1807,-3.1807,-3.1807,-3.1807,-3.1807,-3.1807,-3.1807,-3.1807,-3.1807,-3.1807,-3.1807,-3.1807,-3.1807,-3.1807,-3.1807,-3.1807,-3.1807,-3.1807,-3.1807,-3.1807,-3.6941,-3.6941,-3.6941,-3.6941,-3.6941,-3.6941,-3.6941,-3.6941,-3.6941,-3.6941,-3.6941,-3.6941,-3.6834,-3.666,-3.666,-3.6767,-3.6901,-3.6633,-3.6513,-3.646,-3.6019,-3.5792,-3.5752,-3.5485,-3.5351,-3.5338,-3.5244,-3.5204,-3.5204,-3.5204,-3.5204,-3.5231,-3.5378,-3.5471,-3.5498,-3.5672,-3.5752,-3.5752,-3.5765,-3.5805,-3.5899,-3.5912,-3.6073,-3.5966,-3.5991,-3.6224,-3.6243,-3.6453,-3.6859,-3.7068,-3.7277,-3.7277,-3.7068,-3.6649,-3.6033,-3.5612,-3.5307,-3.5254,-3.503,-3.495,-3.4883,-3.4883,-3.4883,-3.4857,-3.4883,-3.4883,-3.4883,-3.487,-3.487,-3.4883,-3.4803,-3.4549,-3.4322,-3.4336,-3.4482,-3.4603,-3.4683,-3.491,-3.5151,-3.5177,-3.5297,-3.5485,-3.5418,-3.5565,-3.5551,-3.5179,-3.4289,-3.3825,-3.3336,-3.2447,-3.1807,-3.1807,-3.1807,-3.1807,-3.1807,-3.1807,-3.1807,-3.1807,-3.1807,-3.1807,-3.1807,-3.1807,-3.1807,-3.1807,-3.1807,-3.1807,-3.1807,-3.1807,-3.1807,-3.1807,-3.1807,-3.1807,-3.1807,-3.1807,-3.1807,-3.6794,-3.678,-3.67,-3.666,-3.666,-3.666,-3.666,-3.666,-3.666,-3.666,-3.666,-3.666,-3.6553,-3.638,-3.6366,-3.646,-3.6633,-3.6446,-3.6366,-3.6326,-3.5952,-3.5765,-3.5725,-3.5471,-3.5338,-3.5338,-3.5338,-3.5338,-3.5351,-3.5431,-3.5485,-3.5498,-3.5685,-3.5765,-3.5805,-3.5979,-3.6072,-3.6072,-3.6072,-3.6099,-3.6193,-3.6219,-3.6206,-3.6179,-3.6019,-3.5993,-3.6135,-3.6108,-3.6491,-3.6816,-3.6802,-3.655,-3.6243,-3.6033,-3.5612,-3.5204,-3.5191,-3.5204,-3.5204,-3.5204,-3.5191,-3.5191,-3.5191,-3.5204,-3.5204,-3.5204,-3.5204,-3.5204,-3.5204,-3.5204,-3.5124,-3.483,-3.4603,-3.4616,-3.4776,-3.491,-3.4923,-3.5244,-3.5418,-3.5444,-3.5551,-3.5658,-3.5658,-3.5631,-3.5551,-3.5351,-3.4489,-3.3825,-3.3523,-3.266,-3.2069,-3.1916,-3.1952,-3.2012,-3.2097,-3.2169,-3.1952,-3.1904,-3.1879,-3.1855,-3.1867,-3.1855,-3.1843,-3.1831,-3.1807,-3.1807,-3.1807,-3.1807,-3.1807,-3.1807,-3.1807,-3.1807,-3.1807,-3.1807,-3.1807,-3.65,-3.6473,-3.6206,-3.6126,-3.6153,-3.6153,-3.6099,-3.6139,-3.6126,-3.6166,-3.6193,-3.6126,-3.6139,-3.6072,-3.6072,-3.6072,-3.6059,-3.6059,-3.6099,-3.6099,-3.6032,-3.6006,-3.5979,-3.5712,-3.5631,-3.5685,-3.5658,-3.5658,-3.5725,-3.5952,-3.6086,-3.6086,-3.6126,-3.6193,-3.6112,-3.6193,-3.6166,-3.6179,-3.6193,-3.6259,-3.6473,-3.6513,-3.6513,-3.65,-3.6487,-3.6353,-3.6086,-3.6477,-3.6744,-3.6525,-3.6498,-3.6135,-3.5522,-3.5244,-3.5217,-3.5231,-3.5217,-3.5204,-3.5204,-3.5204,-3.5204,-3.5204,-3.5204,-3.5204,-3.5204,-3.5204,-3.5204,-3.5204,-3.5204,-3.5204,-3.5204,-3.5137,-3.511,-3.5177,-3.5137,-3.5137,-3.5164,-3.5204,-3.5231,-3.5297,-3.5391,-3.5364,-3.5551,-3.5672,-3.5658,-3.5391,-3.4964,-3.4497,-3.3689,-3.301,-3.2607,-3.2336,-3.2205,-3.2254,-3.2423,-3.2555,-3.2254,-3.2012,-3.1988,-3.1964,-3.2024,-3.2024,-3.1988,-3.1964,-3.1831,-3.1819,-3.1807,-3.1807,-3.1807,-3.1807,-3.1807,-3.1819,-3.1807,-3.1807,-3.1807,-3.6206,-3.6206,-3.6112,-3.6072,-3.6072,-3.6072,-3.6072,-3.6072,-3.6072,-3.6072,-3.6072,-3.6072,-3.5965,-3.5805,-3.5765,-3.5672,-3.5498,-3.5672,-3.5872,-3.6019,-3.5872,-3.5792,-3.5765,-3.5672,-3.5845,-3.6179,-3.6233,-3.634,-3.65,-3.6607,-3.6674,-3.67,-3.6874,-3.6967,-3.6954,-3.6967,-3.6967,-3.6941,-3.6767,-3.6727,-3.6807,-3.6794,-3.6807,-3.6807,-3.6807,-3.6754,-3.666,-3.6504,-3.6262,-3.6154,-3.6154,-3.61,-3.5792,-3.5605,-3.5498,-3.5471,-3.5297,-3.5204,-3.5204,-3.5204,-3.5217,-3.5204,-3.5204,-3.5204,-3.5204,-3.5217,-3.5217,-3.5217,-3.5204,-3.5204,-3.5204,-3.5204,-3.5231,-3.5204,-3.5204,-3.5204,-3.5217,-3.5364,-3.5578,-3.5765,-3.5805,-3.5765,-3.5698,-3.5765,-3.5832,-3.5698,-3.5362,-3.4769,-3.4083,-3.3575,-3.3001,-3.2677,-3.2483,-3.2507,-3.2664,-3.2748,-3.2592,-3.2374,-3.229,-3.2181,-3.2217,-3.2217,-3.2181,-3.2097,-3.1952,-3.1891,-3.1867,-3.1867,-3.1916,-3.1843,-3.1843,-3.1831,-3.1819,-3.1807,-3.1807,-3.5912,-3.5899,-3.5792,-3.5738,-3.5752,-3.5752,-3.5752,-3.5752,-3.5752,-3.5805,-3.5885,-3.5912,-3.5885,-3.5805,-3.5792,-3.5698,-3.5551,-3.5725,-3.5899,-3.6032,-3.5899,-3.5792,-3.5792,-3.5792,-3.5952,-3.6299,-3.6446,-3.6593,-3.678,-3.6887,-3.6994,-3.7128,-3.7288,-3.7422,-3.7529,-3.7529,-3.7502,-3.7368,-3.7195,-3.7048,-3.6954,-3.6941,-3.6941,-3.6941,-3.6941,-3.6941,-3.6901,-3.658,-3.634,-3.6233,-3.6139,-3.6072,-3.6059,-3.5885,-3.5792,-3.5765,-3.5645,-3.5525,-3.5525,-3.5551,-3.5525,-3.5525,-3.5525,-3.5525,-3.5525,-3.5525,-3.5525,-3.5525,-3.5538,-3.5525,-3.5538,-3.5525,-3.5525,-3.5525,-3.5311,-3.5217,-3.5231,-3.5458,-3.5672,-3.5845,-3.5965,-3.5952,-3.5912,-3.5912,-3.6006,-3.5859,-3.5737,-3.5193,-3.4542,-3.4094,-3.3503,-3.3127,-3.2736,-3.2797,-3.2881,-3.2917,-3.2917,-3.2785,-3.2664,-3.2531,-3.2471,-3.2459,-3.2435,-3.2133,-3.2013,-3.2254,-3.2229,-3.2205,-3.2205,-3.2073,-3.194,-3.1916,-3.1904,-3.1831,-3.1807,-3.5605,-3.5565,-3.5311,-3.5271,-3.5284,-3.5297,-3.5351,-3.5311,-3.5324,-3.5498,-3.5658,-3.5738,-3.5832,-3.6019,-3.6019,-3.6006,-3.6059,-3.6072,-3.6099,-3.6139,-3.6126,-3.6153,-3.6099,-3.6099,-3.6193,-3.6326,-3.6513,-3.662,-3.6794,-3.6981,-3.7128,-3.7382,-3.7475,-3.7582,-3.7796,-3.7836,-3.7729,-3.7542,-3.7408,-3.7221,-3.7008,-3.6981,-3.6981,-3.6994,-3.7034,-3.7061,-3.7061,-3.7008,-3.6847,-3.654,-3.6313,-3.6206,-3.6153,-3.6112,-3.6099,-3.6086,-3.6086,-3.6019,-3.6046,-3.5979,-3.5992,-3.5979,-3.5979,-3.6072,-3.5992,-3.5952,-3.5952,-3.5965,-3.5979,-3.6019,-3.6006,-3.5992,-3.6006,-3.5992,-3.5618,-3.5364,-3.5284,-3.5525,-3.5712,-3.5752,-3.5899,-3.6059,-3.6032,-3.6086,-3.6112,-3.6112,-3.6153,-3.5567,-3.4914,-3.4541,-3.3896,-3.3531,-3.3211,-3.3038,-3.3123,-3.3123,-3.3123,-3.3074,-3.2978,-3.2881,-3.2748,-3.2724,-3.2688,-3.2385,-3.2301,-3.2555,-3.2543,-3.2459,-3.2386,-3.2278,-3.2169,-3.2073,-3.2036,-3.2024,-3.194,-3.5311,-3.5297,-3.5217,-3.5324,-3.5498,-3.5511,-3.5645,-3.5819,-3.5832,-3.5859,-3.5952,-3.5965,-3.6006,-3.6072,-3.6086,-3.6072,-3.6153,-3.6299,-3.6393,-3.6433,-3.662,-3.6567,-3.6433,-3.6406,-3.6607,-3.6941,-3.7021,-3.7261,-3.7462,-3.7448,-3.7569,-3.7702,-3.7863,-3.8036,-3.8143,-3.813,-3.8116,-3.7969,-3.7569,-3.7368,-3.7288,-3.7261,-3.7261,-3.7288,-3.7448,-3.7555,-3.7569,-3.7582,-3.7328,-3.6861,-3.6754,-3.6714,-3.666,-3.65,-3.6393,-3.6366,-3.6206,-3.6086,-3.6086,-3.6099,-3.6086,-3.6072,-3.6126,-3.6072,-3.6072,-3.6072,-3.6072,-3.6072,-3.6072,-3.6099,-3.6086,-3.6099,-3.6086,-3.6059,-3.5939,-3.5832,-3.5819,-3.5899,-3.5952,-3.5965,-3.6046,-3.6112,-3.6166,-3.6273,-3.638,-3.642,-3.6527,-3.6427,-3.5495,-3.5067,-3.465,-3.4073,-3.3714,-3.3527,-3.3328,-3.334,-3.334,-3.3316,-3.3255,-3.3231,-3.3099,-3.3014,-3.2954,-3.3102,-3.2748,-3.2736,-3.2883,-3.281,-3.275,-3.2531,-3.2459,-3.241,-3.2423,-3.241,-3.2049,-3.5565,-3.5565,-3.5565,-3.5658,-3.5805,-3.5819,-3.5912,-3.6046,-3.6072,-3.6153,-3.6233,-3.6259,-3.6313,-3.6433,-3.6446,-3.6433,-3.646,-3.6607,-3.6687,-3.6714,-3.6847,-3.6821,-3.6714,-3.67,-3.6874,-3.7141,-3.7195,-3.7261,-3.7382,-3.7448,-3.7502,-3.7635,-3.7929,-3.8116,-3.8263,-3.8397,-3.8384,-3.8223,-3.7903,-3.7702,-3.7582,-3.7569,-3.7569,-3.7582,-3.7742,-3.7809,-3.7809,-3.7809,-3.7582,-3.7221,-3.7114,-3.7074,-3.6941,-3.678,-3.6687,-3.6674,-3.6513,-3.6433,-3.6433,-3.6433,-3.6433,-3.6446,-3.6433,-3.6433,-3.6446,-3.6433,-3.6433,-3.646,-3.6446,-3.6446,-3.6446,-3.6433,-3.6433,-3.646,-3.6433,-3.634,-3.6112,-3.6166,-3.6246,-3.6273,-3.6353,-3.6433,-3.6433,-3.6593,-3.666,-3.6714,-3.6794,-3.6432,-3.6015,-3.5831,-3.5164,-3.4495,-3.4048,-3.3812,-3.3364,-3.3364,-3.3364,-3.3364,-3.3364,-3.3364,-3.3316,-3.3219,-3.3183,-3.3321,-3.2978,-3.2905,-3.3102,-3.3078,-3.309,-3.2857,-3.2797,-3.2712,-3.2676,-3.27,-3.2567,-3.6072,-3.6072,-3.6072,-3.6086,-3.6112,-3.6112,-3.6166,-3.6179,-3.6219,-3.634,-3.6513,-3.654,-3.666,-3.6941,-3.6834,-3.6914,-3.6901,-3.6874,-3.6901,-3.6914,-3.6941,-3.6914,-3.6901,-3.6887,-3.6914,-3.6981,-3.6954,-3.7008,-3.7114,-3.7074,-3.7181,-3.7515,-3.7782,-3.7996,-3.8263,-3.8544,-3.8544,-3.837,-3.8237,-3.8063,-3.7903,-3.7863,-3.7863,-3.7876,-3.7969,-3.801,-3.7983,-3.7943,-3.7809,-3.7502,-3.7448,-3.7315,-3.7088,-3.7048,-3.7048,-3.7034,-3.6994,-3.6941,-3.6954,-3.6901,-3.6901,-3.6861,-3.6874,-3.6941,-3.6874,-3.6834,-3.6861,-3.6927,-3.6981,-3.6981,-3.7034,-3.7034,-3.6981,-3.6954,-3.6954,-3.6714,-3.6366,-3.6393,-3.6553,-3.6553,-3.678,-3.6901,-3.6941,-3.6941,-3.6927,-3.6821,-3.6901,-3.6706,-3.6498,-3.6054,-3.5387,-3.4718,-3.4259,-3.4035,-3.3588,-3.3364,-3.3364,-3.3364,-3.3364,-3.3364,-3.3364,-3.3328,-3.334,-3.3292,-3.3171,-3.3159,-3.3219,-3.3219,-3.3183,-3.3135,-3.3038,-3.2905,-3.2797,-3.2881,-3.2821,-3.6072,-3.6072,-3.6072,-3.6206,-3.6393,-3.642,-3.654,-3.6727,-3.674,-3.674,-3.6834,-3.6834,-3.6874,-3.6941,-3.6941,-3.6941,-3.6941,-3.6941,-3.6941,-3.6941,-3.6941,-3.6941,-3.6954,-3.6981,-3.6954,-3.6967,-3.6954,-3.7061,-3.7221,-3.7301,-3.7422,-3.7702,-3.7956,-3.8183,-3.829,-3.8557,-3.8704,-3.8584,-3.8397,-3.8263,-3.8197,-3.817,-3.817,-3.8183,-3.837,-3.8504,-3.8517,-3.8531,-3.837,-3.8103,-3.7863,-3.7702,-3.7595,-3.7569,-3.7569,-3.7515,-3.7382,-3.7288,-3.7248,-3.7101,-3.6954,-3.6994,-3.7021,-3.6941,-3.6941,-3.6981,-3.7074,-3.7208,-3.7288,-3.7368,-3.7515,-3.7609,-3.7489,-3.7342,-3.7275,-3.7155,-3.6861,-3.6794,-3.6821,-3.6847,-3.6874,-3.6941,-3.6941,-3.6941,-3.6941,-3.6941,-3.6941,-3.6941,-3.6719,-3.6276,-3.5831,-3.5151,-3.4705,-3.4271,-3.3824,-3.36,-3.3364,-3.3364,-3.3364,-3.3364,-3.3364,-3.3364,-3.3364,-3.3364,-3.3352,-3.3364,-3.3364,-3.3364,-3.328,-3.328,-3.3268,-3.3159,-3.3086,-3.3123,-3.3086,-3.6473,-3.6473,-3.6473,-3.6567,-3.6687,-3.67,-3.6794,-3.6914,-3.6941,-3.6941,-3.6941,-3.6941,-3.6941,-3.6941,-3.6941,-3.6941,-3.6941,-3.6941,-3.7021,-3.7114,-3.7155,-3.7221,-3.7342,-3.7328,-3.7301,-3.7195,-3.7301,-3.7448,-3.7555,-3.7595,-3.7662,-3.7823,-3.8116,-3.8223,-3.8303,-3.8571,-3.8704,-3.8691,-3.8571,-3.8477,-3.8477,-3.8477,-3.8477,-3.8477,-3.8638,-3.8718,-3.8704,-3.8704,-3.8624,-3.8477,-3.8317,-3.809,-3.7863,-3.7823,-3.7823,-3.7769,-3.7689,-3.7582,-3.7529,-3.7448,-3.7368,-3.7328,-3.7342,-3.7355,-3.7355,-3.7355,-3.7408,-3.7542,-3.7595,-3.7662,-3.7796,-3.7809,-3.7716,-3.7649,-3.7582,-3.7502,-3.7342,-3.7114,-3.6941,-3.6941,-3.6927,-3.6941,-3.6941,-3.6994,-3.6954,-3.6967,-3.6941,-3.6941,-3.6941,-3.6498,-3.6276,-3.5609,-3.5164,-3.4495,-3.4048,-3.36,-3.3364,-3.3364,-3.3364,-3.3364,-3.3364,-3.3364,-3.3364,-3.3364,-3.3364,-3.3364,-3.3364,-3.3364,-3.3364,-3.334,-3.3328,-3.3352,-3.334,-3.3268,-3.3231,-3.6941,-3.6941,-3.6941,-3.6941,-3.6941,-3.6927,-3.6927,-3.6941,-3.6941,-3.6941,-3.6941,-3.6941,-3.6941,-3.6941,-3.6941,-3.6954,-3.7034,-3.7114,-3.7275,-3.7422,-3.7448,-3.7555,-3.7702,-3.7769,-3.7756,-3.7555,-3.7649,-3.7782,-3.7863,-3.7903,-3.7956,-3.801,-3.821,-3.837,-3.8424,-3.8624,-3.8825,-3.8825,-3.8891,-3.8891,-3.8891,-3.8878,-3.8878,-3.8798,-3.8718,-3.8718,-3.8718,-3.8718,-3.8704,-3.8718,-3.8718,-3.8437,-3.8116,-3.7956,-3.7956,-3.7969,-3.7943,-3.7889,-3.7863,-3.7809,-3.7756,-3.7809,-3.7796,-3.7796,-3.7769,-3.7756,-3.7782,-3.7876,-3.7943,-3.801,-3.7956,-3.8036,-3.7983,-3.7903,-3.7876,-3.7863,-3.7729,-3.7355,-3.7181,-3.7128,-3.7221,-3.7248,-3.7168,-3.7155,-3.7061,-3.6994,-3.6967,-3.6941,-3.6941,-3.6719,-3.6498,-3.6276,-3.5609,-3.4941,-3.4271,-3.36,-3.3376,-3.3364,-3.3364,-3.3364,-3.3364,-3.3364,-3.3364,-3.3364,-3.3364,-3.3364,-3.3364,-3.3364,-3.3364,-3.3364,-3.3364,-3.3364,-3.3364,-3.3364,-3.3352,-3.6941,-3.6941,-3.6941,-3.6941,-3.6941,-3.6941,-3.6941,-3.6941,-3.6941,-3.6941,-3.6954,-3.6941,-3.6967,-3.6967,-3.6941,-3.7074,-3.7315,-3.7475,-3.7649,-3.7742,-3.7769,-3.7863,-3.7969,-3.821,-3.821,-3.8063,-3.8036,-3.8076,-3.817,-3.8197,-3.8384,-3.8544,-3.8638,-3.8678,-3.8758,-3.8918,-3.9092,-3.9118,-3.9252,-3.9359,-3.9359,-3.9359,-3.9265,-3.9092,-3.8918,-3.8798,-3.8744,-3.8731,-3.8718,-3.8718,-3.8718,-3.8651,-3.8544,-3.8504,-3.8504,-3.845,-3.829,-3.8183,-3.817,-3.7983,-3.7849,-3.7809,-3.7876,-3.7863,-3.7849,-3.7863,-3.801,-3.8183,-3.8384,-3.8531,-3.8571,-3.8477,-3.8397,-3.8277,-3.817,-3.8103,-3.7903,-3.7769,-3.7676,-3.7676,-3.7676,-3.7595,-3.7475,-3.7355,-3.7288,-3.7181,-3.7101,-3.7008,-3.6941,-3.6719,-3.6706,-3.6276,-3.6054,-3.5164,-3.4495,-3.3824,-3.3364,-3.3364,-3.3364,-3.3364,-3.3364,-3.3364,-3.3364,-3.3364,-3.3364,-3.3364,-3.3364,-3.3364,-3.3364,-3.3364,-3.3364,-3.3364,-3.3364,-3.3364,-3.3364,-3.7162,-3.6941,-3.6941,-3.6941,-3.6941,-3.6941,-3.6941,-3.6941,-3.6941,-3.7034,-3.7141,-3.7181,-3.7261,-3.7355,-3.7395,-3.7489,-3.7635,-3.7729,-3.7903,-3.801,-3.8197,-3.8384,-3.8504,-3.8798,-3.8931,-3.8931,-3.8811,-3.8678,-3.8744,-3.8905,-3.8985,-3.9132,-3.9172,-3.9172,-3.9199,-3.9306,-3.9386,-3.9439,-3.9533,-3.9613,-3.9613,-3.9613,-3.9506,-3.9386,-3.9239,-3.9105,-3.8958,-3.8945,-3.8865,-3.8758,-3.8718,-3.8718,-3.8718,-3.8718,-3.8718,-3.8691,-3.8571,-3.8491,-3.8491,-3.8344,-3.8303,-3.8303,-3.8277,-3.829,-3.8277,-3.8317,-3.833,-3.8477,-3.8571,-3.8718,-3.8691,-3.8718,-3.8638,-3.8544,-3.8491,-3.841,-3.833,-3.8277,-3.8237,-3.8183,-3.7956,-3.7809,-3.7742,-3.7635,-3.7529,-3.7395,-3.7261,-3.7141,-3.7021,-3.7021,-3.6839,-3.6537,-3.6315,-3.5609,-3.4718,-3.4271,-3.3588,-3.3588,-3.3364,-3.3364,-3.3364,-3.3364,-3.3364,-3.3364,-3.3364,-3.3364,-3.3364,-3.3364,-3.3364,-3.3364,-3.3364,-3.3364,-3.3364,-3.3364,-3.3364,-3.7604,-3.7162,-3.6927,-3.6967,-3.7021,-3.7034,-3.7074,-3.7101,-3.7141,-3.7261,-3.7448,-3.7475,-3.7595,-3.7769,-3.7876,-3.7929,-3.7983,-3.8063,-3.8317,-3.8584,-3.8784,-3.9038,-3.9252,-3.9452,-3.9519,-3.9439,-3.9559,-3.9533,-3.9292,-3.9386,-3.9546,-3.9533,-3.9573,-3.9599,-3.9573,-3.9626,-3.9666,-3.9706,-3.976,-3.9773,-3.9773,-3.972,-3.968,-3.9653,-3.964,-3.9466,-3.9265,-3.9239,-3.9145,-3.8998,-3.8878,-3.8825,-3.8798,-3.8758,-3.8731,-3.8718,-3.8718,-3.8718,-3.8704,-3.8691,-3.8624,-3.8611,-3.8691,-3.8704,-3.8691,-3.8624,-3.8678,-3.8718,-3.8718,-3.8718,-3.8718,-3.8718,-3.8718,-3.8704,-3.8691,-3.8704,-3.8664,-3.8624,-3.8584,-3.845,-3.8183,-3.8103,-3.809,-3.7956,-3.7849,-3.7742,-3.7609,-3.7462,-3.7342,-3.7288,-3.7038,-3.6879,-3.6577,-3.5844,-3.5164,-3.4495,-3.4035,-3.3812,-3.3588,-3.3364,-3.3364,-3.3364,-3.3364,-3.3364,-3.3364,-3.3364,-3.3364,-3.3364,-3.3364,-3.3364,-3.3364,-3.3364,-3.3364,-3.3364,-3.3364,-3.7825,-3.7604,-3.7162,-3.7088,-3.7315,-3.7328,-3.7475,-3.7676,-3.7662,-3.7729,-3.7756,-3.7769,-3.7796,-3.7956,-3.817,-3.8384,-3.8611,-3.8825,-3.9025,-3.9252,-3.9399,-3.9479,-3.9546,-3.9573,-3.9693,-3.9746,-3.9907,-3.98,-3.9666,-3.9653,-3.9653,-3.9666,-3.9706,-3.9626,-3.9746,-3.9893,-3.9974,-4.0027,-4.0227,-4.0334,-4.0294,-4.0094,-4.0,-3.992,-3.9786,-3.9626,-3.9573,-3.9546,-3.9479,-3.9426,-3.9212,-3.9118,-3.9065,-3.8851,-3.8744,-3.8718,-3.8718,-3.8718,-3.8718,-3.8718,-3.8718,-3.8718,-3.8718,-3.8718,-3.8718,-3.8718,-3.8718,-3.8718,-3.8718,-3.8718,-3.8718,-3.8718,-3.8718,-3.8718,-3.8718,-3.8718,-3.8718,-3.8718,-3.8718,-3.8704,-3.8437,-3.8491,-3.8544,-3.8357,-3.8183,-3.8076,-3.7956,-3.7796,-3.7649,-3.7555,-3.7502,-3.7131,-3.7025,-3.6275,-3.5725,-3.5042,-3.4756,-3.4296,-3.3824,-3.36,-3.3588,-3.3588,-3.3364,-3.3364,-3.3364,-3.3364,-3.3364,-3.3364,-3.3364,-3.3364,-3.3364,-3.3364,-3.3364,-3.3364,-3.3364,-3.8918,-3.8099,-3.7592,-3.7502,-3.7622,-3.7622,-3.7702,-3.7796,-3.7809,-3.7916,-3.8036,-3.8063,-3.8237,-3.8544,-3.8891,-3.9078,-3.9239,-3.9346,-3.9466,-3.9653,-3.976,-3.984,-3.9893,-4.0014,-4.0094,-4.0094,-4.0187,-4.0241,-4.0107,-4.008,-4.0094,-4.008,-4.0094,-4.012,-4.004,-4.0201,-4.0267,-4.0321,-4.0401,-4.0468,-4.0441,-4.0361,-4.0281,-4.0267,-4.0147,-4.0014,-3.988,-3.984,-3.9746,-3.964,-3.9452,-3.9412,-3.9386,-3.9279,-3.9172,-3.8972,-3.8972,-3.8891,-3.8758,-3.8731,-3.8718,-3.8718,-3.8718,-3.8718,-3.8718,-3.8718,-3.8718,-3.8718,-3.8718,-3.8718,-3.8718,-3.8718,-3.8718,-3.8718,-3.8718,-3.8718,-3.8718,-3.8718,-3.8718,-3.8718,-3.8718,-3.8718,-3.8718,-3.8597,-3.8397,-3.825,-3.8143,-3.8023,-3.7863,-3.7729,-3.7689,-3.7649,-3.7317,-3.6999,-3.6419,-3.588,-3.5553,-3.5055,-3.4284,-3.406,-3.3824,-3.3812,-3.3588,-3.3364,-3.3364,-3.3364,-3.3364,-3.3364,-3.3364,-3.3364,-3.3364,-3.3364,-3.3364,-3.3364,-3.3364,-4.0081,-3.8968,-3.8276,-3.8089,-3.7929,-3.7929,-3.7983,-3.805,-3.8157,-3.829,-3.8464,-3.8584,-3.8878,-3.9212,-3.9452,-3.9559,-3.9693,-3.9706,-3.976,-3.988,-4.0014,-4.012,-4.0187,-4.0361,-4.0441,-4.0481,-4.0414,-4.0428,-4.0441,-4.0441,-4.0414,-4.0481,-4.0388,-4.0428,-4.0454,-4.0441,-4.0441,-4.0441,-4.0454,-4.0481,-4.0468,-4.0481,-4.0468,-4.0468,-4.0454,-4.0374,-4.0187,-4.0147,-4.0014,-3.9907,-3.976,-3.9706,-3.9693,-3.9573,-3.9452,-3.9292,-3.9265,-3.9132,-3.8931,-3.8798,-3.8731,-3.8718,-3.8718,-3.8718,-3.8718,-3.8718,-3.8718,-3.8718,-3.8718,-3.8718,-3.8718,-3.8718,-3.8718,-3.8718,-3.8718,-3.8718,-3.8718,-3.8718,-3.8718,-3.8718,-3.8718,-3.8718,-3.8718,-3.8718,-3.8597,-3.8437,-3.8317,-3.8237,-3.8116,-3.7983,-3.7943,-3.7929,-3.7769,-3.745,-3.7131,-3.6536,-3.6181,-3.563,-3.5093,-3.4383,-3.442,-3.3885,-3.3364,-3.3364,-3.3388,-3.3364,-3.3364,-3.3364,-3.3364,-3.3364,-3.3364,-3.3364,-3.3364,-3.3364,-3.3364,-4.1383,-4.0602,-3.9325,-3.8492,-3.8263,-3.8223,-3.841,-3.8678,-3.8931,-3.9025,-3.9078,-3.9346,-3.9466,-3.9586,-3.9666,-3.9813,-4.0,-4.0014,-4.012,-4.0294,-4.0428,-4.0401,-4.0414,-4.0441,-4.0481,-4.0481,-4.0481,-4.0481,-4.0481,-4.0481,-4.0481,-4.0481,-4.0481,-4.0481,-4.0481,-4.0481,-4.0481,-4.0481,-4.0481,-4.0481,-4.0481,-4.0481,-4.0481,-4.0481,-4.0481,-4.0468,-4.0441,-4.0401,-4.0374,-4.0294,-4.012,-4.0014,-3.9974,-3.984,-3.9706,-3.9599,-3.9573,-3.9426,-3.9185,-3.8918,-3.8758,-3.8731,-3.8718,-3.8718,-3.8718,-3.8718,-3.8718,-3.8718,-3.8718,-3.8718,-3.8718,-3.8718,-3.8718,-3.8718,-3.8718,-3.8718,-3.8718,-3.8718,-3.8718,-3.8718,-3.8718,-3.8718,-3.8718,-3.8718,-3.8718,-3.8557,-3.8557,-3.8477,-3.8464,-3.8357,-3.8263,-3.8183,-3.7996,-3.7889,-3.7596,-3.7276,-3.6984,-3.6415,-3.5847,-3.512,-3.4881,-3.4294,-3.3685,-3.3424,-3.3437,-3.34,-3.3364,-3.3364,-3.3364,-3.3364,-3.3364,-3.3364,-3.3364,-3.3364,-3.3364,-4.2467,-4.1254,-4.0672,-3.9904,-3.9092,-3.9092,-3.9145,-3.9265,-3.9386,-3.9426,-3.9452,-3.972,-3.9867,-3.9907,-4.008,-4.0187,-4.0308,-4.0308,-4.0388,-4.0428,-4.0481,-4.0481,-4.0481,-4.0481,-4.0481,-4.0481,-4.0481,-4.0481,-4.0481,-4.0481,-4.0481,-4.0481,-4.0481,-4.0481,-4.0481,-4.0481,-4.0481,-4.0481,-4.0481,-4.0481,-4.0481,-4.0481,-4.0481,-4.0481,-4.0481,-4.0481,-4.0468,-4.0481,-4.0481,-4.0454,-4.0348,-4.0308,-4.0267,-4.0134,-4.0027,-3.9893,-3.9867,-3.9706,-3.9439,-3.9159,-3.8931,-3.8744,-3.8718,-3.8718,-3.8718,-3.8718,-3.8718,-3.8718,-3.8718,-3.8718,-3.8718,-3.8718,-3.8718,-3.8718,-3.8718,-3.8718,-3.8718,-3.8718,-3.8718,-3.8718,-3.8718,-3.8718,-3.8718,-3.8718,-3.8718,-3.8704,-3.8718,-3.8704,-3.8664,-3.8624,-3.8517,-3.8464,-3.829,-3.8183,-3.8116,-3.7848,-3.7567,-3.7207,-3.6622,-3.6103,-3.5358,-3.4693,-3.4319,-3.3807,-3.3485,-3.3424,-3.34,-3.3376,-3.3364,-3.3364,-3.3364,-3.3364,-3.3364,-3.3364,-3.3364,-4.3636,-4.2218,-4.1744,-4.0921,-3.9613,-3.9599,-3.9599,-3.9613,-3.9693,-3.9786,-3.9867,-4.008,-4.0161,-4.0227,-4.0348,-4.0454,-4.0454,-4.0454,-4.0468,-4.0481,-4.0481,-4.0481,-4.0481,-4.0481,-4.0481,-4.0481,-4.0481,-4.0481,-4.0481,-4.0481,-4.0481,-4.0481,-4.0481,-4.0481,-4.0481,-4.0481,-4.0481,-4.0481,-4.0481,-4.0481,-4.0481,-4.0481,-4.0481,-4.0481,-4.0481,-4.0481,-4.0481,-4.0481,-4.0481,-4.0481,-4.0454,-4.0468,-4.0468,-4.0454,-4.0361,-4.0241,-4.0134,-4.0014,-3.9733,-3.9359,-3.9078,-3.8918,-3.8758,-3.8731,-3.8718,-3.8718,-3.8718,-3.8718,-3.8718,-3.8718,-3.8718,-3.8718,-3.8718,-3.8718,-3.8718,-3.8718,-3.8718,-3.8718,-3.8718,-3.8718,-3.8718,-3.8718,-3.8718,-3.8718,-3.8718,-3.8718,-3.8718,-3.8718,-3.8704,-3.8691,-3.8678,-3.8651,-3.8611,-3.8517,-3.8437,-3.8384,-3.81,-3.7818,-3.7227,-3.6626,-3.6054,-3.5383,-3.4503,-3.3928,-3.3593,-3.3485,-3.3412,-3.3376,-3.3376,-3.3364,-3.3364,-3.3364,-3.3364,-3.3364,-3.3364,-4.4519,-4.335,-4.2587,-4.1293,-3.968,-3.9613,-3.964,-3.9733,-3.992,-4.0161,-4.0348,-4.0428,-4.0428,-4.0428,-4.0468,-4.0481,-4.0481,-4.0481,-4.0481,-4.0481,-4.0481,-4.0481,-4.0481,-4.0481,-4.0481,-4.0481,-4.0481,-4.0481,-4.0481,-4.0481,-4.0481,-4.0481,-4.0481,-4.0481,-4.0481,-4.0481,-4.0481,-4.0481,-4.0481,-4.0481,-4.0481,-4.0481,-4.0481,-4.0481,-4.0481,-4.0481,-4.0481,-4.0481,-4.0481,-4.0481,-4.0481,-4.0481,-4.0481,-4.0481,-4.0454,-4.0428,-4.0428,-4.0294,-4.0027,-3.9479,-3.9252,-3.9132,-3.8972,-3.8811,-3.8758,-3.8731,-3.8718,-3.8718,-3.8718,-3.8718,-3.8718,-3.8718,-3.8718,-3.8718,-3.8718,-3.8718,-3.8718,-3.8718,-3.8718,-3.8718,-3.8718,-3.8718,-3.8718,-3.8718,-3.8718,-3.8718,-3.8718,-3.8718,-3.8718,-3.8718,-3.8718,-3.8718,-3.8718,-3.8678,-3.8597,-3.8651,-3.8638,-3.8366,-3.8042,-3.7423,-3.6564,-3.5927,-3.5027,-3.4123,-3.3548,-3.3476,-3.3308,-3.3376,-3.3376,-3.3364,-3.3364,-3.3364,-3.3364,-3.3364,-3.3588,-4.5026,-4.3844,-4.287,-4.1781,-4.0895,-4.0415,-4.0187,-4.0201,-4.0281,-4.0374,-4.0454,-4.0481,-4.0481,-4.0481,-4.0481,-4.0481,-4.0481,-4.0481,-4.0481,-4.0481,-4.0481,-4.0481,-4.0481,-4.0481,-4.0481,-4.0481,-4.0481,-4.0481,-4.0481,-4.0481,-4.0481,-4.0481,-4.0481,-4.0481,-4.0481,-4.0481,-4.0481,-4.0481,-4.0481,-4.0481,-4.0481,-4.0481,-4.0481,-4.0481,-4.0481,-4.0481,-4.0481,-4.0481,-4.0481,-4.0481,-4.0481,-4.0481,-4.0481,-4.0481,-4.0481,-4.0481,-4.0481,-4.0441,-4.0267,-3.9947,-3.9653,-3.9452,-3.9199,-3.9025,-3.9012,-3.8811,-3.8758,-3.8718,-3.8731,-3.8731,-3.8718,-3.8718,-3.8718,-3.8718,-3.8718,-3.8718,-3.8718,-3.8718,-3.8718,-3.8718,-3.8718,-3.8718,-3.8718,-3.8718,-3.8718,-3.8718,-3.8718,-3.8718,-3.8718,-3.8718,-3.8718,-3.8718,-3.8718,-3.8718,-3.8718,-3.8718,-3.8718,-3.8664,-3.8419,-3.7916,-3.7064,-3.6192,-3.5362,-3.4487,-3.3859,-3.3475,-3.3476,-3.3509,-3.34,-3.3364,-3.3364,-3.3364,-3.36,-3.3588,-3.38,-4.5756,-4.4563,-4.335,-4.2388,-4.1664,-4.0953,-4.0481,-4.0481,-4.0481,-4.0481,-4.0481,-4.0481,-4.0481,-4.0481,-4.0481,-4.0481,-4.0481,-4.0481,-4.0481,-4.0481,-4.0481,-4.0481,-4.0481,-4.0481,-4.0481,-4.0481,-4.0481,-4.0481,-4.0481,-4.0481,-4.0481,-4.0481,-4.0481,-4.0481,-4.0481,-4.0481,-4.0481,-4.0481,-4.0481,-4.0481,-4.0481,-4.0481,-4.0481,-4.0481,-4.0481,-4.0481,-4.0481,-4.0481,-4.0481,-4.0481,-4.0481,-4.0481,-4.0481,-4.0481,-4.0481,-4.0481,-4.0481,-4.0468,-4.0388,-4.0321,-4.0067,-3.9933,-3.9546,-3.9332,-3.9252,-3.9052,-3.8945,-3.8878,-3.8798,-3.8744,-3.8744,-3.8744,-3.8744,-3.8744,-3.8718,-3.8718,-3.8718,-3.8718,-3.8718,-3.8718,-3.8718,-3.8718,-3.8718,-3.8718,-3.8718,-3.8718,-3.8718,-3.8718,-3.8718,-3.8718,-3.8718,-3.8718,-3.8718,-3.8718,-3.8718,-3.8718,-3.8718,-3.8718,-3.8485,-3.8253,-3.7503,-3.6394,-3.5622,-3.506,-3.4402,-3.3943,-3.362,-3.3654,-3.3545,-3.3437,-3.3364,-3.3588,-3.36,-3.4035,-3.447,-4.6469,-4.5279,-4.4084,-4.3124,-4.2147,-4.0953,-4.0481,-4.0481,-4.0481,-4.0481,-4.0481,-4.0481,-4.0481,-4.0481,-4.0481,-4.0481,-4.0481,-4.0481,-4.0481,-4.0481,-4.0481,-4.0481,-4.0481,-4.0481,-4.0481,-4.0481,-4.0481,-4.0481,-4.0481,-4.0481,-4.0481,-4.0481,-4.0481,-4.0481,-4.0481,-4.0481,-4.0481,-4.0481,-4.0481,-4.0481,-4.0481,-4.0481,-4.0481,-4.0481,-4.0481,-4.0481,-4.0481,-4.0481,-4.0481,-4.0481,-4.0481,-4.0481,-4.0481,-4.0481,-4.0481,-4.0481,-4.0481,-4.0481,-4.0468,-4.0414,-4.0414,-4.0254,-3.9933,-3.972,-3.9533,-3.9346,-3.9212,-3.9118,-3.9038,-3.8891,-3.8784,-3.8784,-3.8771,-3.8758,-3.8718,-3.8718,-3.8718,-3.8718,-3.8718,-3.8718,-3.8718,-3.8718,-3.8718,-3.8718,-3.8718,-3.8718,-3.8718,-3.8718,-3.8718,-3.8718,-3.8718,-3.8718,-3.8718,-3.8718,-3.8718,-3.8718,-3.8718,-3.8718,-3.8718,-3.8253,-3.7529,-3.6804,-3.6004,-3.5427,-3.5109,-3.4657,-3.4149,-3.3883,-3.3666,-3.3569,-3.3449,-3.3812,-3.4048,-3.4705,-3.5138,-4.7417,-4.6469,-4.4802,-4.335,-4.2388,-4.0953,-4.0481,-4.0481,-4.0481,-4.0481,-4.0481,-4.0481,-4.0481,-4.0481,-4.0481,-4.0481,-4.0481,-4.0481,-4.0481,-4.0481,-4.0481,-4.0481,-4.0481,-4.0481,-4.0481,-4.0481,-4.0481,-4.0481,-4.0481,-4.0481,-4.0481,-4.0481,-4.0481,-4.0481,-4.0481,-4.0481,-4.0481,-4.0481,-4.0481,-4.0481,-4.0481,-4.0481,-4.0481,-4.0481,-4.0481,-4.0481,-4.0481,-4.0481,-4.0481,-4.0481,-4.0481,-4.0481,-4.0481,-4.0481,-4.0481,-4.0481,-4.0481,-4.0481,-4.0481,-4.0481,-4.0481,-4.0481,-4.0267,-4.0134,-3.992,-3.968,-3.9493,-3.9412,-3.9319,-3.9185,-3.9065,-3.9025,-3.8931,-3.8838,-3.8798,-3.8771,-3.8758,-3.8718,-3.8718,-3.8718,-3.8718,-3.8718,-3.8718,-3.8718,-3.8718,-3.8718,-3.8718,-3.8718,-3.8718,-3.8718,-3.8718,-3.8718,-3.8718,-3.8718,-3.8718,-3.8718,-3.8718,-3.8718,-3.8718,-3.8485,-3.7775,-3.705,-3.6313,-3.5783,-3.5206,-3.4864,-3.4694,-3.4402,-3.3823,-3.3892,-3.377,-3.4122,-3.4495,-3.5374,-3.6236,-4.8109,-4.6943,-4.5502,-4.383,-4.2388,-4.1195,-4.071,-4.0481,-4.0481,-4.0481,-4.0481,-4.0481,-4.0481,-4.0481,-4.0481,-4.0481,-4.0481,-4.0481,-4.0481,-4.0481,-4.0481,-4.0481,-4.0481,-4.0481,-4.0481,-4.0481,-4.0481,-4.0481,-4.0481,-4.0481,-4.0481,-4.0481,-4.0481,-4.0481,-4.0481,-4.0481,-4.0481,-4.0481,-4.0481,-4.0481,-4.0481,-4.0481,-4.0481,-4.0481,-4.0481,-4.0481,-4.0481,-4.0481,-4.0481,-4.0481,-4.0481,-4.0481,-4.0481,-4.0481,-4.0481,-4.0481,-4.0481,-4.0481,-4.0481,-4.0481,-4.0481,-4.0481,-4.0481,-4.0374,-4.0187,-3.996,-3.984,-3.9746,-3.9626,-3.9519,-3.9412,-3.9306,-3.9118,-3.8945,-3.8891,-3.8851,-3.8798,-3.8731,-3.8718,-3.8718,-3.8718,-3.8718,-3.8718,-3.8718,-3.8718,-3.8718,-3.8718,-3.8718,-3.8718,-3.8718,-3.8718,-3.8718,-3.8718,-3.8718,-3.8718,-3.8718,-3.8718,-3.8718,-3.8718,-3.8485,-3.7788,-3.7076,-3.6338,-3.5833,-3.5071,-3.4949,-3.4828,-3.4499,-3.3944,-3.4026,-3.4294,-3.4582,-3.5387,-3.6484,-3.7316,-4.905,-4.718,-4.5756,-4.4069,-4.2629,-4.1664,-4.0953,-4.0468,-4.0468,-4.0481,-4.0481,-4.0481,-4.0481,-4.0481,-4.0481,-4.0481,-4.0481,-4.0481,-4.0481,-4.0481,-4.0481,-4.0481,-4.0481,-4.0481,-4.0481,-4.0481,-4.0481,-4.0481,-4.0481,-4.0481,-4.0481,-4.0481,-4.0481,-4.0481,-4.0481,-4.0481,-4.0481,-4.0481,-4.0481,-4.0481,-4.0481,-4.0481,-4.0481,-4.0481,-4.0481,-4.0481,-4.0481,-4.0481,-4.0481,-4.0481,-4.0481,-4.0481,-4.0481,-4.0481,-4.0481,-4.0481,-4.0481,-4.0481,-4.0481,-4.0481,-4.0481,-4.0481,-4.0481,-4.0454,-4.0308,-4.0201,-4.0094,-4.0054,-3.996,-3.9813,-3.9693,-3.9626,-3.9479,-3.9292,-3.9185,-3.9065,-3.8918,-3.8825,-3.8718,-3.8718,-3.8718,-3.8718,-3.8718,-3.8718,-3.8718,-3.8718,-3.8718,-3.8718,-3.8718,-3.8718,-3.8718,-3.8718,-3.8718,-3.8718,-3.8718,-3.8718,-3.8718,-3.8718,-3.8718,-3.8485,-3.8253,-3.7309,-3.6363,-3.5845,-3.5083,-3.5034,-3.4888,-3.4609,-3.4583,-3.4362,-3.4618,-3.5266,-3.6289,-3.7604,-3.8417,-5.0221,-4.8329,-4.5741,-4.4084,-4.3124,-4.1906,-4.1423,-4.1181,-4.071,-4.0481,-4.0481,-4.0481,-4.0481,-4.0481,-4.0481,-4.0481,-4.0481,-4.0481,-4.0481,-4.0481,-4.0481,-4.0481,-4.0481,-4.0481,-4.0481,-4.0481,-4.0481,-4.0481,-4.0481,-4.0481,-4.0481,-4.0481,-4.0481,-4.0481,-4.0481,-4.0481,-4.0481,-4.0481,-4.0481,-4.0481,-4.0481,-4.0481,-4.0481,-4.0481,-4.0481,-4.0481,-4.0481,-4.0481,-4.0481,-4.0481,-4.0481,-4.0481,-4.0481,-4.0481,-4.0481,-4.0481,-4.0481,-4.0481,-4.0481,-4.0481,-4.0481,-4.0481,-4.0481,-4.0481,-4.0441,-4.0401,-4.0361,-4.0334,-4.0254,-4.0107,-3.9987,-3.992,-3.9827,-3.9653,-3.9479,-3.9279,-3.9078,-3.8905,-3.8758,-3.8718,-3.8718,-3.8718,-3.8718,-3.8718,-3.8718,-3.8718,-3.8718,-3.8718,-3.895,-3.895,-3.895,-3.895,-3.8718,-3.8718,-3.8718,-3.8718,-3.8718,-3.8718,-3.8718,-3.8485,-3.8485,-3.7542,-3.6596,-3.5845,-3.5316,-3.555,-3.5734,-3.578,-3.553,-3.5268,-3.5873,-3.6748,-3.7921,-3.9203,-3.9775,-5.137,-4.9503,-4.6438,-4.4563,-4.3605,-4.2388,-4.1664,-4.1423,-4.071,-4.0481,-4.0481,-4.0481,-4.0481,-4.0481,-4.0481,-4.0481,-4.0481,-4.0481,-4.0481,-4.0481,-4.0481,-4.0481,-4.0481,-4.0481,-4.0481,-4.0481,-4.0481,-4.0481,-4.0495,-4.0481,-4.0481,-4.0495,-4.0495,-4.0495,-4.0481,-4.0481,-4.0481,-4.0481,-4.0481,-4.0481,-4.0481,-4.0481,-4.0481,-4.0481,-4.0481,-4.0481,-4.0481,-4.0481,-4.0481,-4.0481,-4.0481,-4.0481,-4.0481,-4.0481,-4.0481,-4.0481,-4.0481,-4.0481,-4.0481,-4.0481,-4.0481,-4.0481,-4.0481,-4.0481,-4.0481,-4.0428,-4.0428,-4.0414,-4.0414,-4.0281,-4.0267,-4.0214,-4.0054,-3.9893,-3.9746,-3.9586,-3.9306,-3.9038,-3.8865,-3.8718,-3.8718,-3.8718,-3.8718,-3.8718,-3.8718,-3.9168,-3.9168,-3.9399,-3.9399,-3.9168,-3.9399,-3.9413,-3.9181,-3.8718,-3.8718,-3.8718,-3.8718,-3.8718,-3.8718,-3.8485,-3.8253,-3.7775,-3.7063,-3.6275,-3.6042,-3.6609,-3.6766,-3.7077,-3.6692,-3.6449,-3.7237,-3.8472,-3.9665,-4.0636,-4.0971,-5.2297,-5.0655,-4.7622,-4.5741,-4.4548,-4.311,-4.2147,-4.1423,-4.0953,-4.0468,-4.0481,-4.0481,-4.0481,-4.0481,-4.0481,-4.0481,-4.0481,-4.0481,-4.0481,-4.0481,-4.0481,-4.0481,-4.0481,-4.0481,-4.0481,-4.0481,-4.0481,-4.0535,-4.0588,-4.0588,-4.0588,-4.0535,-4.0521,-4.0521,-4.0495,-4.0481,-4.0481,-4.0481,-4.0481,-4.0481,-4.0481,-4.0481,-4.0481,-4.0481,-4.0481,-4.0481,-4.0481,-4.0481,-4.0481,-4.0481,-4.0481,-4.0481,-4.0481,-4.0481,-4.0481,-4.0481,-4.0481,-4.0481,-4.0481,-4.0481,-4.0481,-4.0481,-4.0481,-4.0481,-4.0481,-4.0481,-4.0481,-4.0481,-4.0481,-4.0481,-4.0454,-4.0414,-4.0254,-4.012,-4.0,-3.988,-3.9546,-3.9212,-3.9232,-3.903,-3.899,-3.899,-3.8963,-3.8963,-3.9168,-3.9631,-3.9862,-4.0079,-4.031,-4.0079,-4.0093,-3.9862,-3.9631,-3.9399,-3.895,-3.895,-3.895,-3.8718,-3.8718,-3.8485,-3.8253,-3.824,-3.7723,-3.6677,-3.6715,-3.7775,-3.8472,-3.8802,-3.841,-3.8021,-3.9146,-4.0387,-4.0838,-4.1811,-4.2258,-5.299,-5.0672,-4.858,-4.6943,-4.5741,-4.4548,-4.335,-4.2147,-4.1423,-4.0953,-4.0724,-4.0481,-4.0481,-4.0481,-4.0481,-4.0481,-4.0481,-4.0481,-4.0481,-4.0481,-4.0481,-4.0481,-4.0535,-4.0628,-4.0508,-4.0535,-4.0601,-4.0628,-4.0788,-4.0829,-4.0829,-4.0829,-4.0829,-4.0722,-4.0508,-4.0508,-4.0521,-4.0521,-4.0495,-4.0481,-4.0481,-4.0481,-4.0481,-4.0481,-4.0481,-4.0481,-4.0481,-4.0481,-4.0481,-4.0481,-4.0481,-4.0481,-4.0481,-4.0481,-4.0481,-4.0481,-4.0481,-4.0481,-4.0481,-4.0481,-4.0481,-4.0481,-4.0481,-4.0481,-4.0481,-4.0481,-4.0481,-4.0481,-4.0481,-4.0481,-4.0468,-4.0468,-4.0361,-4.0294,-4.0187,-4.0054,-3.9827,-3.9952,-3.9875,-3.9932,-4.0041,-3.9986,-4.0148,-4.0134,-4.0093,-4.031,-4.054,-4.0771,-4.1001,-4.0771,-4.0771,-4.0771,-4.054,-3.9848,-3.9631,-3.9399,-3.9399,-3.9181,-3.9181,-3.9399,-3.9399,-3.9399,-3.8856,-3.8016,-3.8557,-3.9631,-4.0296,-4.0728,-4.0588,-4.0419,-4.1456,-4.2364,-4.2795,-4.2935,-4.3332]}]]